[[{"header":{"parameterUnit":"m.s-1","parameterCategory":1,"la1":30.6,"la2":28.766,"lo1":-90.7593,"lo2":-88.6598,"dy":0.0162,"dx":0.0183,"nx":116,"ny":114,"refTime":"2023-03-04T06:00:00:Z","depth":0,"parameterNumber":2,"parameterNumberName":"U-component_of_WINDS"},"data":[0.0,0.0,0.0,0.0,0.0,0.0,0.0,0.0,0.0,0.0,0.0,0.0,0.0,0.0,0.0,0.0,0.0,0.0,0.0,0.0,0.0,0.0,0.0,0.0,0.0,0.0,0.0,0.0,0.0,0.0,0.0,0.0,0.0,0.0,0.0,0.0,0.0,0.0,0.0,0.0,0.0,0.0,0.0,0.0,0.0,0.0,0.0,0.0,0.0,0.0,0.0,0.0,0.0,0.0,0.0,0.0,0.0,0.0,0.0,0.0,0.0,0.0,0.0,0.0,0.0,0.0,0.0,0.0,0.0,0.0,0.0,0.0,0.0,0.0,0.0,0.0,0.0,0.0,0.0,0.0,0.0,0.0,0.0,0.0,0.0,0.0,0.0,0.0,0.0,0.0,0.0,0.0,0.0,0.0,0.0,0.0,0.0,0.0,0.0,0.0,0.0,0.0,0.0,0.0,0.0,0.0,0.0,0.0,0.0,0.0,0.0,0.0,0.0,0.0,0.0,0.0,0.0,0.0,0.0,0.0,0.0,0.0,0.0,0.0,0.0,0.0,0.0,0.0,0.0,0.0,0.0,0.0,0.0,0.0,0.0,0.0,0.0,0.0,0.0,0.0,0.0,0.0,0.0,0.0,0.0,0.0,0.0,0.0,0.0,0.0,0.0,0.0,0.0,0.0,0.0,0.0,0.0,0.0,0.0,0.0,0.0,0.0,0.0,0.0,0.0,0.0,0.0,0.0,0.0,0.0,0.0,0.0,0.0,0.0,0.0,0.0,0.0,0.0,0.0,0.0,0.0,0.0,0.0,0.0,0.0,0.0,0.0,0.0,0.0,0.0,0.0,0.0,0.0,0.0,0.0,0.0,0.0,0.0,0.0,0.0,0.0,0.0,0.0,0.0,0.0,0.0,0.0,0.0,0.0,0.0,0.0,0.0,0.0,0.0,0.0,0.0,0.0,0.0,0.0,0.0,0.0,0.0,0.0,0.0,0.0,0.0,0.0,0.0,0.0,0.0,0.0,0.0,0.0,0.0,0.0,0.0,0.0,0.0,0.0,0.0,0.0,0.0,0.0,0.0,0.0,0.0,0.0,0.0,0.0,0.0,0.0,0.0,0.0,0.0,0.0,0.0,0.0,0.0,0.0,0.0,0.0,0.0,0.0,0.0,0.0,0.0,0.0,0.0,0.0,0.0,0.0,0.0,0.0,0.0,0.0,0.0,0.0,0.0,0.0,0.0,0.0,0.0,0.0,0.0,0.0,0.0,0.0,0.0,0.0,0.0,0.0,0.0,0.0,0.0,0.0,0.0,0.0,0.0,0.0,0.0,0.0,0.0,0.0,0.0,0.0,0.0,0.0,0.0,0.0,0.0,0.0,0.0,0.0,0.0,0.0,0.0,0.0,0.0,0.0,0.0,0.0,0.0,0.0,0.0,0.0,0.0,0.0,0.0,0.0,0.0,0.0,0.0,0.0,0.0,0.0,0.0,0.0,0.0,0.0,0.0,0.0,0.0,0.0,0.0,0.0,0.0,0.0,0.0,0.0,0.0,0.0,0.0,0.0,0.0,0.0,0.0,0.0,0.0,0.0,0.0,0.0,0.0,0.0,0.0,0.0,0.0,0.0,0.0,0.0,0.0,0.0,0.0,0.0,0.0,0.0,0.0,0.0,0.0,0.0,0.0,0.0,0.0,0.0,0.0,0.0,0.0,0.0,0.0,0.0,0.0,0.0,0.0,0.0,0.0,0.0,0.0,0.0,0.0,0.0,0.0,0.0,0.0,0.0,0.0,0.0,0.0,0.0,0.0,0.0,0.0,0.0,0.0,0.0,0.0,0.0,0.0,0.0,0.0,0.0,0.0,0.0,0.0,0.0,0.0,0.0,0.0,0.0,0.0,0.0,0.0,0.0,0.0,0.0,0.0,0.0,0.0,0.0,0.0,0.0,0.0,0.0,0.0,0.0,0.0,0.0,0.0,0.0,0.0,0.0,0.0,0.0,0.0,0.0,0.0,0.0,0.0,0.0,0.0,0.0,0.0,0.0,0.0,0.0,0.0,0.0,0.0,0.0,0.0,0.0,0.0,0.0,0.0,0.0,0.0,0.0,0.0,0.0,0.0,0.0,0.0,0.0,0.0,0.0,0.0,0.0,0.0,0.0,0.0,0.0,0.0,0.0,0.0,0.0,0.0,0.0,0.0,0.0,0.0,0.0,0.0,0.0,0.0,0.0,0.0,0.0,0.0,0.0,0.0,0.0,0.0,0.0,0.0,0.0,0.0,0.0,0.0,0.0,0.0,0.0,0.0,0.0,0.0,0.0,0.0,0.0,0.0,0.0,0.0,0.0,0.0,0.0,0.0,0.0,0.0,0.0,0.0,0.0,0.0,0.0,0.0,0.0,0.0,0.0,0.0,0.0,0.0,0.0,0.0,0.0,0.0,0.0,0.0,0.0,0.0,0.0,0.0,0.0,0.0,0.0,0.0,0.0,0.0,0.0,0.0,0.0,0.0,0.0,0.0,0.0,0.0,0.0,0.0,0.0,0.0,0.0,0.0,0.0,0.0,0.0,0.0,0.0,0.0,0.0,0.0,0.0,0.0,0.0,0.0,0.0,0.0,0.0,0.0,0.0,0.0,0.0,0.0,0.0,0.0,0.0,0.0,0.0,0.0,0.0,0.0,0.0,0.0,0.0,0.0,0.0,0.0,0.0,0.0,0.0,0.0,0.0,0.0,0.0,0.0,0.0,0.0,0.0,0.0,0.0,0.0,0.0,0.0,0.0,0.0,0.0,0.0,0.0,0.0,0.0,0.0,0.0,0.0,0.0,0.0,0.0,0.0,0.0,0.0,0.0,0.0,0.0,0.0,0.0,0.0,0.0,0.0,0.0,0.0,0.0,0.0,0.0,0.0,0.0,0.0,0.0,0.0,0.0,0.0,0.0,0.0,0.0,0.0,0.0,0.0,0.0,0.0,0.0,0.0,0.0,0.0,0.0,0.0,0.0,0.0,0.0,0.0,0.0,0.0,0.0,0.0,0.0,0.0,0.0,0.0,0.0,0.0,0.0,0.0,0.0,0.0,0.0,0.0,0.0,0.0,0.0,0.0,0.0,0.0,0.0,0.0,0.0,0.0,0.0,0.0,0.0,0.0,0.0,0.0,0.0,0.0,0.0,0.0,0.0,0.0,0.0,0.0,0.0,0.0,0.0,0.0,0.0,0.0,0.0,0.0,0.0,0.0,0.0,0.0,0.0,0.0,0.0,0.0,0.0,0.0,0.0,0.0,0.0,0.0,0.0,0.0,0.0,0.0,0.0,0.0,0.0,0.0,0.0,0.0,0.0,0.0,0.0,0.0,0.0,0.0,0.0,0.0,0.0,0.0,0.0,0.0,0.0,0.0,0.0,0.0,0.0,0.0,0.0,0.0,0.0,0.0,0.0,0.0,0.0,0.0,0.0,0.0,0.0,0.0,0.0,0.0,0.0,0.0,0.0,0.0,0.0,0.0,0.0,0.0,0.0,0.0,0.0,0.0,0.0,0.0,0.0,0.0,0.0,0.0,0.0,0.0,0.0,0.0,0.0,0.0,0.0,0.0,0.0,0.0,0.0,0.0,0.0,0.0,0.0,0.0,0.0,0.0,0.0,0.0,0.0,0.0,0.0,0.0,0.0,0.0,0.0,0.0,0.0,0.0,0.0,0.0,0.0,0.0,0.0,0.0,0.0,0.0,0.0,0.0,0.0,0.0,0.0,0.0,0.0,0.0,0.0,0.0,0.0,0.0,0.0,0.0,0.0,0.0,0.0,0.0,0.0,0.0,0.0,0.0,0.0,0.0,0.0,0.0,0.0,0.0,0.0,0.0,0.0,0.0,0.0,0.0,0.0,0.0,0.0,0.0,0.0,0.0,0.0,0.0,0.0,0.0,0.0,0.0,0.0,0.0,0.0,0.0,0.0,0.0,0.0,0.0,0.0,0.0,0.0,0.0,0.0,0.0,0.0,0.0,0.0,0.0,0.0,0.0,0.0,0.0,0.0,0.0,0.0,0.0,0.0,0.0,0.0,0.0,0.0,0.0,0.0,0.0,0.0,0.0,0.0,0.0,0.0,0.0,0.0,0.0,0.0,0.0,0.0,0.0,0.0,0.0,0.0,0.0,0.0,0.0,0.0,0.0,0.0,0.0,0.0,0.0,0.0,0.0,0.0,0.0,0.0,0.0,0.0,0.0,0.0,0.0,0.0,0.0,0.0,0.0,0.0,0.0,0.0,0.0,0.0,0.0,0.0,0.0,0.0,0.0,0.0,0.0,0.0,0.0,0.0,0.0,0.0,0.0,0.0,0.0,0.0,0.0,0.0,0.0,0.0,0.0,0.0,0.0,0.0,0.0,0.0,0.0,0.0,0.0,0.0,0.0,0.0,0.0,0.0,0.0,0.0,0.0,0.0,0.0,0.0,0.0,0.0,0.0,0.0,0.0,0.0,0.0,0.0,0.0,0.0,0.0,0.0,0.0,0.0,0.0,0.0,0.0,0.0,0.0,0.0,0.0,0.0,0.0,0.0,0.0,0.0,0.0,0.0,0.0,0.0,0.0,0.0,0.0,0.0,0.0,0.0,0.0,0.0,0.0,0.0,0.0,0.0,0.0,0.0,0.0,0.0,0.0,0.0,0.0,0.0,0.0,0.0,0.0,0.0,0.0,0.0,0.0,0.0,0.0,0.0,0.0,0.0,0.0,0.0,0.0,0.0,0.0,0.0,0.0,0.0,0.0,0.0,0.0,0.0,0.0,0.0,0.0,0.0,0.0,0.0,0.0,0.0,0.0,0.0,0.0,0.0,0.0,0.0,0.0,0.0,0.0,0.0,0.0,0.0,0.0,0.0,0.0,0.0,0.0,0.0,0.0,0.0,0.0,0.0,0.0,0.0,0.0,0.0,0.0,0.0,0.0,0.0,0.0,0.0,0.0,0.0,0.0,0.0,0.0,0.0,0.0,0.0,0.0,0.0,0.0,0.0,0.0,0.0,0.0,0.0,0.0,0.0,0.0,0.0,0.0,0.0,0.0,0.0,0.0,0.0,0.0,0.0,0.0,0.0,0.0,0.0,0.0,0.0,0.0,0.0,0.0,0.0,0.0,0.0,0.0,0.0,0.0,0.0,0.0,0.0,0.0,0.0,0.0,0.0,0.0,0.0,0.0,0.0,0.0,0.0,0.0,0.0,0.0,0.0,0.0,0.0,0.0,0.0,0.0,0.0,0.0,0.0,0.0,0.0,0.0,0.0,0.0,0.0,0.0,0.0,0.0,0.0,0.0,0.0,0.0,0.0,0.0,0.0,0.0,0.0,0.0,0.0,0.0,0.0,0.0,0.0,0.0,0.0,0.0,0.0,0.0,0.0,0.0,0.0,0.0,0.0,0.0,0.0,0.0,0.0,0.0,0.0,0.0,0.0,0.0,0.0,0.0,0.0,0.0,0.0,0.0,0.0,0.0,0.0,0.0,0.0,0.0,0.0,0.0,0.0,0.0,0.0,0.0,0.0,0.0,0.0,0.0,0.0,0.0,0.0,0.0,0.0,0.0,0.0,0.0,0.0,0.0,0.0,0.0,0.0,0.0,0.0,0.0,0.0,0.0,0.0,0.0,0.0,0.0,0.0,0.0,0.0,0.0,0.0,0.0,0.0,0.0,0.0,0.0,0.0,0.0,0.0,0.0,0.0,0.0,0.0,0.0,0.0,0.0,0.0,0.0,0.0,0.0,0.0,0.0,0.0,0.0,0.0,0.0,0.0,0.0,0.0,0.0,0.0,0.0,0.0,0.0,0.0,0.0,0.0,0.0,0.0,0.0,0.0,0.0,0.0,0.0,0.0,0.0,0.0,0.0,0.0,0.0,0.0,0.0,0.0,0.0,0.0,0.0,0.0,0.0,0.0,0.0,0.0,0.0,0.0,0.0,0.0,0.0,0.0,0.0,0.0,0.0,0.0,0.0,0.0,0.0,0.0,0.0,0.0,0.0,0.0,0.0,0.0,0.0,0.0,0.0,0.0,0.0,0.0,0.0,0.0,0.0,0.0,0.0,0.0,0.0,0.0,0.0,0.0,0.0,0.0,0.0,0.0,0.0,0.0,0.0,2.8594,2.8883,0.0,0.0,0.0,0.0,0.0,0.0,0.0,0.0,0.0,0.0,0.0,0.0,0.0,0.0,0.0,0.0,0.0,0.0,0.0,0.0,0.0,0.0,0.0,0.0,0.0,0.0,0.0,0.0,0.0,0.0,0.0,0.0,0.0,0.0,0.0,0.0,0.0,0.0,0.0,0.0,0.0,0.0,0.0,0.0,0.0,0.0,0.0,0.0,0.0,0.0,0.0,0.0,0.0,0.0,0.0,0.0,0.0,0.0,0.0,0.0,0.0,0.0,0.0,0.0,0.0,0.0,0.0,0.0,0.0,0.0,0.0,0.0,0.0,0.0,0.0,0.0,0.0,0.0,0.0,0.0,0.0,0.0,0.0,0.0,0.0,0.0,0.0,0.0,0.0,0.0,0.0,0.0,0.0,0.0,0.0,0.0,0.0,0.0,0.0,0.0,0.0,0.0,0.0,0.0,0.0,0.0,0.0,0.0,0.0,0.0,0.0,0.0,0.0,0.0,2.9898,2.9365,0.0,0.0,0.0,0.0,0.0,0.0,0.0,0.0,0.0,0.0,0.0,0.0,0.0,0.0,0.0,0.0,0.0,0.0,0.0,0.0,0.0,0.0,0.0,0.0,0.0,0.0,0.0,0.0,0.0,0.0,0.0,0.0,0.0,0.0,0.0,0.0,0.0,0.0,0.0,0.0,0.0,0.0,0.0,0.0,0.0,0.0,0.0,0.0,0.0,0.0,0.0,0.0,0.0,0.0,0.0,0.0,0.0,0.0,0.0,0.0,0.0,0.0,0.0,0.0,0.0,0.0,0.0,0.0,0.0,0.0,0.0,0.0,0.0,0.0,0.0,0.0,0.0,0.0,0.0,0.0,0.0,0.0,0.0,0.0,0.0,0.0,0.0,0.0,0.0,0.0,0.0,0.0,0.0,0.0,0.0,0.0,0.0,0.0,0.0,0.0,0.0,0.0,0.0,0.0,0.0,0.0,0.0,0.0,3.2173,3.2944,3.4211,3.355,3.3678,3.4321,3.2192,3.065,2.9654,3.0191,0.0,0.0,0.0,0.0,0.0,0.0,0.0,0.0,0.0,0.0,0.0,0.0,0.0,0.0,0.0,0.0,0.0,0.0,0.0,0.0,0.0,0.0,0.0,0.0,0.0,0.0,0.0,0.0,0.0,0.0,0.0,0.0,0.0,0.0,0.0,0.0,0.0,0.0,2.8115,2.9787,3.0281,2.9712,2.6656,0.0,0.0,0.0,0.0,0.0,0.0,0.0,0.0,0.0,0.0,0.0,0.0,0.0,0.0,0.0,0.0,0.0,0.0,0.0,0.0,0.0,0.0,0.0,0.0,0.0,0.0,0.0,0.0,0.0,0.0,0.0,0.0,0.0,0.0,0.0,0.0,0.0,0.0,0.0,0.0,0.0,0.0,0.0,2.7549,2.7889,0.0,0.0,0.0,0.0,0.0,0.0,0.0,0.0,0.0,0.0,0.0,0.0,0.0,3.1421,3.2137,3.3615,3.4403,3.4513,3.5293,3.5771,3.5973,3.5862,3.6248,3.6945,3.5936,0.0,3.21,3.1494,0.0,0.0,0.0,0.0,0.0,0.0,0.0,0.0,0.0,0.0,0.0,0.0,0.0,0.0,0.0,0.0,0.0,0.0,0.0,0.0,0.0,0.0,0.0,0.0,0.0,0.0,0.0,0.0,0.0,0.0,0.0,0.0,0.0,0.0,0.0,0.0,2.7108,2.9092,3.0662,3.1877,3.2343,3.2118,3.0085,2.8938,2.838,2.7011,0.0,0.0,0.0,0.0,0.0,0.0,0.0,0.0,0.0,0.0,0.0,0.0,0.0,0.0,0.0,0.0,0.0,0.0,0.0,0.0,0.0,0.0,0.0,0.0,0.0,0.0,0.0,0.0,0.0,0.0,0.0,0.0,0.0,0.0,0.0,0.0,0.0,0.0,0.0,2.768,2.8167,2.8143,2.9141,3.0083,0.0,0.0,0.0,0.0,0.0,0.0,0.0,0.0,0.0,3.3587,3.3495,3.3844,3.4669,3.5826,3.6633,3.7092,3.7918,3.856,3.9001,3.9001,3.9203,3.9478,3.867,3.7698,3.6505,3.3844,3.2008,3.0907,0.0,0.0,0.0,0.0,3.2201,3.2281,0.0,0.0,0.0,0.0,0.0,0.0,0.0,0.0,0.0,0.0,0.0,0.0,0.0,0.0,0.0,2.483,0.0,0.0,0.0,0.0,0.0,0.0,0.0,0.0,0.0,0.0,0.0,0.0,3.0419,3.2269,3.3457,3.4387,3.4827,3.481,3.4252,3.2681,3.0294,2.845,2.7313,0.0,0.0,0.0,0.0,0.0,0.0,0.0,0.0,0.0,0.0,0.0,0.0,0.0,0.0,0.0,0.0,0.0,0.0,0.0,0.0,0.0,0.0,0.0,0.0,0.0,0.0,0.0,0.0,0.0,0.0,0.0,0.0,0.0,0.0,0.0,0.0,0.0,0.0,2.7998,2.8844,2.8414,2.9644,3.0683,0.0,0.0,0.0,0.0,0.0,0.0,3.3513,3.4119,3.511,3.656,3.6193,3.6376,3.7202,3.8212,3.9019,3.9643,4.0432,4.113,4.1717,4.1717,4.1717,4.168,4.0687,4.0262,3.9918,3.6248,3.4027,3.2926,3.2724,3.2779,3.3018,3.3623,3.399,3.4266,0.0,0.0,0.0,0.0,0.0,0.0,0.0,0.0,0.0,0.0,0.0,0.0,0.0,0.0,2.6338,2.6817,2.6928,2.6665,0.0,0.0,0.0,0.0,0.0,0.0,0.0,0.0,0.0,3.1633,3.3431,3.5098,3.6586,3.8041,3.8717,3.8717,3.8667,3.6804,3.3411,2.9926,2.8582,2.8657,0.0,0.0,0.0,0.0,0.0,0.0,0.0,0.0,0.0,0.0,0.0,0.0,0.0,0.0,0.0,0.0,0.0,0.0,0.0,0.0,0.0,0.0,0.0,0.0,0.0,0.0,0.0,0.0,0.0,0.0,0.0,0.0,0.0,0.0,0.0,0.0,0.0,0.0,0.0,2.8434,3.0613,0.0,0.0,0.0,0.0,3.3523,3.4376,3.522,3.6064,3.6156,3.656,3.7404,3.8138,3.8909,3.9698,4.1277,4.2084,4.2139,4.2928,4.3332,4.3369,4.3369,4.3369,4.3314,4.1905,4.1233,4.0855,3.834,3.7257,3.714,3.634,3.6505,3.7213,3.7221,3.7734,3.8395,0.0,0.0,0.0,0.0,0.0,0.0,0.0,0.0,0.0,0.0,0.0,0.0,0.0,2.7732,2.8796,2.9683,2.941,2.8415,2.6548,0.0,0.0,0.0,0.0,0.0,0.0,0.0,3.1357,3.4307,3.5898,3.7449,3.892,3.9445,3.9698,3.9698,3.9698,3.8787,3.6939,3.322,3.1056,2.9888,2.7434,2.6376,0.0,0.0,0.0,0.0,0.0,0.0,0.0,0.0,0.0,0.0,0.0,0.0,0.0,0.0,0.0,0.0,0.0,0.0,0.0,0.0,0.0,0.0,0.0,0.0,0.0,0.0,0.0,0.0,0.0,0.0,0.0,0.0,0.0,0.0,0.0,0.0,0.0,3.1477,3.3785,0.0,3.4277,3.4459,3.4856,3.5385,3.6156,3.6964,3.7808,3.7968,3.8809,4.0543,4.0149,4.0673,4.2194,4.2431,4.2723,4.3075,4.3883,4.3993,4.3516,4.367,4.3449,4.2921,4.2042,4.183,4.2032,4.0616,3.9331,3.823,3.7955,3.8028,3.8322,3.8836,3.9221,3.9551,0.0,0.0,0.0,0.0,0.0,0.0,0.0,0.0,0.0,0.0,0.0,2.5497,2.7943,2.9384,3.0595,3.1537,3.0424,2.9016,2.7328,0.0,0.0,0.0,0.0,0.0,0.0,3.1407,3.3648,3.64,3.7905,3.914,4.007,4.007,4.007,4.007,4.007,3.9817,3.9174,3.6451,3.3987,3.1733,2.9093,2.8343,2.8517,0.0,0.0,0.0,0.0,0.0,0.0,0.0,0.0,0.0,0.0,0.0,0.0,0.0,0.0,0.0,0.0,0.0,0.0,0.0,0.0,0.0,0.0,0.0,0.0,0.0,0.0,0.0,0.0,0.0,0.0,0.0,0.0,0.0,0.0,3.1988,3.3782,3.4352,3.6308,3.7301,3.6388,3.6407,3.6644,3.7092,3.8102,3.8975,3.9582,4.0195,4.0998,4.2087,4.1845,4.2318,4.3597,4.3286,4.343,4.4017,4.4546,4.4528,4.4017,4.4123,4.3884,4.3338,4.249,4.2422,4.2903,4.2155,4.1215,4.0267,3.9717,3.9845,4.0341,4.0598,4.0873,4.1185,0.0,0.0,0.0,0.0,0.0,0.0,0.0,0.0,0.0,0.0,2.3373,2.5546,2.7308,2.9789,3.1616,3.2247,2.986,2.8263,2.8216,2.5016,0.0,0.0,0.0,0.0,2.9788,3.364,3.6405,3.7959,3.9361,4.0104,4.0104,4.0087,4.0087,4.0104,4.0104,4.0121,4.0104,3.9394,3.7415,3.4523,3.1901,3.1422,3.1945,0.0,0.0,0.0,0.0,0.0,0.0,0.0,0.0,0.0,0.0,0.0,0.0,0.0,0.0,0.0,0.0,0.0,0.0,0.0,0.0,0.0,0.0,0.0,0.0,0.0,0.0,0.0,0.0,0.0,0.0,0.0,0.0,0.0,3.1064,3.388,3.6235,3.6826,3.8054,3.84,3.7321,3.7473,3.7991,3.8731,4.0253,4.1243,4.143,4.274,4.2976,4.1888,4.3089,4.3804,4.3902,4.3978,4.4333,4.498,4.5039,4.5039,4.5043,4.482,4.4728,4.4619,4.3282,4.3013,4.3481,4.2902,4.3014,4.3332,4.1791,4.2139,4.3406,4.2616,4.2818,4.3497,0.0,0.0,0.0,0.0,0.0,0.0,0.0,0.0,0.0,0.0,2.3829,2.6115,2.9114,3.1023,3.2228,3.2551,2.9647,2.7389,2.6413,0.0,0.0,0.0,0.0,0.0,3.4739,3.5821,3.7316,3.9338,3.9736,3.9918,3.9972,4.0034,4.0375,4.0899,4.0899,4.1187,4.1677,4.1474,4.0899,3.9749,3.5245,3.322,3.2605,0.0,0.0,0.0,0.0,0.0,0.0,0.0,0.0,0.0,0.0,0.0,0.0,0.0,0.0,0.0,0.0,0.0,0.0,0.0,0.0,0.0,0.0,0.0,0.0,0.0,0.0,0.0,0.0,0.0,0.0,0.0,3.1846,3.3312,3.36,3.662,3.8925,3.9211,4.0673,4.1069,3.975,4.0634,4.1107,4.069,4.1651,4.2303,4.2332,4.2423,4.2529,4.2581,4.2671,4.3119,4.397,4.405,4.4377,4.5021,4.6015,4.6209,4.5643,4.5281,4.5096,4.4877,4.3058,4.285,4.3737,4.3023,4.3014,4.3442,4.3002,4.3112,4.3461,4.324,4.3296,4.3497,0.0,0.0,0.0,0.0,0.0,0.0,0.0,0.0,0.0,0.0,2.3967,2.6204,2.8334,3.0409,3.1489,3.1029,2.8147,2.5884,2.4837,0.0,0.0,0.0,0.0,3.2285,3.6167,3.7065,3.8308,3.9868,3.9868,3.9868,3.9852,4.0266,4.0712,4.113,4.1485,4.1897,4.2286,4.2286,4.2472,4.2506,3.9445,3.7506,3.6152,3.3455,3.2698,3.2854,3.1308,3.1308,3.1732,3.0185,0.0,0.0,0.0,0.0,0.0,0.0,0.0,0.0,0.0,0.0,0.0,0.0,0.0,0.0,0.0,0.0,0.0,0.0,0.0,0.0,0.0,0.0,0.0,0.0,3.487,3.6918,3.7428,3.8943,4.0451,4.1593,4.2063,4.2109,4.1633,4.2294,4.257,4.2087,4.2499,4.2804,4.2914,4.2615,4.2504,4.2658,4.2979,4.3476,4.4143,4.4251,4.4585,4.524,4.6295,4.6571,4.6096,4.608,4.5843,4.534,4.3847,4.3409,4.3705,4.325,4.3214,4.3497,0.0,0.0,0.0,0.0,4.3497,4.3497,0.0,0.0,0.0,0.0,0.0,0.0,0.0,0.0,0.0,0.0,0.0,2.5587,2.5947,2.8462,2.9557,2.815,2.5809,2.4177,0.0,0.0,0.0,2.7777,3.124,3.3991,3.5824,3.778,3.9095,3.9783,3.9783,3.9815,3.9895,4.0626,4.1157,4.1403,4.2215,4.2642,4.2794,4.2794,4.3183,4.3792,4.3707,4.2726,4.0831,3.6609,3.5726,3.6446,3.4337,3.3155,3.2545,3.193,0.0,0.0,0.0,0.0,0.0,0.0,0.0,0.0,0.0,0.0,0.0,0.0,0.0,0.0,0.0,0.0,0.0,0.0,0.0,0.0,0.0,0.0,0.0,0.0,3.8638,4.135,4.1755,4.1137,4.1423,4.3481,4.2672,4.2194,4.2793,4.282,4.2811,4.2811,4.2723,4.2798,4.3068,4.2923,0.0,0.0,0.0,4.4371,4.4388,4.4619,4.4944,4.5511,4.6094,4.643,4.6536,4.6889,4.6725,4.6122,4.5242,4.4491,4.3883,4.3809,4.3718,4.3626,4.3534,4.3497,4.3497,4.3497,4.3497,4.3497,0.0,0.0,0.0,0.0,0.0,0.0,0.0,0.0,0.0,1.9972,2.1713,2.3086,2.3804,2.5956,2.6645,2.4717,2.364,2.3314,0.0,0.0,2.7838,3.1716,3.3339,3.536,3.8105,3.8464,3.8997,3.9629,3.9629,3.9909,4.0422,4.0841,4.1979,4.3657,4.4028,4.4807,4.5923,4.5923,4.6007,4.6092,4.55,4.3978,4.1982,4.105,4.0138,3.9142,3.7523,3.7011,3.6833,3.4604,3.4192,3.4155,3.1958,0.0,0.0,0.0,0.0,0.0,0.0,0.0,0.0,0.0,0.0,0.0,0.0,0.0,0.0,0.0,0.0,0.0,0.0,0.0,0.0,3.8182,4.0592,4.2591,4.4086,4.3763,4.3342,4.3331,4.3071,4.2794,4.2433,4.2317,4.2241,4.2241,4.1632,4.1568,4.2258,4.2396,4.2652,4.3183,4.4054,4.4555,4.4555,4.5056,4.5355,4.5511,4.6094,0.0,4.7194,4.6749,4.6999,4.7754,4.6466,4.6088,4.6361,4.57,4.5057,4.4415,4.3754,4.3497,4.3497,4.3497,4.3497,4.3497,0.0,0.0,0.0,0.0,0.0,0.0,0.0,0.0,0.0,0.0,2.0466,2.1637,2.1972,2.3829,2.4298,2.2323,2.2161,0.0,0.0,2.7307,3.0378,3.4636,3.5582,3.7026,3.9145,3.9482,3.9717,4.0005,4.034,4.0674,4.0978,4.161,4.2687,4.4237,4.4726,4.5908,4.7361,4.7361,4.7784,4.8409,4.8037,4.7005,4.5449,4.3572,4.2405,4.1576,4.0087,3.9429,3.8925,3.6895,3.6134,3.5633,3.3077,3.1998,3.1131,0.0,0.0,0.0,0.0,0.0,0.0,0.0,0.0,0.0,0.0,0.0,0.0,0.0,0.0,3.2871,3.3821,0.0,3.8536,4.0744,4.2849,4.4343,4.4599,4.4724,4.4541,4.3815,4.3151,4.2774,4.2864,4.2807,4.274,4.274,4.2364,4.2484,4.3288,4.3005,4.32,4.3978,4.4384,4.4587,4.4587,4.4906,4.5052,4.5035,4.5965,4.6571,4.691,4.7219,4.7479,4.7644,4.6934,4.6572,4.6452,4.5626,4.4837,4.4066,4.3644,4.3497,4.3497,4.3497,4.3497,4.3497,0.0,0.0,0.0,0.0,0.0,0.0,0.0,0.0,0.0,0.0,0.0,2.0364,2.0249,2.1714,2.2044,0.0,0.0,0.0,0.0,2.9297,3.2657,3.6613,3.7339,3.8341,3.9787,4.017,4.0456,4.0591,4.113,4.1444,4.164,4.2337,4.331,4.4426,4.5375,4.6753,4.8281,4.8483,4.9238,5.0304,5.0304,4.9864,4.8866,4.5703,4.4231,4.369,4.2337,4.1001,3.9732,3.8853,3.777,3.64,3.4078,3.355,3.2889,2.8611,2.8203,0.0,0.0,0.0,0.0,0.0,0.0,0.0,0.0,3.0892,3.1464,3.2875,3.4383,3.5986,3.7635,3.9783,4.1758,4.309,4.4926,4.5819,4.4676,4.5079,4.5234,4.4458,4.3386,4.298,4.3589,4.3504,4.342,4.342,4.3284,4.3538,4.4316,4.3758,4.3775,4.4553,4.4587,4.4587,4.4587,4.4587,4.4587,4.4626,4.5597,4.6192,4.6413,4.7452,4.7727,4.7352,4.7352,4.6985,4.6305,4.5516,4.469,4.3938,4.3791,4.3626,4.3497,4.3497,4.3497,4.3497,0.0,0.0,0.0,0.0,0.0,0.0,0.0,0.0,0.0,0.0,0.0,0.0,0.0,0.0,0.0,0.0,0.0,0.0,2.6641,3.023,3.3787,3.7438,3.7446,3.8409,4.043,3.9834,4.0096,4.1265,4.1339,4.1669,4.2314,4.2567,4.3712,4.5537,4.6779,4.8183,4.9554,5.0488,5.0947,5.1099,5.1099,5.0642,4.9847,4.8781,4.7158,4.5348,4.4502,4.1999,3.9292,4.0443,3.9022,3.6958,3.7939,3.6202,3.3545,3.1926,2.8723,2.573,2.562,2.5715,2.626,2.8003,2.8513,2.9791,0.0,3.4892,3.4768,3.6527,3.8151,3.9562,4.0492,4.2051,4.3779,4.5495,4.6008,4.5998,4.5422,4.5442,4.5303,4.4657,4.4423,4.4367,4.4451,4.3826,4.342,4.342,4.2794,4.2743,4.3504,4.347,4.3775,4.4553,4.4587,4.4587,4.4587,4.4587,4.4587,4.4587,4.472,4.5355,4.6413,4.6571,4.7183,4.8177,4.8177,4.8122,4.7976,4.7168,4.6361,4.5553,4.4837,4.4121,4.3497,4.3497,4.3497,4.3497,0.0,0.0,0.0,0.0,0.0,0.0,0.0,0.0,0.0,0.0,0.0,0.0,0.0,0.0,0.0,0.0,0.0,0.0,2.8351,3.1017,3.4347,3.8743,3.8295,3.8742,4.0425,4.0573,4.101,4.1953,4.2327,4.2656,4.2925,4.3391,4.4388,4.5773,4.7341,4.8915,5.0373,5.1413,5.2114,5.2553,5.2553,5.1826,5.0608,4.9441,4.6414,4.2745,4.2004,4.017,0.0,0.0,3.6538,3.5984,3.6541,3.5475,3.3573,3.1374,2.9436,2.791,2.7788,2.7791,2.8291,3.0233,3.1709,3.3404,3.6152,3.6747,3.7262,3.9195,4.0873,4.2111,4.2596,4.3975,4.5098,4.5092,4.5499,4.5614,4.5054,4.4551,4.417,4.3948,4.3521,4.3589,4.4485,4.3876,4.3606,4.4062,4.3792,4.3758,4.4079,4.4096,4.4248,4.457,4.4587,4.479,4.5229,4.479,4.4807,4.5229,4.5166,4.5545,4.6413,4.6801,4.747,4.8306,4.8306,4.8031,4.759,4.726,4.6636,4.5865,4.5535,4.5186,4.4837,4.4378,4.3901,4.3552,0.0,0.0,0.0,0.0,0.0,0.0,0.0,0.0,0.0,0.0,0.0,0.0,0.0,0.0,0.0,0.0,0.0,0.0,0.0,3.0729,3.3934,3.8152,3.8385,3.902,4.0367,4.1055,4.1788,4.2626,4.3105,4.3329,4.3344,4.4003,4.478,4.5709,4.7731,4.9402,5.0756,5.2101,5.2841,5.3179,5.3179,5.2012,5.0101,4.8068,4.4226,3.9813,3.9293,3.7251,0.0,0.0,3.305,3.309,3.3844,3.3549,3.2486,3.0185,2.9,2.8518,2.8908,2.9358,3.0302,3.27,3.495,3.6825,3.7945,3.8751,3.9683,4.1225,4.2465,4.3324,4.3526,4.4522,4.5116,4.4448,4.4836,4.5079,4.4648,4.391,4.342,4.342,4.2574,4.2506,4.3826,4.3436,4.3521,4.4502,4.4384,4.435,4.457,4.4587,4.4587,4.4587,4.4587,4.4942,4.5703,4.4959,4.4959,4.5703,4.5412,4.5648,4.643,4.7281,4.7897,4.8306,4.8306,4.7976,4.7443,4.7443,4.6966,4.6232,4.6232,4.6104,4.5865,4.5498,4.4709,4.3883,0.0,0.0,0.0,0.0,0.0,0.0,0.0,0.0,0.0,0.0,0.0,0.0,0.0,0.0,0.0,0.0,0.0,0.0,0.0,2.8904,3.2133,3.4568,3.7083,3.902,4.0367,4.1055,4.2013,4.3299,4.3329,4.3329,4.3344,4.4003,4.4646,4.544,4.8136,4.9769,5.0534,5.2611,5.3027,5.2334,5.2334,5.0591,4.7622,4.4289,4.0729,3.7584,3.7567,0.0,0.0,0.0,2.9161,2.7828,3.0724,3.086,2.9793,2.9049,2.6955,2.5408,2.7866,2.944,3.1261,3.4945,3.7266,3.9025,4.0602,4.1592,4.226,4.2591,4.2675,4.2811,4.2992,4.3066,4.3376,4.4257,4.4435,4.4475,4.4563,4.391,4.342,4.342,4.2134,4.1525,4.2286,4.2337,4.2946,4.4468,4.3876,4.3792,4.4536,4.4587,4.4587,4.4587,4.4587,4.4942,4.5703,4.4959,4.4959,4.5703,4.4998,4.5232,4.643,4.7697,4.8267,4.8306,4.8306,4.8306,4.8269,4.8269,4.781,4.7076,4.7076,4.6599,4.5993,4.6764,4.603,4.4562,0.0,0.0,0.0,0.0,0.0,0.0,0.0,0.0,0.0,0.0,0.0,0.0,0.0,0.0,0.0,0.0,0.0,0.0,0.0,2.6703,2.9659,3.313,3.5344,3.709,3.8392,3.9514,4.0502,4.1384,4.1818,4.2267,4.2701,4.3359,4.4018,4.4758,4.6842,4.8177,4.908,5.0488,5.0677,5.0118,5.0118,4.776,4.4089,4.1648,3.7186,3.2092,0.0,0.0,0.0,0.0,0.0,2.6276,2.7215,2.7607,2.7437,2.6163,2.6619,2.7776,2.9092,3.2424,3.6182,3.8752,4.106,4.2844,4.3541,4.3502,4.326,4.2917,4.1932,4.1007,4.0617,4.0978,4.1484,4.1903,4.2923,4.3929,4.4524,4.391,4.3234,4.2726,4.1796,4.1305,4.1542,4.1576,4.2185,4.369,4.3572,4.3758,4.4536,4.4587,4.4587,4.4587,4.4587,4.5179,4.6413,4.5196,4.5196,4.6413,4.5597,4.5648,4.643,4.7324,4.7937,4.8306,4.8306,4.8306,4.8306,4.8306,4.8141,4.7921,4.7921,4.7737,4.7462,4.7205,4.6783,4.6195,0.0,0.0,0.0,0.0,0.0,0.0,0.0,0.0,0.0,0.0,0.0,0.0,0.0,0.0,0.0,0.0,0.0,1.9182,0.0,0.0,2.6148,2.93,3.1155,3.2734,3.3888,3.4984,3.6096,3.7223,3.8255,3.9101,3.9771,4.1219,4.2162,4.2596,4.4573,4.5775,4.6389,4.6779,4.6355,4.5363,4.4873,4.2211,3.8414,3.6125,3.2285,0.0,0.0,0.0,0.0,0.0,0.0,2.3915,2.4152,2.4714,2.5362,2.577,2.7196,2.9265,3.2121,3.5596,3.8994,4.1486,4.3299,4.4397,4.4271,4.3888,4.3203,4.2018,4.0429,3.9042,3.8482,3.8291,3.854,3.953,4.0676,4.1982,4.3538,4.2878,4.2443,4.2978,4.1953,4.1409,4.1886,4.1494,4.1813,4.3301,4.342,4.3758,4.4536,4.4587,4.4587,4.4587,4.4587,4.5162,4.6397,4.5466,4.5466,4.638,4.578,4.5681,4.6112,4.7017,4.7614,4.7977,4.821,4.8306,4.8306,4.8306,4.8306,4.8306,4.8306,4.8306,4.8251,4.7737,4.7535,4.7352,0.0,0.0,0.0,0.0,0.0,0.0,0.0,0.0,0.0,0.0,0.0,0.0,0.0,0.0,0.0,0.0,0.0,0.0,0.0,0.0,0.0,2.3301,2.5124,2.6564,2.7559,2.8272,2.9537,3.1322,3.3,3.4085,3.4728,3.757,3.8975,3.9065,4.1284,4.2319,4.2365,4.1722,4.0347,3.855,3.715,3.451,3.116,2.834,0.0,0.0,0.0,0.0,0.0,2.0794,2.089,2.1128,2.197,2.2699,2.4047,2.789,2.8854,3.0118,3.6635,3.8735,3.9896,4.3268,4.4163,4.3986,4.3156,4.2909,4.2264,4.0145,3.8239,3.6857,3.653,3.516,3.4856,3.7337,3.7973,3.9123,4.1948,4.1204,4.1325,4.4007,4.2586,4.1852,4.3141,4.2125,4.195,4.3318,4.3386,4.3724,4.4536,4.4587,4.4587,4.4587,4.4587,4.4942,4.5703,4.5737,4.572,4.5635,4.5574,4.5494,4.5545,4.6774,4.7385,4.7428,4.8035,4.8306,4.8306,4.8306,4.8306,4.8306,4.8306,4.8306,4.8306,4.8251,4.8251,4.7902,0.0,0.0,0.0,0.0,0.0,0.0,0.0,0.0,0.0,0.0,0.0,0.0,0.0,0.0,0.0,0.0,0.0,0.0,0.0,0.0,0.0,0.0,0.0,0.0,0.0,0.0,0.0,0.0,3.0122,3.1021,3.1662,3.2408,3.3051,3.3559,3.4166,3.4802,3.543,3.5426,3.4782,3.386,0.0,3.1304,2.7961,0.0,0.0,0.0,0.0,0.0,2.0794,2.0794,2.2027,2.3926,2.5961,2.748,2.8936,3.1229,3.3715,3.6266,3.8732,4.1841,4.4659,4.5547,4.623,4.6187,4.4401,4.3184,4.1539,3.8608,3.5719,3.3311,3.2083,3.2883,3.42,3.5596,3.884,4.1627,4.2946,4.3301,4.3474,4.3656,4.3597,4.3305,4.2619,4.3186,4.3511,4.3386,4.2895,4.3166,4.4502,4.4587,4.4587,4.4587,4.4587,4.4942,4.5703,4.6244,4.5957,4.4874,4.5382,4.56,4.5511,4.6288,4.691,4.7428,4.8035,4.8306,4.8306,4.8306,4.8306,4.8306,4.8306,4.8306,4.8233,4.7645,4.7425,4.7168,0.0,0.0,0.0,0.0,0.0,0.0,0.0,0.0,0.0,0.0,0.0,0.0,0.0,0.0,0.0,0.0,0.0,0.0,0.0,0.0,0.0,0.0,0.0,0.0,0.0,0.0,0.0,0.0,0.0,0.0,2.7282,2.833,2.8996,2.937,2.9491,2.9961,3.0505,2.9735,0.0,0.0,0.0,0.0,0.0,0.0,0.0,0.0,0.0,2.1639,2.2111,2.3197,2.4489,2.6106,2.8787,3.0261,3.1586,3.4964,3.7104,3.901,4.1646,4.4216,4.617,4.6499,4.6448,4.558,4.2929,4.1167,3.9126,3.5685,3.289,3.0879,3.0277,3.1347,3.2768,3.4147,3.7711,4.0849,4.2252,4.2811,4.3512,4.467,4.459,4.454,4.4656,4.4574,4.4448,4.4401,4.3724,4.3673,4.4536,4.4587,4.4587,4.4587,4.4587,4.4942,4.5703,4.6109,4.5889,4.5077,4.5162,4.5184,4.5125,4.6014,4.6618,4.6999,4.7937,4.8306,4.8306,4.8306,4.8306,4.8306,4.8306,4.8306,4.8214,4.7407,4.7113,4.6893,0.0,0.0,0.0,0.0,0.0,0.0,0.0,0.0,0.0,0.0,0.0,0.0,0.0,0.0,0.0,0.0,0.0,0.0,0.0,0.0,0.0,0.0,0.0,0.0,0.0,0.0,0.0,0.0,0.0,0.0,0.0,0.0,0.0,0.0,0.0,0.0,0.0,0.0,0.0,0.0,0.0,0.0,0.0,0.0,0.0,0.0,0.0,2.1741,2.3416,2.6381,2.7635,2.8417,3.1404,3.2641,3.3977,3.8891,3.9982,4.0522,4.4936,4.6075,4.616,4.6786,4.5821,4.3821,4.0352,3.8355,3.6164,3.2343,3.0228,2.9178,2.9555,3.0146,3.1189,3.3152,3.5943,3.8717,4.1018,4.1441,4.2668,4.5958,4.5477,4.5521,4.7148,4.5908,4.5205,4.5654,4.5094,4.4665,4.457,4.4587,4.4587,4.4587,4.4587,4.4942,4.5703,4.5703,4.5703,4.5703,4.5043,4.4671,4.4626,4.5865,4.6383,4.6478,4.7738,4.8306,4.8306,4.8306,4.8306,4.8306,4.8306,4.8306,4.8214,4.7407,4.704,4.6746,0.0,0.0,0.0,0.0,0.0,0.0,0.0,0.0,0.0,0.0,1.8566,1.9072,0.0,0.0,0.0,0.0,0.0,0.0,0.0,0.0,0.0,0.0,0.0,0.0,0.0,1.787,1.8477,1.9307,1.9738,0.0,0.0,0.0,0.0,0.0,0.0,0.0,0.0,0.0,0.0,0.0,0.0,0.0,0.0,0.0,0.0,0.0,2.0662,2.0799,2.16,2.7059,3.0269,3.2553,3.5778,3.8452,4.088,4.3111,4.4091,4.5054,4.7733,4.7986,4.7564,4.7699,4.6599,4.4328,3.9746,3.7535,3.5215,3.0617,2.8918,2.8064,2.7259,2.8598,3.0627,3.3233,3.6034,3.8886,4.1711,4.2642,4.3508,4.4771,4.5706,4.5952,4.5239,4.6309,4.6652,4.5597,4.5389,4.5142,4.4626,4.4587,4.4587,4.4587,4.4587,4.4942,4.5703,4.5703,4.5703,4.5703,4.5568,4.5179,4.4626,4.5865,4.6383,4.6478,4.7738,4.8306,4.8306,4.8306,4.8306,4.8306,4.8306,4.8306,4.8214,4.7407,4.6691,4.5975,0.0,0.0,0.0,0.0,0.0,0.0,0.0,1.7666,1.7732,1.8187,1.8503,1.8708,1.8724,1.8408,1.7918,0.0,0.0,0.0,0.0,0.0,0.0,0.0,0.0,0.0,0.0,1.7863,1.814,1.8401,0.0,1.8837,1.9166,1.9166,1.9203,1.9207,1.9058,1.8921,0.0,0.0,0.0,0.0,0.0,0.0,0.0,0.0,0.0,0.0,0.0,2.0975,2.2394,2.5746,2.9599,3.3684,3.779,4.0527,4.2675,4.4604,4.5974,4.7259,4.9069,4.9306,4.8951,4.8578,4.6481,4.3225,3.827,3.5518,3.2784,2.8399,2.7295,2.7092,2.6826,2.8518,3.0552,3.2359,3.5019,3.7895,4.0883,4.1848,4.3124,4.5394,4.6562,4.7244,4.7349,4.7854,4.7929,4.7259,4.642,4.5681,4.5089,4.4759,4.4587,4.4587,4.4959,4.5162,4.5128,4.5517,4.5517,4.5128,4.5128,4.5116,4.5089,4.6014,4.6571,4.6955,4.7897,4.8306,4.8306,4.8306,4.8306,4.8306,4.8306,4.8306,4.8214,4.7407,4.6874,4.6361,0.0,0.0,0.0,0.0,0.0,0.0,0.0,1.7448,1.7622,1.8582,1.8851,1.8629,1.778,1.7811,1.7543,0.0,0.0,0.0,0.0,0.0,0.0,0.0,0.0,0.0,0.0,0.0,0.0,1.7697,1.7697,0.0,0.0,0.0,0.0,0.0,1.8587,1.8546,1.856,1.8366,0.0,0.0,0.0,1.9818,0.0,0.0,0.0,0.0,0.0,2.0958,2.2441,2.4032,2.7438,3.175,3.6367,3.9615,4.2061,4.3905,4.5773,4.7713,4.961,5.0084,4.9915,4.9187,4.6194,4.2041,3.6821,3.3566,3.0542,2.6677,2.6002,2.6302,2.694,2.8459,3.0086,3.1522,3.3545,3.6144,3.9671,4.0646,4.2244,4.5754,4.7105,4.8242,4.9303,4.9341,4.9137,4.8799,4.7417,4.6336,4.5732,4.5142,4.4814,4.4814,4.5258,4.5263,4.4823,4.5246,4.5246,4.4823,4.4654,4.4906,4.5494,4.6094,4.6756,4.7428,4.8035,4.8306,4.8306,4.8306,4.8214,4.8049,4.8049,4.8049,4.7976,4.7352,4.7003,4.6673,0.0,0.0,0.0,0.0,0.0,0.0,0.0,1.874,1.9325,1.8772,1.9293,1.9198,1.7843,1.825,1.8076,0.0,0.0,0.0,0.0,0.0,0.0,0.0,0.0,0.0,0.0,0.0,0.0,1.7697,1.7697,0.0,0.0,0.0,0.0,0.0,0.0,1.7669,1.7896,1.8184,0.0,0.0,0.0,0.0,0.0,0.0,0.0,0.0,0.0,1.9656,1.8861,2.3153,2.4495,2.5059,2.9135,3.4735,3.9895,4.0201,4.2713,4.6143,4.926,5.0084,4.9915,4.9187,4.6194,4.1907,3.6223,3.2785,2.9869,2.6562,2.5677,2.583,2.6948,2.7353,2.8454,3.1461,3.1878,3.3612,3.8683,3.9849,4.1291,4.4231,4.6499,4.7841,4.7917,4.9614,5.0127,4.8704,4.7785,4.6999,4.6336,4.5732,4.5407,4.5407,4.492,4.4976,4.5602,4.4993,4.4993,4.5602,4.4908,4.4906,4.5494,4.6094,4.6756,4.7428,4.8035,4.8306,4.8306,4.8306,4.7884,4.7223,4.7223,4.7223,4.7223,4.715,4.6654,4.5993,0.0,0.0,0.0,0.0,0.0,0.0,1.7474,1.7666,1.7919,1.8345,1.8313,1.8047,1.7574,1.7906,1.7781,1.6869,0.0,0.0,0.0,0.0,0.0,0.0,0.0,0.0,0.0,0.0,1.7043,1.6861,1.7121,0.0,0.0,0.0,0.0,0.0,0.0,1.7427,1.7599,1.7987,0.0,0.0,0.0,0.0,0.0,0.0,0.0,0.0,0.0,0.0,1.9719,2.0719,2.2423,2.4032,2.3738,2.7098,3.2128,3.6967,4.0702,4.4078,4.7791,4.9424,4.9813,4.8646,4.4857,4.029,3.6033,3.1884,2.8333,2.6062,2.5564,2.5756,2.6532,2.6964,2.7829,2.9789,3.0283,3.18,3.5742,3.7732,4.0023,4.3402,4.6471,4.8626,4.9466,5.0762,5.0891,4.9305,4.8849,4.8348,4.7572,4.6571,4.5883,4.5494,4.5284,4.528,4.5589,4.4912,4.4722,4.5026,4.4722,4.4906,4.5494,4.6094,4.6756,4.7428,4.8035,4.8031,4.759,4.759,4.7113,4.6379,4.6379,4.6379,4.6379,4.6379,4.6177,4.5828,0.0,0.0,0.0,0.0,0.0,1.6806,1.7474,1.7305,1.7361,1.8176,1.7897,1.7599,1.7441,1.7547,1.7454,1.7025,1.7117,0.0,0.0,0.0,0.0,0.0,0.0,0.0,0.0,0.0,1.6809,1.6367,1.6642,1.6682,0.0,0.0,1.6467,1.6619,0.0,0.0,0.0,0.0,0.0,0.0,0.0,0.0,0.0,0.0,0.0,0.0,0.0,0.0,0.0,0.0,0.0,2.2913,2.0607,2.1937,2.5663,3.2608,3.7152,4.0766,4.5007,4.7436,4.8545,4.753,4.3318,3.8601,3.5291,3.1059,2.7332,2.5682,2.539,2.5658,2.6407,2.6831,2.743,2.8706,2.9193,3.042,3.3234,3.5409,3.7924,4.1167,4.4306,4.7048,4.9065,5.0707,5.1169,5.0031,4.9682,4.9072,4.8072,4.7367,4.6664,4.6063,4.5699,4.5511,4.5511,4.5089,4.4776,4.4587,4.4759,4.5178,4.5783,4.643,4.7044,4.7715,4.8132,4.7847,4.7094,4.737,4.6709,4.5571,4.581,4.5755,4.5553,4.5553,4.5553,4.5461,0.0,0.0,0.0,0.0,0.0,0.0,1.7574,1.8237,1.8633,1.8514,1.8619,1.8381,1.759,1.7326,1.7191,1.7191,1.7191,0.0,0.0,0.0,0.0,0.0,0.0,0.0,0.0,0.0,1.6633,1.6501,1.6289,1.621,1.621,1.5797,1.5754,1.6029,0.0,0.0,0.0,0.0,0.0,0.0,0.0,0.0,0.0,0.0,0.0,0.0,0.0,0.0,0.0,0.0,0.0,0.0,0.0,2.0635,2.2117,2.6584,3.1227,3.5909,4.0662,4.3788,4.5737,4.5737,4.1796,3.705,3.3768,3.032,2.7297,2.5563,2.5096,2.5454,2.6937,2.6869,2.7122,2.8649,2.8722,2.9412,3.1706,3.3183,3.4805,3.6914,3.9252,4.1979,4.5324,4.8794,5.082,5.0802,5.005,4.897,4.7482,4.7977,4.7977,4.7385,4.6161,4.5511,4.5511,4.5494,4.5178,4.4626,4.5232,4.5833,4.6413,4.7088,4.7715,4.8306,4.8306,4.7847,4.7186,4.7976,4.6893,4.48,4.559,4.5406,4.4727,4.4727,4.4727,4.4727,0.0,0.0,0.0,0.0,0.0,0.0,0.0,1.6318,1.6733,1.7511,1.7262,1.7117,1.7395,1.7205,1.7093,1.7191,1.7455,0.0,0.0,0.0,0.0,0.0,0.0,0.0,0.0,0.0,1.685,1.6825,1.649,1.6234,1.6067,1.594,1.5754,1.561,1.5758,1.6067,0.0,0.0,0.0,0.0,0.0,0.0,1.8054,0.0,0.0,0.0,0.0,0.0,0.0,0.0,0.0,0.0,0.0,0.0,0.0,2.3389,2.7005,3.0767,3.3997,3.6697,3.8605,3.8605,3.5537,3.2283,3.1257,2.8176,2.5285,2.4424,2.4987,2.5687,2.5912,2.6632,2.7407,2.797,2.8513,2.9257,3.0534,3.4164,3.7577,3.991,4.4545,4.8425,5.0588,5.1293,5.1389,5.0839,5.0563,4.9713,4.8108,4.7797,4.7614,4.7385,4.7017,4.6524,4.5989,4.5494,4.5207,4.503,4.4651,4.4841,4.5599,4.5681,4.5861,4.6081,4.6486,4.6214,4.5498,4.5736,4.5076,4.3901,4.4158,4.4085,4.3883,4.3883,4.3883,4.3883,0.0,0.0,0.0,0.0,0.0,0.0,0.0,1.5299,1.5733,1.6428,1.6491,1.6647,1.7086,1.7175,1.7224,1.7313,1.7612,0.0,0.0,0.0,0.0,0.0,0.0,0.0,1.7811,1.7272,1.7002,1.6993,1.6849,1.6509,1.6011,1.627,1.6082,1.5551,1.5741,1.5965,0.0,0.0,0.0,0.0,0.0,0.0,1.7559,0.0,0.0,0.0,0.0,0.0,0.0,0.0,0.0,0.0,0.0,0.0,0.0,0.0,2.3554,2.6159,2.9201,3.165,3.3379,3.3664,3.128,2.8822,2.8878,2.6721,2.4526,2.3915,2.4603,2.5322,2.5409,2.6107,2.6889,2.7409,2.8123,2.913,3.0632,3.4189,3.7875,4.1197,4.5875,4.9472,5.1083,5.144,5.1334,5.0839,5.0508,4.9756,4.8379,4.7937,4.7611,4.728,4.7096,4.6717,4.6188,4.5487,4.5,4.4756,4.4476,4.4644,4.5134,4.5278,4.5337,4.5376,4.5718,4.5443,0.0,4.5039,4.4507,4.3516,4.3828,4.3754,4.3497,4.3497,4.3563,4.3693,0.0,0.0,0.0,0.0,0.0,0.0,0.0,1.5122,1.5524,1.5509,1.6323,1.6876,1.6747,1.7183,1.7486,1.7486,0.0,0.0,0.0,0.0,0.0,0.0,0.0,0.0,1.7811,1.7408,1.7142,1.6993,1.729,1.6957,1.6087,1.6757,1.6668,1.5858,1.5858,1.5915,0.0,0.0,0.0,0.0,0.0,0.0,0.0,0.0,0.0,0.0,0.0,0.0,0.0,0.0,0.0,0.0,0.0,0.0,0.0,0.0,0.0,0.0,0.0,2.8169,2.9719,3.0408,2.8484,2.6453,2.6667,2.576,0.0,2.394,2.4112,2.4601,2.5306,2.549,2.5897,2.709,2.779,2.9101,3.1708,3.3839,3.6793,4.1342,4.4249,4.6424,4.7809,4.9618,5.071,5.071,5.0013,4.9205,4.8361,4.8251,4.7884,4.7094,4.6426,4.6091,4.6091,4.5351,4.4665,4.4068,4.4612,4.4935,4.4989,4.5496,4.5736,4.5736,4.5736,4.5314,4.4672,4.5424,4.4837,4.3571,4.4358,4.4175,4.3548,4.3582,4.3791,4.4028,0.0,0.0,0.0,0.0,0.0,0.0,0.0,0.0,0.0,0.0,1.6738,1.6952,1.7052,1.732,1.7486,0.0,0.0,0.0,0.0,0.0,0.0,0.0,0.0,0.0,1.7811,1.7408,1.7142,1.6993,1.7416,1.7335,1.6788,1.7548,1.741,1.6488,1.6488,1.6454,0.0,0.0,0.0,0.0,0.0,0.0,0.0,0.0,0.0,0.0,1.8297,1.9104,0.0,0.0,0.0,0.0,0.0,0.0,0.0,0.0,2.0994,0.0,2.124,0.0,2.4115,2.4761,2.4269,2.3807,0.0,2.4445,2.4174,2.3601,2.4495,2.5476,2.5797,2.6351,2.7056,2.7975,2.8757,3.0104,3.2583,3.8153,4.2723,4.4638,4.711,4.8302,4.7423,4.8854,4.9866,4.9866,4.9701,4.9205,4.8361,4.7737,4.7315,4.7131,4.5754,4.5059,4.5059,4.4858,4.4692,4.4543,4.4054,4.4163,4.4748,4.4288,4.4048,4.4048,4.4048,4.3956,4.3791,4.3975,4.3828,4.3532,4.3994,4.4048,4.3912,4.4223,4.4392,4.4474,0.0,0.0,0.0,0.0,0.0,0.0,0.0,0.0,0.0,0.0,0.0,1.7224,1.7337,1.7526,0.0,0.0,0.0,0.0,0.0,0.0,0.0,0.0,0.0,1.7811,1.7811,1.7502,1.7388,1.7504,1.7864,1.7849,1.7455,1.7804,1.7513,1.6697,1.6548,1.6473,0.0,0.0,0.0,0.0,1.7726,0.0,0.0,0.0,0.0,0.0,1.8215,1.8957,0.0,2.0244,2.0622,2.1177,0.0,0.0,0.0,0.0,2.1066,0.0,2.0263,2.0761,2.155,2.1935,2.2237,2.2635,2.3463,2.3788,2.3851,2.3567,2.4226,2.5031,2.5502,2.6459,2.7504,2.8517,3.0214,3.227,3.483,3.8652,4.2205,4.5039,4.6526,4.7737,4.871,4.9279,4.9426,4.9022,4.9003,4.8471,4.726,4.715,4.6783,4.603,4.5168,4.4709,4.4709,4.4342,4.4158,4.414,4.3699,4.3718,4.414,4.3848,4.3726,4.3758,4.3931,4.4004,4.4004,4.4004,4.4004,4.4004,4.4223,4.428,4.429,4.4527,4.4701,4.4825,0.0,0.0,0.0,0.0,0.0,0.0,0.0,0.0,0.0,0.0,0.0,0.0,0.0,0.0,0.0,0.0,0.0,0.0,0.0,0.0,0.0,0.0,1.7833,1.7811,1.7811,1.7572,1.7609,1.7925,1.8313,1.8331,1.8003,1.8037,1.7625,1.6893,1.6418,1.6316,0.0,0.0,1.7313,1.7526,1.7726,0.0,0.0,0.0,0.0,0.0,0.0,0.0,0.0,2.0199,2.0457,2.0718,2.1137,0.0,0.0,0.0,0.0,0.0,2.0689,2.0795,2.1035,2.1065,2.1693,2.2522,2.3271,2.3588,2.3714,2.3692,2.3816,2.4265,2.5321,2.6385,2.7568,2.8947,3.1835,3.4965,3.7991,3.8615,4.0249,4.4232,4.5039,4.6471,4.9572,4.9462,4.8912,4.8177,4.8012,4.7352,4.5975,4.6434,4.6122,4.4745,4.458,4.4542,4.4593,4.3862,4.3497,4.3497,4.3529,4.3563,4.3597,4.3924,4.4087,4.4117,4.4447,4.458,4.458,4.458,4.458,4.4624,4.4676,4.4676,4.4682,4.4732,4.4943,4.518,0.0,0.0,0.0,0.0,0.0,0.0,0.0,0.0,0.0,0.0,0.0,0.0,0.0,0.0,0.0,0.0,0.0,0.0,0.0,0.0,0.0,1.7961,1.7961,1.7917,1.7811,1.7432,1.7216,1.7154,1.8064,1.8331,1.8032,1.9137,1.9,1.7773,1.6676,1.6355,1.6696,1.7052,1.7313,1.7526,1.7726,0.0,0.0,0.0,0.0,0.0,0.0,0.0,0.0,2.091,2.1155,2.1674,2.1203,0.0,0.0,0.0,0.0,0.0,1.9361,2.0879,2.2375,2.1923,2.2598,2.3422,2.3613,2.3774,2.3917,2.4074,2.4113,2.4811,2.6973,2.7006,2.7427,2.9635,3.3303,3.7448,4.1937,4.3736,4.4635,4.469,4.6507,4.7205,4.5773,4.6764,4.7443,4.7297,4.6654,4.6159,4.5902,4.5369,4.4966,4.4727,4.403,4.3796,4.4079,4.3701,4.3497,4.3479,4.3772,4.3924,4.3943,4.4337,4.4501,4.4501,4.458,4.458,4.458,4.458,4.458,4.4631,4.4919,4.5011,4.5052,4.5342,4.5495,4.5513,0.0,0.0,0.0,0.0,0.0,0.0,0.0,0.0,0.0,0.0,0.0,0.0,0.0,0.0,0.0,0.0,0.0,0.0,0.0,0.0,1.8138,1.8108,1.8108,1.8005,1.7811,1.8021,1.8268,1.8623,1.9169,1.9484,1.9611,1.9038,1.8102,1.6908,1.6524,1.6554,1.6876,1.7224,1.7479,1.7681,0.0,0.0,0.0,0.0,0.0,0.0,0.0,0.0,0.0,0.0,2.0837,2.0813,2.0486,0.0,0.0,0.0,0.0,0.0,1.9289,2.0363,2.1717,2.2381,2.3889,2.512,2.4704,2.533,2.5795,2.5016,2.5529,2.6612,2.8172,2.9219,3.1219,3.5422,3.656,3.8175,4.1717,4.1717,4.1864,4.324,4.4378,4.5131,4.5333,4.603,4.6287,4.5847,4.5865,4.5516,4.4635,4.4672,4.4575,4.4332,4.3976,4.3943,4.4318,4.3687,4.3618,4.4095,4.3755,4.3858,4.4318,4.4209,4.4166,4.4189,4.4347,4.4204,4.3783,4.3783,4.3783,4.3804,4.3963,4.4327,4.4863,4.5512,4.5757,4.5757,0.0,0.0,0.0,0.0,0.0,0.0,0.0,0.0,0.0,0.0,0.0,0.0,0.0,0.0,0.0,0.0,0.0,0.0,0.0,1.8225,1.8266,1.8211,1.8211,1.8173,1.811,1.8535,1.9088,1.9785,1.9947,2.0192,2.0491,1.8658,1.7226,1.6281,1.6472,1.6722,1.7068,1.7368,1.7618,1.7811,0.0,0.0,0.0,0.0,0.0,0.0,0.0,0.0,0.0,0.0,0.0,0.0,0.0,0.0,0.0,1.9297,1.9568,1.9949,1.9442,2.0042,2.107,2.2135,2.3969,2.5603,2.6117,2.6888,2.7438,2.7145,2.7915,2.8833,2.9457,3.1237,3.4229,3.9184,3.8891,3.8964,4.1589,4.0359,4.0157,4.2837,4.313,4.3864,4.5718,4.5736,4.5369,4.4764,4.5094,4.4744,4.3395,4.391,4.4036,4.3546,4.3538,4.3736,4.4121,4.3453,4.3498,4.4278,4.3479,4.3453,4.4102,4.3776,4.3634,4.3655,4.3902,4.3662,4.3104,4.3104,4.3104,4.3124,4.3124,4.3574,4.4341,4.504,4.5426,4.5596,0.0,0.0,0.0,0.0,0.0,0.0,0.0,0.0,0.0,0.0,0.0,0.0,0.0,0.0,0.0,0.0,0.0,0.0,0.0,1.829,1.8266,1.8211,1.8211,1.8456,1.899,1.8585,1.8604,1.9159,1.9404,1.9398,1.914,1.8334,1.7684,1.7101,1.6811,1.6876,1.7191,1.7415,1.7618,1.7811,1.7939,0.0,0.0,0.0,0.0,0.0,0.0,0.0,0.0,0.0,0.0,0.0,0.0,0.0,1.9188,0.0,1.9344,1.9363,1.9308,2.048,2.1528,2.0851,2.1418,2.329,2.7732,2.7695,2.7714,3.1347,3.1586,3.1146,3.1219,3.199,3.3495,3.6193,3.8377,4.0818,4.4011,4.4305,4.4544,4.5516,4.5645,4.57,4.5883,4.5223,4.4764,4.4709,4.4066,4.3428,4.2872,4.2921,4.2677,4.2159,4.214,4.2313,4.2652,4.2595,4.2841,4.3384,4.2845,4.2595,4.2652,4.3004,4.3148,4.3165,4.3181,4.3143,4.3104,4.3104,4.3143,4.3184,4.3184,4.3316,4.3481,4.3559,4.4093,4.4676,0.0,0.0,0.0,0.0,0.0,0.0,0.0,0.0,0.0,0.0,0.0,0.0,0.0,0.0,0.0,0.0,0.0,0.0,0.0,1.829,1.8287,1.8263,1.8134,1.8341,1.8894,1.8974,1.9119,1.9355,1.9962,1.9699,1.8686,1.8219,1.7593,1.6878,1.6875,1.7076,1.7408,1.7704,1.7856,1.7939,1.8065,1.8108,0.0,0.0,0.0,0.0,0.0,0.0,0.0,0.0,1.9568,0.0,0.0,0.0,0.0,0.0,1.9305,1.9305,1.9305,2.0535,2.1729,2.1382,2.1547,2.2923,2.7273,2.8943,2.9732,3.0241,3.254,3.4284,3.3752,3.5973,3.8046,3.8469,4.0561,4.2727,4.447,4.4709,4.4819,4.5131,4.5149,4.5035,4.4735,4.3976,4.359,4.3807,4.3042,4.2483,4.2321,4.2302,4.229,4.2329,4.231,4.25,4.2869,4.2409,4.2029,4.1685,4.1952,4.2352,4.285,4.2458,4.2297,4.2297,4.2374,4.2104,4.162,4.1659,4.1681,4.1758,4.2406,4.2671,4.2788,4.3382,4.3801,4.4114,0.0,0.0,0.0,0.0,0.0,0.0,0.0,0.0,0.0,0.0,0.0,0.0,0.0,0.0,0.0,0.0,0.0,0.0,1.829,1.829,1.827,1.8205,1.8074,1.8093,1.83,1.8736,1.9154,1.953,1.9934,1.9429,1.8081,1.7884,1.7387,1.6633,1.6942,1.7175,1.7415,1.7789,1.7961,1.8005,1.8147,1.8215,0.0,0.0,0.0,0.0,0.0,0.0,0.0,0.0,1.9235,0.0,0.0,0.0,0.0,0.0,0.0,1.9675,1.9675,2.0519,2.151,2.2042,2.2171,2.3364,2.7897,3.0008,3.1366,3.2577,3.4688,3.6193,3.5862,3.7881,3.957,3.9533,4.1754,4.3681,4.425,4.4323,4.434,4.446,4.4273,4.4031,4.3781,4.2791,4.2267,4.2485,4.1695,4.1141,4.0972,4.0953,4.0997,4.1093,4.1093,4.1243,4.1527,4.105,4.0519,3.9946,4.0442,4.1003,4.1569,4.1242,4.1107,4.1107,4.12,4.1046,4.0713,4.052,4.0433,4.0539,4.1555,4.1944,4.2024,4.2678,4.3066,4.334,0.0,0.0,0.0,0.0,0.0,0.0,0.0,0.0,0.0,0.0,0.0,0.0,0.0,0.0,0.0,0.0,0.0,0.0,1.829,1.829,1.8205,1.8005,1.8005,1.7743,1.7216,1.7724,1.8515,1.9594,1.9127,1.8324,1.7205,1.7353,1.7052,1.6425,1.6968,1.7191,1.724,1.7635,1.7878,1.8005,1.8147,1.8239,1.831,0.0,0.0,0.0,0.0,0.0,0.0,0.0,0.0,0.0,0.0,0.0,0.0,0.0,1.9858,2.0484,2.0484,2.0503,2.0906,2.2575,2.2997,2.4502,3.0118,3.0779,3.2284,3.9588,3.8542,3.6541,3.7331,3.6853,3.6853,3.8432,4.1387,4.3479,4.3461,4.3461,4.3594,4.3937,4.3278,4.2922,4.3246,4.1776,4.0766,4.0766,3.9976,3.9248,3.8708,3.869,3.8476,3.8012,3.805,3.8089,3.807,3.8212,3.828,3.8288,3.8288,3.8296,3.8331,3.9189,3.9588,3.9588,3.9588,4.0031,4.0715,3.9918,3.9633,3.9793,4.0797,4.1172,4.1191,4.1191,4.1699,4.2285,0.0,0.0,0.0,0.0,0.0,0.0,0.0,0.0,0.0,0.0,0.0,0.0,0.0,0.0,0.0,0.0,0.0,0.0,1.829,1.8163,1.8053,1.8005,1.7917,1.7726,1.7415,1.7662,1.8064,1.8625,1.8484,1.8069,1.741,1.741,1.7176,1.6747,1.7068,1.7288,1.7439,1.7789,1.7961,1.8005,1.8147,1.8239,1.831,0.0,0.0,0.0,0.0,0.0,0.0,0.0,0.0,0.0,0.0,0.0,0.0,1.9305,1.9473,1.9656,1.9656,2.0941,2.2244,2.2171,2.3859,2.6557,3.0485,3.1219,3.2632,3.8267,3.7753,3.6541,3.7331,3.8689,3.9276,3.8046,4.0561,4.2533,4.2211,4.2149,4.2262,4.2573,4.1879,4.1519,4.1854,4.0336,3.9202,3.8857,3.8056,3.7555,3.7444,3.7482,3.744,3.7286,3.7324,3.7032,3.6416,3.712,3.7171,3.6633,3.789,3.8449,3.8316,3.8568,3.8685,3.8694,3.8733,3.8902,3.9097,3.8965,3.8918,3.8955,3.9254,3.9746,4.0293,4.0293,4.082,4.1601,0.0,0.0,0.0,0.0,0.0,0.0,0.0,0.0,0.0,0.0,1.7567,0.0,0.0,0.0,0.0,0.0,0.0,0.0,0.0,1.8113,1.7983,1.7917,1.7833,1.7704,1.7509,1.7516,1.7566,1.7726,1.7834,1.7742,1.7483,1.7512,1.7531,1.7604,1.7646,1.7691,1.7822,1.7884,1.7961,1.8005,1.8087,1.8222,1.8373,0.0,0.0,0.0,0.0,0.0,0.0,0.0,0.0,0.0,0.0,0.0,1.9344,1.9675,1.9785,1.9913,2.0592,2.167,2.2771,2.3529,2.5462,2.8028,3.117,3.3366,3.5697,3.8982,3.8377,3.7496,3.8303,3.9455,3.9944,3.8799,4.033,4.1619,4.1324,4.0996,4.0877,4.1184,4.0465,3.997,4.0024,3.8476,3.7209,3.6622,3.5825,3.538,3.5438,3.5477,3.5485,3.5485,3.5515,3.529,3.4749,3.533,3.54,3.4925,3.637,3.6986,3.6889,3.7596,3.7908,3.7922,3.8299,3.8277,3.8004,3.8419,3.8398,3.8125,3.8457,3.8926,3.9434,3.9766,4.0196,4.0721,0.0,0.0,0.0,0.0,0.0,0.0,0.0,0.0,0.0,0.0,1.7888,1.8005,0.0,0.0,0.0,0.0,0.0,0.0,0.0,1.8065,1.7939,1.7811,1.7811,1.7704,1.7509,1.7337,1.7167,1.7018,1.7239,1.7405,1.754,1.7657,1.8076,1.8677,1.841,1.8313,1.829,1.793,1.7856,1.7983,1.7983,1.8184,1.8492,1.8492,0.0,0.0,0.0,0.0,0.0,0.0,0.0,0.0,1.9227,1.9305,1.9436,2.0189,2.0446,2.0848,2.239,2.2467,2.2837,2.5796,2.7505,2.9182,3.2023,3.6168,3.9614,4.0396,3.9515,3.8817,3.9595,3.9322,3.9192,3.9788,4.0195,4.0408,4.0306,3.9585,3.9233,3.9546,3.8823,3.8154,3.7801,3.6325,3.5037,3.4241,3.35,3.3087,3.3087,3.3109,3.3102,3.3102,3.316,3.3166,3.3077,3.3228,3.3288,3.3297,3.4174,3.457,3.4648,3.6387,3.7148,3.7109,3.7891,3.7793,3.7129,3.8008,3.7891,3.7266,3.8047,3.8418,3.8594,3.9453,3.9747,3.9819,0.0,0.0,0.0,0.0,0.0,0.0,0.0,0.0,0.0,0.0,0.0,0.0,0.0,0.0,0.0,0.0,0.0,0.0,0.0,1.7917,1.7833,1.7811,1.7811,1.7704,1.7509,1.7462,1.7344,1.7167,1.7062,1.7247,1.7737,1.7713,1.8076,1.8677,1.841,1.8313,1.829,1.793,1.7811,1.7833,1.7833,1.8095,1.8408,1.8408,1.8604,0.0,0.0,0.0,0.0,0.0,0.0,0.0,1.9243,1.9305,1.9326,1.951,2.0126,2.0815,2.1187,2.221,2.3653,2.5643,2.8705,3.1579,3.2847,3.4454,3.5789,3.6223,3.7074,3.7879,3.8276,3.8255,3.7865,3.6925,3.737,3.7464,3.6387,3.6084,3.6119,3.6492,3.5776,3.522,3.5196,3.4309,3.335,3.2507,3.2336,3.225,3.2257,3.2367,3.2416,3.2416,3.2422,3.2101,3.1415,3.2107,3.2457,3.2466,3.3297,3.3672,3.373,3.5488,3.5918,3.5273,3.5469,3.543,3.5332,3.6191,3.6445,3.6309,3.6484,3.6973,3.7695,3.8555,3.9221,3.9819,0.0,0.0,0.0,0.0,0.0,0.0,0.0,0.0,0.0,0.0,0.0,0.0,0.0,0.0,0.0,0.0,0.0,0.0,0.0,0.0,1.7811,1.7811,1.7811,1.7766,1.7658,1.7641,1.7595,1.7496,1.7642,1.7945,1.8387,1.8693,1.9236,1.9858,1.9102,1.8848,1.8913,1.8128,1.7811,1.7811,1.7811,1.8078,1.8487,1.8487,1.8698,1.8999,1.8913,0.0,0.0,0.0,0.0,0.0,0.0,0.0,1.9378,1.9844,2.0078,2.0453,2.1699,2.2518,2.3708,2.6588,2.8822,3.0659,3.1863,3.2164,3.2195,3.2381,3.4358,3.6105,3.6235,3.64,3.6274,3.555,3.5552,3.5413,3.4722,3.4259,3.4078,3.4337,3.3947,3.3402,3.2699,3.2625,3.1945,3.0299,3.0576,3.0628,3.0208,3.0211,3.0428,3.0852,3.0448,3.0421,3.0801,3.0879,3.1133,3.1582,3.2422,3.3027,3.3437,3.4336,3.4512,3.4082,3.4082,3.4082,3.4101,3.457,3.4766,3.4805,3.5215,3.5664,3.6211,3.75,3.8161,3.8597,0.0,0.0,0.0,0.0,0.0,0.0,0.0,0.0,0.0,0.0,0.0,0.0,0.0,0.0,0.0,0.0,0.0,0.0,0.0,0.0,0.0,1.7811,1.7811,1.7811,1.7811,1.7811,1.7811,1.7811,1.8507,1.8854,1.8953,1.9777,2.0487,2.1036,2.0029,1.9602,1.9617,1.8478,1.7929,1.7811,1.7833,1.8142,1.8584,1.8604,1.8807,1.9099,1.9099,1.9031,1.8982,1.9082,0.0,0.0,0.0,0.0,1.9452,2.0209,2.01,2.0234,2.2412,2.2987,2.3843,2.7445,2.8324,2.8671,3.0069,2.9823,2.9315,2.9315,3.1619,3.3669,3.371,3.4055,3.4289,3.4018,3.3729,3.3449,3.3179,3.2506,3.209,3.2161,3.218,3.1674,3.0414,3.0926,3.0517,2.8433,2.8897,2.8965,2.8222,2.8131,2.8423,2.9143,2.8475,2.8792,3.0243,2.974,2.9881,3.0664,3.1543,3.2324,3.2969,3.2969,3.3047,3.3184,3.3184,3.3184,3.3203,3.334,3.3398,3.3476,3.4199,3.457,3.4883,3.6476,3.7039,3.7257,0.0,0.0,0.0,0.0,0.0,0.0,0.0,0.0,0.0,0.0,1.8388,1.8465,0.0,0.0,0.0,0.0,0.0,0.0,0.0,0.0,0.0,1.7811,1.7811,1.7811,1.7811,1.7811,1.7811,1.7811,1.9149,1.9429,1.8691,1.9876,2.0463,2.0515,2.0582,2.0262,1.9651,1.9016,1.8386,1.7811,1.7939,1.8176,1.8445,1.8625,1.886,1.9099,1.9099,1.9164,1.9227,1.9113,1.918,0.0,0.0,0.0,1.9292,1.9308,2.0026,2.0877,2.1229,2.3099,2.5241,2.6559,2.7432,2.8034,2.8245,2.8207,2.813,2.813,2.9251,3.032,3.056,3.1248,3.1378,3.01,3.0463,3.0417,2.9021,2.8733,2.8703,2.8821,2.884,2.8791,2.863,2.8738,2.8628,2.8241,2.8309,2.83,2.8116,2.8106,2.8144,2.827,2.8164,2.8203,2.844,2.9097,2.951,2.9707,3.0625,3.1133,3.123,3.123,3.1641,3.2363,3.2363,3.2363,3.2402,3.3105,3.3398,3.3418,3.3535,3.4043,3.4802,3.5745,3.6464,3.7226,0.0,0.0,0.0,0.0,0.0,0.0,0.0,0.0,0.0,0.0,0.0,1.8485,0.0,0.0,0.0,0.0,0.0,0.0,0.0,0.0,0.0,1.7917,1.7917,1.7878,1.7811,1.7811,1.7811,1.7811,1.9275,1.9361,1.8172,2.0013,2.06,2.0003,2.0129,1.9837,1.9244,1.9094,1.854,1.7811,1.8044,1.8544,1.9147,1.8728,1.9129,1.9817,1.9295,1.9196,1.9289,1.9227,1.9259,1.9289,1.9227,0.0,0.0,0.0,1.9769,2.0515,2.1597,2.3201,2.4898,2.6264,2.6524,2.6563,2.7063,2.6794,2.6447,2.6447,2.684,2.7535,2.8613,2.9155,2.918,2.8533,2.8783,2.881,2.8099,2.8029,2.8096,2.818,2.8195,2.8036,2.7615,2.8008,2.7861,2.6833,2.7171,2.7171,2.6612,2.6554,2.6747,2.7248,2.6785,2.7026,2.8028,2.7931,2.8174,2.8789,2.9199,2.9668,3.0176,3.0176,3.0644,3.1465,3.1465,3.1465,3.1504,3.1855,3.1992,3.203,3.2445,3.314,3.4012,3.4817,3.5572,3.6392,0.0,0.0,0.0,0.0,0.0,0.0,0.0,0.0,0.0,0.0,0.0,0.0,0.0,0.0,0.0,0.0,0.0,0.0,0.0,0.0,0.0,0.0,1.7961,1.7939,1.7917,1.7833,1.7811,1.7856,1.9299,1.9241,1.7822,1.99,2.0236,1.9168,1.9603,1.9454,1.8917,1.9052,1.8626,1.7895,1.8383,1.9076,1.9741,1.939,1.9885,2.0636,1.9714,1.9474,1.9518,1.9285,1.9196,1.9196,1.9164,1.9196,0.0,0.0,0.0,2.0,2.1801,2.2774,2.3744,2.5494,2.5447,2.5197,2.6072,2.5774,2.5303,2.5303,2.5303,2.5687,2.7005,2.7409,2.7505,2.7294,2.7495,2.7599,2.7426,2.7437,2.7489,2.7572,2.7554,2.7336,2.6737,2.7237,2.7043,2.568,2.6121,2.614,2.5409,2.5322,2.5591,2.6255,2.563,2.5947,2.7304,2.692,2.7191,2.8157,2.8172,2.8552,2.9238,2.9238,2.9726,3.0586,3.0801,3.0898,3.0898,3.0898,3.0874,3.0895,3.1458,3.2333,3.334,3.3916,3.4756,3.5718,0.0,0.0,0.0,0.0,0.0,0.0,0.0,0.0,0.0,0.0,0.0,0.0,1.9587,1.8929,1.8579,1.9001,1.8285,0.0,0.0,0.0,0.0,0.0,0.0,0.0,1.8168,1.7939,1.7856,1.7983,1.9348,1.9241,1.7822,1.9211,1.9068,1.7693,1.9286,1.9579,1.8917,1.9052,1.8671,1.8095,1.9178,1.9659,1.9825,2.0914,2.1389,2.1352,2.0516,2.0244,2.0099,1.9217,1.893,1.8895,1.8771,1.8913,1.9048,0.0,0.0,0.0,2.1009,2.1401,2.1871,2.3687,2.4101,2.4303,2.5168,2.5322,2.5303,2.5303,2.5303,2.5322,2.5418,2.612,2.6428,2.5659,2.6226,2.6514,2.5813,2.5726,2.5754,2.5813,2.5838,2.5819,2.5762,2.5749,2.5688,2.5512,2.5495,2.5428,2.5303,2.5303,2.5322,2.536,2.5322,2.5341,2.5437,2.6275,2.7142,2.802,2.8074,2.8151,2.8262,2.8262,2.8789,2.9707,3.0547,3.0898,3.0898,3.0898,3.0832,3.0706,3.0748,3.1756,3.3179,3.3103,3.416,3.5718,0.0,0.0,0.0,0.0,0.0,0.0,0.0,0.0,0.0,0.0,0.0,0.0,0.0,1.8821,1.8518,1.8697,1.8314,0.0,0.0,0.0,0.0,0.0,0.0,0.0,1.8465,1.8351,1.8307,1.826,1.9115,1.9224,1.8654,1.8917,1.8743,1.8218,1.8826,1.861,1.7871,1.8714,1.8603,1.7929,1.9192,1.9973,2.0336,2.045,2.1182,2.1963,2.0643,2.0228,2.0262,1.9919,1.9397,1.8895,1.8843,1.8895,1.8982,1.8965,1.9146,1.9586,2.0728,2.1145,2.1548,2.2793,2.3553,2.4081,2.4379,2.4899,2.5303,2.5303,2.5303,2.5303,2.5303,2.5553,2.5697,2.5447,2.5708,2.5844,2.563,2.5647,2.5673,2.5703,2.5703,2.5703,2.5703,2.5634,2.5562,2.5514,2.5437,2.537,2.5303,2.5303,2.5303,2.5303,2.5303,2.5303,2.5303,2.562,2.5976,2.6342,2.6359,2.6699,2.731,2.7872,2.8618,2.9519,3.0342,3.0725,3.0766,3.0766,3.0711,3.0629,3.0604,3.159,3.3071,3.2974,3.4032,3.5584,0.0,0.0,0.0,0.0,0.0,0.0,0.0,0.0,0.0,1.8031,0.0,0.0,0.0,0.0,1.8569,1.841,1.8281,1.8211,1.8211,1.8211,0.0,0.0,0.0,0.0,1.8565,1.8603,1.8565,1.8428,1.9056,1.929,1.915,1.9001,1.8908,1.8866,1.8541,1.7954,1.7273,1.8138,1.8165,1.7748,1.9304,2.0193,2.0585,2.0619,2.1358,2.2195,2.0944,2.0515,2.0608,2.0626,2.021,1.9651,1.9345,1.9022,1.8807,1.9031,1.9164,1.9396,2.0168,2.0546,2.0944,2.1877,2.2601,2.3188,2.3486,2.4245,2.487,2.488,2.512,2.5303,2.5303,2.5322,2.537,2.5428,2.5466,2.5532,2.5615,2.5671,2.5703,2.5703,2.5703,2.5703,2.5703,2.5625,2.5558,2.5495,2.5428,2.5341,2.5303,2.5303,2.5303,2.5303,2.5303,2.5303,2.5303,2.5303,2.5322,2.537,2.537,2.5707,2.6362,2.7221,2.8129,2.9012,2.9804,3.0352,3.0665,3.0667,3.0635,3.0552,3.0527,3.1513,3.2974,3.2929,3.4007,3.5493,0.0,0.0,0.0,0.0,0.0,0.0,0.0,0.0,1.5945,1.846,0.0,0.0,0.0,0.0,0.0,1.8256,1.8211,1.8211,1.8211,1.8211,1.8218,1.829,1.8385,1.8426,1.8505,1.8584,1.8567,1.8512,1.9146,1.9443,1.9347,1.9488,1.953,1.9411,1.8443,1.7714,1.7248,1.737,1.7417,1.7588,1.9624,2.0413,2.0512,2.1666,2.2096,2.2047,2.1432,2.1187,2.1189,2.1288,2.1272,2.1053,2.0144,1.9222,1.8582,1.8982,1.9081,1.9093,0.0,0.0,0.0,2.0769,2.1126,2.1499,2.2393,2.3304,2.3976,2.4005,2.4697,2.5264,2.5226,2.5284,2.537,2.5457,2.5478,2.5547,2.5683,2.5703,2.5703,2.5703,2.5703,2.5703,2.5703,2.557,2.5505,2.5505,2.539,2.5303,2.5303,2.5303,2.5303,2.5303,2.5303,2.5303,2.5303,2.5303,2.5303,2.5303,2.5303,2.5341,2.5466,2.6341,2.7262,2.8157,2.8979,2.9815,3.0581,3.0597,3.0564,3.0506,3.0506,3.1468,3.2872,3.2891,3.3987,3.5468,0.0,0.0,0.0,0.0,0.0,0.0,1.6923,1.6412,1.6553,0.0,0.0,0.0,1.9814,1.9321,1.8771,1.8463,1.8325,1.8266,1.8266,1.8236,1.8256,1.8365,1.843,1.8529,1.8643,1.886,1.8895,1.8789,1.8875,1.9414,2.0372,1.9447,1.9604,2.0575,1.8943,1.8078,1.7854,1.7993,1.7807,1.7598,2.0059,2.0653,2.0169,2.1405,2.2153,2.2454,2.1855,2.1183,2.0758,2.1708,2.0619,1.8839,1.8755,1.8623,1.8524,1.8622,1.8324,1.7999,1.8258,0.0,0.0,0.0,0.0,0.0,1.9936,2.1522,2.2892,2.2334,2.339,2.4235,2.3601,2.3553,2.3809,2.4523,2.5159,2.559,2.5681,2.5703,2.5703,2.5703,2.5703,2.5703,2.5703,2.557,2.5505,2.5505,2.539,2.5303,2.5303,2.5303,2.5303,2.5303,2.5303,2.5303,2.5303,2.5303,2.5303,2.5303,2.5303,2.563,2.6294,2.7178,2.8033,2.8868,2.9744,3.0232,3.0462,3.0521,3.0487,3.0417,3.0417,3.1083,3.2102,3.2699,3.3603,3.4641,0.0,0.0,0.0,0.0,0.0,1.6346,1.7282,1.7028,1.7208,0.0,0.0,0.0,1.9378,1.9082,1.8716,1.8524,1.8445,1.8388,1.8388,1.8363,1.8342,1.8365,1.8452,1.855,1.8607,1.8895,1.9033,1.8964,1.8894,1.9397,2.0386,1.939,1.9519,2.0531,1.8989,1.8297,1.8294,1.8146,1.786,1.7694,1.9736,2.0384,2.0237,2.1191,2.1772,2.2031,2.1809,2.1548,2.1496,2.2369,2.107,1.9117,1.9436,1.8997,1.8408,1.8408,1.8228,1.7968,1.785,1.7964,1.7964,1.7408,0.0,0.0,1.8774,2.025,2.1625,2.1528,2.2611,2.3398,2.2889,2.288,2.3122,2.3669,2.42,2.4822,2.5582,2.5703,2.5703,2.5703,2.5703,2.5703,2.5703,2.557,2.5505,2.5505,2.539,2.5303,2.5303,2.5303,2.5303,2.5303,2.5303,2.5303,2.5303,2.5303,2.5303,2.5303,2.5303,2.5774,2.664,2.7505,2.8332,2.914,3.0025,3.0398,3.0398,3.0448,3.0448,3.0398,3.0417,3.0956,3.1852,3.2704,3.3577,3.4436,0.0,0.0,0.0,1.7557,1.7459,1.748,1.7557,1.7591,1.7869,0.0,1.8708,1.8763,1.9024,1.8843,1.8622,1.8485,1.8485,1.8485,1.8485,1.8485,1.8426,1.829,1.8393,1.8471,1.8471,1.8807,1.9,1.9082,1.9081,1.9379,1.9909,1.9404,1.9457,1.9891,1.8833,1.8442,1.8534,1.7915,1.7749,1.7956,1.9,1.9815,2.043,2.0938,2.1201,2.1349,2.1592,2.2038,2.2531,2.2792,2.1978,2.0881,2.0978,1.9934,1.8563,1.8258,1.8366,1.8413,1.7643,1.7599,1.7624,1.6972,1.7012,0.0,1.8108,1.9106,2.0093,2.0795,2.1688,2.2331,2.2254,2.234,2.2454,2.2552,2.2706,2.345,2.5309,2.5469,2.5488,2.5684,2.5605,2.5586,2.5683,2.5584,2.5505,2.5505,2.539,2.5303,2.5303,2.5303,2.5303,2.5303,2.5303,2.5303,2.5303,2.5303,2.5303,2.5303,2.5399,2.5909,2.6774,2.764,2.8467,2.9294,3.0063,3.0398,3.0398,3.0398,3.0398,3.0398,3.0467,3.1032,3.191,3.2841,3.3747,3.4623,0.0,0.0,1.7636,1.8104,1.7674,1.7711,1.902,1.8659,1.8528,1.9364,1.93,1.9075,1.8806,1.8643,1.8491,1.8351,1.833,1.8388,1.8485,1.8388,1.8287,1.8236,1.8239,1.826,1.826,1.8586,1.8807,1.8948,1.9049,1.9432,2.0043,1.9729,1.9851,2.0264,1.9183,1.8577,1.8299,1.7326,1.7652,1.8836,1.8866,1.9196,1.9772,2.0456,2.1295,2.209,2.2156,2.1769,2.1191,2.0897,2.1318,2.1736,2.035,2.0276,2.0271,1.806,1.7593,1.7521,1.6138,1.5774,1.5663,1.5212,1.5566,0.0,1.5697,1.6847,1.7841,1.7466,1.8605,1.9454,1.8811,1.8766,1.9039,1.9755,2.0516,2.1865,2.4316,2.4043,2.4121,2.5527,2.5078,2.4937,2.5629,2.5585,2.5505,2.5505,2.539,2.5303,2.5303,2.5303,2.5303,2.5303,2.5303,2.5303,2.5303,2.5303,2.5303,2.5303,2.6005,2.6794,2.7659,2.8486,2.9333,3.016,3.0321,3.0398,3.0398,3.0398,3.0398,3.0398,3.0467,3.1037,3.1912,3.2854,3.3743,3.4618,0.0,1.8639,1.8559,1.8894,1.8696,1.874,1.9503,1.9307,1.9195,1.9476,1.9209,1.8893,1.8626,1.8452,1.8307,1.826,1.8465,1.8543,1.8423,1.8529,1.8473,1.8207,1.8211,1.8215,1.8298,1.855,1.8807,1.8999,1.9082,1.9232,1.9489,1.9204,1.9405,2.0,1.8727,1.8356,1.8607,1.72,1.7289,1.8431,1.8812,1.9634,2.0737,2.1261,2.1815,2.231,2.231,2.2018,2.1663,2.209,2.176,2.1144,2.1111,2.0802,2.0119,1.8403,1.8037,1.7788,1.5908,1.5296,1.5099,1.4699,1.4848,0.0,0.0,1.6167,1.6844,1.6965,1.77,1.8171,1.7764,1.774,1.7941,1.8377,1.9134,2.0163,2.1596,2.2578,2.3477,2.4355,2.4414,2.4569,2.5017,2.5351,2.5522,2.5457,2.537,2.5303,2.5303,2.5303,2.5303,2.5303,2.5303,2.5303,2.5303,2.5303,2.5303,2.5303,2.6178,2.7063,2.7928,2.8717,2.9583,3.0398,3.0398,3.0398,3.0398,3.0398,3.0417,3.0467,3.0525,3.1095,3.2003,3.2942,3.3861,3.4719,1.9072,1.9392,1.9577,1.9281,1.9511,1.9688,1.9485,1.9609,1.9591,1.9225,1.9055,1.8894,1.8722,1.8755,1.8774,1.8774,1.9075,1.903,1.8551,1.8785,1.8779,1.8435,1.8258,1.8308,1.8635,1.8657,1.8789,1.9066,1.9066,1.9016,1.8895,1.8584,1.8743,1.9324,1.8302,1.8171,1.8612,1.7462,1.74,1.8131,1.9002,2.0205,2.149,2.1757,2.1989,2.218,2.2282,2.231,2.2445,2.3449,2.2218,2.0514,2.1633,2.1144,1.9944,1.8669,1.8553,1.8324,1.6063,1.5192,1.4884,1.4604,1.4489,1.47,0.0,0.0,0.0,1.6941,1.7141,1.719,1.7205,1.724,1.7241,1.7065,1.7777,1.8382,1.8444,2.0597,2.2303,2.2636,2.3262,2.3809,2.4121,2.4734,2.5189,2.5399,2.5043,2.4966,2.5313,2.5303,2.5303,2.5303,2.5303,2.5303,2.5303,2.5303,2.5303,2.5303,2.6351,2.7217,2.7928,2.8909,2.9737,3.0398,3.0398,3.0398,3.0398,3.0398,3.0448,3.0525,3.0582,3.1171,3.2122,3.3057,3.3945,3.4824,1.8313,1.8929,1.9249,1.8415,1.8961,1.9485,1.9335,1.9335,1.9225,1.8824,1.9452,1.9826,1.9527,2.0291,2.086,2.086,2.0639,2.0166,1.9419,1.9189,1.9093,1.9169,1.8435,1.8512,1.9515,1.8865,1.8643,1.893,1.893,1.8913,1.8895,1.8624,1.8348,1.8129,1.8805,1.8363,1.723,1.8324,1.8979,1.9334,1.9744,1.9904,1.9893,2.017,2.0861,2.1718,2.2135,2.231,2.2265,2.1996,2.1697,2.1216,2.0109,2.0918,2.159,1.8176,1.8018,1.8426,1.5916,1.4642,1.4079,1.4293,1.4282,1.4338,1.4751,0.0,1.4954,1.5231,0.0,1.5312,1.5389,0.0,0.0,1.4464,1.5694,1.6527,1.5835,1.7349,1.908,2.0611,2.0936,2.1621,2.3105,2.3281,2.392,2.5389,2.4003,2.3767,2.5313,2.5322,2.5303,2.5303,2.5303,2.5303,2.5303,2.5303,2.5303,2.5322,2.6967,2.7794,2.7948,2.9525,3.0314,3.0398,3.0398,3.0398,3.0398,3.0398,3.0467,3.0587,3.0607,3.1174,3.2122,3.3057,3.3945,3.4824,1.8679,1.9008,1.9194,1.9013,1.9337,1.9587,1.9485,1.9243,1.9014,1.8841,1.8908,1.9073,1.9295,1.9651,2.0127,2.0741,2.0953,2.0616,1.9615,1.9682,1.9407,1.8698,1.8306,1.8357,1.8883,1.8706,1.8679,1.8771,1.8771,1.8735,1.8643,1.8296,1.8349,1.8714,1.8921,1.886,1.8701,1.9688,1.9874,1.9629,2.0333,2.0385,2.0094,2.1005,2.1603,2.2032,2.2237,2.231,2.2326,2.2491,2.1704,2.0835,2.1857,2.1245,1.9909,1.8554,1.7843,1.7066,1.5103,1.4606,1.462,1.4465,1.4751,1.5014,1.4761,1.4757,1.4841,1.4979,0.0,0.0,0.0,0.0,0.0,0.0,1.4757,1.4921,1.5253,1.5931,1.7041,1.8843,1.9522,2.0507,2.2185,2.2706,2.3453,2.4705,2.4028,2.4097,2.539,2.537,2.5322,2.537,2.5322,2.5303,2.5303,2.5303,2.5303,2.5322,2.7063,2.789,2.7948,2.964,3.0398,3.0398,3.0398,3.0398,3.0398,3.0448,3.0506,3.0595,3.0636,3.153,3.2864,3.3257,3.4277,3.5508,1.9031,1.9132,1.9259,1.9541,1.966,1.9673,1.9587,1.9227,1.8984,1.9111,1.8961,1.9051,1.9628,1.9945,2.042,2.1202,2.1618,2.1368,2.0271,2.0177,1.9822,1.9075,1.8478,1.8387,1.8941,1.8698,1.8584,1.8642,1.8528,1.8452,1.8397,1.7958,1.811,1.8717,1.8778,1.9024,1.9462,2.0374,2.0475,2.0031,2.0891,2.107,2.0943,2.1811,2.218,2.231,2.231,2.231,2.2343,2.2581,2.1616,2.0645,2.2482,2.1298,1.9289,1.943,1.8628,1.7342,1.5816,1.5625,1.5675,1.4907,1.5152,1.5416,1.4804,1.4766,1.4859,1.4913,1.4952,0.0,0.0,0.0,1.5023,1.4846,0.0,1.4227,1.4863,1.5144,1.5788,1.7092,1.8261,1.9511,2.0976,2.1597,2.2387,2.3548,2.3526,2.3952,2.512,2.5292,2.5359,2.5409,2.5341,2.5322,2.5303,2.5303,2.5303,2.5322,2.7063,2.7909,2.7978,2.966,3.0448,3.0448,3.0448,3.0448,3.0467,3.0506,3.0564,3.0621,3.0679,3.1676,3.3105,3.332,3.4199,3.5351,1.9014,1.9212,1.935,1.9555,1.966,1.966,1.9513,1.9274,1.9235,1.9615,2.0105,2.0627,2.1174,2.2376,2.3168,2.3209,2.3165,2.2729,2.1791,2.0649,2.0374,2.1182,1.9155,1.8827,2.0582,1.9026,1.8304,1.8512,1.8125,1.8023,1.82,1.7676,1.7337,1.7224,1.8306,1.8552,1.8275,1.9992,2.0761,2.09,2.1378,2.184,2.218,2.1794,2.1899,2.231,2.231,2.231,2.2192,2.1492,2.1204,2.1051,2.0365,2.0761,2.1375,2.0805,2.0799,2.061,1.9074,1.8092,1.7146,1.5651,1.5289,1.5175,1.4714,1.4658,1.4699,1.4709,1.4867,1.4971,1.4919,1.4968,1.4756,1.3971,1.4514,0.0,0.0,1.4767,1.5326,1.538,1.6953,1.8396,1.9288,1.9396,2.0131,2.1853,2.1854,2.2522,2.4245,2.5066,2.5454,2.539,2.5409,2.537,2.5303,2.5303,2.5303,2.5322,2.7063,2.7939,2.8046,2.9717,3.0525,3.0583,3.0583,3.0583,3.0583,3.0602,3.0641,3.0698,3.0698,3.1326,3.2324,3.3105,3.3437,3.3711,0.0,1.8806,1.9061,1.9585,1.9694,1.9699,1.9701,1.9666,1.974,2.0065,2.0413,2.0945,2.1739,2.2223,2.2713,2.3188,2.3212,2.2758,2.1725,2.0624,2.0161,2.0542,1.8589,1.8118,1.9522,1.8416,1.7839,1.7915,1.7755,1.7664,1.7522,1.7304,1.7076,1.6866,1.7971,1.8691,1.9149,2.091,2.1575,2.1387,2.1529,2.1437,2.1244,2.1848,2.2163,2.231,2.231,2.231,2.2287,2.2236,2.1746,2.1317,2.193,2.1118,2.009,2.077,2.0203,1.93,1.9022,1.9199,1.8924,1.6712,1.6657,1.6666,1.4818,1.446,1.4537,1.4627,1.4728,1.4832,1.4886,1.4955,1.4908,1.4635,1.4875,1.5025,0.0,1.5091,1.5315,1.5365,1.6381,1.7183,1.7477,1.8367,1.9463,2.0817,2.0906,2.1925,2.4232,2.4501,2.4871,2.5519,2.5449,2.5409,2.5428,2.5428,2.5726,2.6314,2.747,2.8336,2.8953,3.0064,3.0587,3.0607,3.0607,3.0607,3.0599,3.0642,3.0679,3.0698,3.0794,3.1047,3.1445,3.2285,3.3301,3.4434,1.8531,1.8644,1.891,1.9521,1.9707,1.9757,1.9701,1.9614,1.9812,2.0572,2.0593,2.101,2.2247,2.2468,2.2686,2.3041,2.3165,2.281,2.1833,2.0935,2.0509,2.0682,1.9093,1.8692,1.9762,1.8589,1.7973,1.8037,1.7565,1.7248,1.7076,1.6926,1.6865,1.6905,1.7343,1.8373,1.982,2.075,2.1406,2.1853,2.1853,2.1587,2.1278,2.2023,2.204,2.1754,2.2153,2.231,2.2338,2.25,2.2129,2.1732,2.2591,2.166,2.0431,2.1399,2.0864,1.9977,2.0014,2.0532,2.0535,1.8338,1.8342,1.8228,1.5759,1.5239,1.5239,1.4993,1.4799,1.4875,1.5532,1.5264,1.506,1.5333,1.5217,1.5106,0.0,1.526,1.5311,1.5384,1.585,1.6152,1.6173,1.7245,1.7806,1.7445,1.9322,2.1509,2.3808,2.411,2.4639,2.5574,2.5526,2.5492,2.5495,2.5495,2.5928,2.6815,2.7683,2.8558,2.9466,3.0266,3.0659,3.0712,3.0712,3.0712,3.0708,3.075,3.0758,3.0777,3.0882,3.091,3.1016,3.1875,3.3262,3.4824,1.8589,1.8699,1.8875,1.9378,1.9682,1.9788,1.9569,1.9235,1.9578,2.1165,2.0833,2.1114,2.2772,2.32,2.3229,2.2947,2.3093,2.2905,2.2152,2.1532,2.1317,2.1625,2.0565,2.033,2.1177,1.947,1.8626,1.8766,1.7493,1.6876,1.685,1.6543,1.6657,1.7116,1.6471,1.7676,2.0124,1.9471,2.0383,2.231,2.231,2.2265,2.2215,2.2265,2.1608,2.0754,2.1894,2.231,2.231,2.231,2.231,2.231,2.231,2.231,2.2349,2.2625,2.2695,2.2565,2.2035,2.2099,2.1964,2.0334,2.0099,1.9646,1.7339,1.6826,1.6611,1.5819,1.5129,1.5154,1.6651,1.5847,1.5188,1.5902,1.5457,1.5047,1.518,1.5244,1.5322,1.5384,1.5375,1.537,1.5389,1.5993,1.5233,1.2498,1.7343,2.1191,2.3008,2.3848,2.467,2.5581,2.5593,2.5572,2.5503,2.5503,2.595,2.6812,2.7692,2.8605,2.9535,3.0334,3.0787,3.0898,3.0898,3.0898,3.0898,3.0898,3.0898,3.0898,3.0898,3.0898,3.1016,3.1914,3.3262,3.4766,1.8023,1.8512,1.8895,1.903,1.9191,1.947,1.9945,2.03,2.094,2.2046,2.2554,2.3077,2.3801,2.3937,2.3756,2.3165,2.3165,2.294,2.2287,2.1312,2.1161,2.2073,2.0373,1.9915,2.0944,1.9007,1.8087,1.8277,1.6997,1.6382,1.6382,1.6289,1.6271,1.6312,1.6144,1.7308,1.9439,1.9188,2.0311,2.231,2.231,2.1799,2.1133,2.1961,2.1608,2.0754,2.1894,2.231,2.231,2.231,2.231,2.231,2.231,2.231,2.2349,2.2625,2.2695,2.2737,2.2816,2.2905,2.2557,2.0864,2.0058,1.9217,0.0,1.6501,1.6096,1.6179,1.6099,1.6028,1.6022,1.5897,1.5639,1.514,1.5068,1.508,1.5114,1.5177,1.5241,1.5321,1.5888,1.6013,1.5392,1.4019,1.4063,1.6211,1.8153,2.038,2.3027,2.2671,2.3404,2.5601,2.5632,2.5624,2.5658,2.5658,2.6087,2.6966,2.7827,2.8701,2.9606,3.0459,3.0866,3.0898,3.0898,3.0898,3.0898,3.0898,3.0898,3.0898,3.0898,3.0898,3.1074,3.2559,3.3359,3.3945,1.7612,1.8132,1.855,1.8698,1.9129,1.9632,2.0172,2.0174,2.0657,2.2138,2.2632,2.3044,2.3574,2.3837,2.3714,2.3045,2.2972,2.2695,2.2044,2.1573,2.154,2.1969,2.1088,2.0855,2.1502,1.9948,1.8963,1.8572,1.744,1.6623,1.6095,1.6095,1.6163,1.6276,1.6034,1.7032,1.8898,1.9475,2.0591,2.2003,2.2209,2.1928,0.0,2.1836,2.1603,2.1097,2.1556,2.1991,2.231,2.231,2.231,2.231,2.231,2.231,2.2321,2.2473,2.2527,2.2581,2.2747,2.289,2.2737,2.1742,2.1313,2.0679,1.8961,1.7965,1.7385,1.7276,1.6828,1.6594,1.7064,1.651,1.5718,1.4916,1.5264,1.5508,1.5146,1.5168,1.5217,1.5284,1.5719,1.5801,1.5289,1.4616,1.5109,1.734,1.7819,1.9177,2.1831,2.1835,2.2771,2.5059,2.5453,2.5664,2.5703,2.6074,2.6719,2.7578,2.8457,2.9316,3.0176,3.0684,3.0898,3.0898,3.0898,3.0898,3.0898,3.0898,3.0903,3.0886,3.0847,3.0807,3.1015,3.27,3.335,3.3652,1.7337,1.7738,1.8107,1.8375,1.9182,1.9907,2.0264,1.9749,2.0022,2.1981,2.2041,2.2159,2.286,2.3369,2.3392,2.2746,2.2695,2.2405,2.1642,2.1974,2.2003,2.1521,2.1899,2.2123,2.2123,2.1188,2.0172,1.9123,1.8151,1.7093,1.5996,1.5968,1.62,1.6562,1.6024,1.6815,1.8575,2.0,2.1011,2.1718,2.2077,2.2209,2.2163,2.1705,2.1521,2.146,2.1118,2.1493,2.2152,2.218,2.2209,2.2209,2.2282,2.231,2.231,2.231,2.231,2.231,2.231,2.2463,2.266,2.266,2.2778,2.2529,2.1034,2.003,1.9234,1.8554,1.7505,1.711,1.8553,1.7333,1.5919,1.5301,1.6001,1.6384,1.5683,1.5567,1.5515,1.5463,1.5506,0.0,1.521,1.6251,1.6923,1.6927,1.6924,1.8004,2.0437,2.1246,2.2537,2.4512,2.5312,2.5703,2.5703,2.6445,2.7207,2.7969,2.8965,2.9824,3.0566,3.0801,3.0898,3.0898,3.0895,3.0891,3.087,3.087,3.0862,3.0852,3.0741,3.068,3.0886,3.258,3.3273,3.3625,1.7313,1.7794,1.8134,1.8035,1.8697,1.9492,2.0284,2.1132,2.2007,2.2876,2.2976,2.2982,2.3124,2.3212,2.3117,2.2746,2.2695,2.2405,2.1642,2.1688,2.1538,2.1118,2.1181,2.1229,2.1229,2.021,1.9357,1.8706,1.75,1.6606,1.5996,1.587,1.5887,1.5963,1.5858,1.6959,1.8968,2.0099,2.1216,2.2135,2.1853,2.1718,2.1688,2.1244,2.1118,2.1103,2.1039,2.1103,2.1291,2.1598,2.1718,2.1794,2.218,2.231,2.231,2.231,2.231,2.231,2.231,2.2321,2.236,2.236,2.1939,2.1464,2.1165,2.0016,1.903,1.91,1.8641,1.8146,1.7878,1.7757,1.752,1.6975,1.7671,1.826,1.8244,1.7663,1.7016,1.6368,1.6913,1.6766,1.5267,1.601,1.6584,1.6598,1.6596,1.8011,2.1307,2.1008,2.2193,2.5371,2.5625,2.5703,2.5703,2.5859,2.5996,2.6172,2.7773,2.8613,2.8809,3.0234,3.0898,3.0898,3.0892,3.083,3.0733,3.0733,3.0701,3.0644,3.0644,3.0632,3.083,3.2555,3.3216,3.3479,1.6952,1.7248,1.7595,1.8152,1.9039,1.9979,2.0887,2.1884,2.2569,2.277,2.2797,2.2721,2.2538,2.2772,2.2729,2.2186,2.213,2.2041,2.1826,2.1486,2.1343,2.1519,2.1199,2.0991,2.0991,2.048,1.9641,1.8499,1.7884,1.7152,1.6337,1.5977,1.5978,1.6278,1.6513,1.7615,1.9289,2.0,2.1035,2.2125,2.1515,2.1275,2.1244,2.0781,2.0616,2.0616,2.0398,2.0345,2.0431,2.1086,2.1275,2.1323,2.1554,2.1781,2.1928,2.1928,2.2106,2.231,2.231,2.231,2.231,2.231,2.204,2.1769,2.1769,2.0889,2.0128,2.026,1.9589,1.868,1.7806,1.8177,1.8437,1.7864,1.8256,1.8677,1.8792,1.8152,1.7444,1.6792,1.6913,1.6547,1.5183,1.547,1.5913,1.6399,1.654,1.7872,2.0817,2.1078,2.231,2.4883,2.5447,2.5703,2.5703,2.6152,2.6367,2.6406,2.8144,2.8965,2.9023,3.0232,3.0788,3.0788,3.0762,3.072,3.0645,3.0651,3.0604,3.0558,3.0543,3.0833,3.1364,3.2589,3.3354,3.3968,1.7109,1.7247,1.7591,1.8676,1.973,2.0634,2.1351,2.21,2.2582,2.2476,2.2412,2.2265,2.2015,2.2375,2.2341,2.1642,2.1582,2.1661,2.1848,2.121,2.1177,2.1894,2.1156,2.084,2.114,2.0856,2.0048,1.8685,1.8531,1.7929,1.6906,1.6428,1.6518,1.7075,1.7466,1.8511,1.9988,2.0144,2.107,2.2343,2.1421,2.1051,2.1003,2.041,2.0193,2.0124,1.9803,1.969,1.9818,2.0499,2.0764,2.0862,2.0959,2.1213,2.146,2.146,2.1794,2.2135,2.2135,2.2209,2.231,2.231,2.231,2.231,2.231,2.1735,2.1204,2.1204,2.0189,1.9028,1.8091,1.8833,0.0,1.8818,1.9207,1.9564,1.9511,1.8878,1.816,1.7385,1.7243,1.6823,1.5879,1.5983,1.6414,1.7125,1.6995,1.7966,2.0414,2.1277,2.2489,2.4249,2.503,2.543,2.543,2.6289,2.6716,2.6722,2.8476,2.9301,2.9309,3.0246,3.0678,3.0671,3.0613,3.0586,3.0571,3.0557,3.0641,3.0756,3.0756,3.1282,3.2128,3.2891,3.3647,3.4422,1.8644,1.9023,1.9262,1.9627,2.0473,2.1075,2.0998,2.1748,2.2426,2.2643,2.2463,2.231,2.2282,2.2293,2.2147,2.1642,2.1582,2.1535,2.1397,2.0721,2.0778,2.1687,2.0511,2.0391,2.1627,2.0451,1.9722,1.9566,1.8966,1.8317,1.7593,1.7533,1.7788,1.8253,1.8268,1.9539,0.0,2.1101,2.1924,2.3407,2.1881,2.1264,2.1166,2.0137,1.9747,1.9747,1.9711,1.969,1.9711,1.9782,2.007,2.0449,2.0862,2.1039,2.1071,2.1071,2.1354,2.1658,2.1658,2.1974,2.231,2.231,2.231,2.231,2.231,2.1735,2.1204,2.1204,2.0189,1.9164,1.8697,2.0029,2.1025,2.0544,2.1767,2.2607,2.2194,2.1401,2.0307,1.881,1.9339,1.9454,1.846,1.9182,1.9724,1.9753,1.8368,1.8644,2.1244,2.1532,2.243,2.4245,2.4445,2.4512,2.4512,2.5391,2.5785,2.5753,2.7498,2.8307,2.829,2.9887,3.0621,3.0602,3.0598,3.0571,3.0502,3.0441,3.0891,3.1583,3.1583,3.2083,3.291,3.3757,3.4122,3.4334,1.8161,1.833,1.8698,1.9735,2.0217,2.078,2.1619,2.1819,2.1998,2.2409,2.2377,2.231,2.231,2.231,2.2003,2.1306,2.1244,2.1339,2.1516,2.0894,2.1061,2.2259,2.1395,2.1141,2.168,2.0782,2.0094,1.969,1.9031,1.8568,1.8313,1.8186,1.8346,1.881,1.9941,2.1199,2.2443,2.2328,2.2712,2.3266,2.1595,2.0704,2.0309,1.9852,1.969,1.969,1.969,1.969,1.969,1.969,1.9818,1.9965,2.0139,2.0398,2.0583,2.0583,2.0878,2.1275,2.1521,2.1718,2.1957,2.2237,2.231,2.231,2.231,2.2073,2.1854,2.1854,2.1216,2.0558,2.0109,2.078,2.1552,2.2021,2.2319,2.2592,2.2872,2.1865,2.0739,1.9799,1.9925,1.9955,1.962,1.9953,2.0383,2.0852,2.025,2.0346,2.1378,2.2508,2.3452,2.4212,2.476,2.5074,2.5129,2.594,2.635,2.6343,2.8048,2.8856,2.8859,2.9999,3.0519,3.0487,3.0487,3.0756,3.1218,3.1198,3.1679,3.2429,3.2429,3.2929,3.3718,3.4064,3.4526,3.5026,1.8371,1.8467,1.8833,2.0082,2.0286,2.0647,2.1744,2.1735,2.1718,2.2032,2.2209,2.231,2.231,2.231,2.1945,2.1071,2.1183,2.1337,2.1413,2.1156,2.15,2.2664,2.2054,2.1874,2.2248,2.144,2.0857,2.0572,1.9705,1.9356,1.9451,1.9277,0.0,0.0,2.1236,2.2264,2.3125,2.3068,2.3143,2.3111,2.1614,2.0602,1.9974,1.9765,1.9603,1.9479,1.9639,1.9603,1.9479,1.9639,1.969,1.969,1.969,1.9909,2.0124,2.0124,2.0431,2.0862,2.1134,2.1383,2.1688,2.2003,2.2209,2.231,2.231,2.231,2.231,2.231,2.1839,2.143,2.1264,2.1432,2.1909,2.285,2.2791,2.278,2.3145,2.2297,2.1362,2.0546,2.057,2.0712,2.0804,2.1082,2.1503,2.2115,2.2393,2.2432,2.2182,2.34,2.412,2.4176,2.4794,2.5134,2.5188,2.6265,2.6784,2.6784,2.8473,2.9256,2.9271,3.009,3.0448,3.0398,3.0679,3.1141,3.1718,3.1968,3.2545,3.3276,3.3276,3.3814,3.4584,3.4584,3.4968,3.5493,2.0023,2.0249,2.0418,2.091,2.0991,2.0991,2.0991,2.1337,2.1582,2.1628,2.2003,2.231,2.231,2.231,2.1945,2.1071,2.1598,2.16,2.076,2.1321,2.1979,2.2694,2.2054,2.2293,2.355,2.2338,2.1994,2.2679,2.1335,2.0872,2.1255,0.0,2.1584,2.2632,2.1925,2.2371,2.3671,2.3208,2.3154,2.3305,2.2158,2.1291,2.0632,1.9944,1.9369,1.8968,1.953,1.9369,1.9006,1.953,1.969,1.969,1.969,1.9711,1.9726,1.9726,2.0,2.0314,2.0314,2.0927,2.1582,2.1628,2.1974,2.231,2.231,2.231,2.231,2.231,2.1718,2.1353,2.1879,2.2038,2.2275,2.2886,2.3657,2.3953,2.3295,2.318,2.2582,2.0993,2.1666,2.2274,2.2262,2.3179,2.3826,2.3956,2.4764,2.4879,2.4014,2.4044,2.411,2.411,2.4179,2.4225,2.4225,2.5937,2.6773,2.6726,2.8395,2.9175,2.9121,3.0006,3.0398,3.0436,3.1314,3.1698,3.1756,3.2564,3.3391,3.418,3.418,3.4718,3.5474,3.5474,3.5474,3.5493,1.9722,1.9909,2.0035,2.0449,2.0516,2.0616,2.0959,2.0846,2.0927,2.1521,2.1477,2.1645,2.2254,2.275,2.2798,2.2212,2.2867,2.3079,2.2563,2.2731,2.3,2.3323,2.3101,2.3191,2.3595,2.2787,2.2473,2.2724,2.1365,0.0,0.0,2.1791,2.254,2.395,2.4204,2.4363,2.4459,2.4503,2.3796,2.2631,2.159,2.0469,1.9424,1.8851,1.8727,1.893,1.9095,1.9281,1.9479,1.9639,1.969,1.969,1.969,1.969,1.969,1.969,1.9782,1.9929,2.0212,2.0501,2.0862,2.146,2.1718,2.1899,2.2237,2.231,2.231,2.231,2.2248,2.2323,2.2741,2.3017,2.3332,2.3747,2.4025,2.4117,2.3916,2.34,2.2918,2.2476,2.2753,2.3026,2.3116,2.3952,2.4252,2.3701,2.3991,2.3869,2.3082,2.4236,2.4668,2.412,2.4657,2.4964,2.5024,2.6697,2.7533,2.7544,2.9225,3.0013,3.0025,3.0891,3.1295,3.1333,3.216,3.2852,3.341,3.368,3.4295,3.5084,3.5084,3.5257,3.5493,3.5493,3.5493,3.5493,1.9332,1.9566,1.9782,2.0035,2.0284,2.0558,2.0836,2.0786,2.0858,2.1424,2.1215,2.1197,2.1751,2.2457,0.0,2.2714,2.3489,2.371,2.3056,2.3317,2.3416,2.3278,2.3475,2.3595,2.3595,2.3221,0.0,2.3026,2.2109,2.1993,2.2588,2.2489,2.3124,2.4348,2.4547,2.4472,2.4269,2.4417,2.3717,2.24,2.1322,2.0243,1.92,1.8386,1.8302,1.8612,1.8817,1.9132,1.9442,1.9639,1.969,1.969,1.969,1.969,1.969,1.969,1.969,1.9747,2.0,2.0177,2.0467,2.1197,2.1491,2.1718,2.218,2.231,2.231,2.231,2.2409,2.2652,2.2947,2.33,2.361,2.3976,2.4113,2.419,2.419,2.3768,2.3364,2.3138,2.3219,2.3329,2.3416,2.3955,2.4228,2.4081,2.4132,2.4026,2.3629,2.4379,2.4879,2.5023,2.5216,2.564,2.6332,2.7371,2.8044,2.8371,3.0083,3.0891,3.0929,3.1756,3.2103,3.2037,3.2654,3.3333,3.4064,3.4153,3.4718,3.5493,3.5493,3.5493,3.5493,3.5493,3.5493,3.5493,1.8893,1.9362,1.975,1.975,2.0318,2.0767,2.0722,2.102,2.125,2.1224,2.1059,2.0959,2.0991,2.1681,2.2264,2.2685,0.0,0.0,2.2621,2.3223,2.3383,2.2813,2.3295,2.3595,2.3595,2.3595,2.358,2.3535,2.3361,2.3319,2.339,2.3122,2.3438,2.4132,2.3458,2.3227,2.3396,2.3396,2.3077,2.2524,2.1347,2.0407,1.9641,1.846,1.8027,1.8185,1.865,1.8893,1.9043,1.953,1.969,1.969,1.969,1.969,1.969,1.969,1.969,1.969,1.969,1.9965,2.0382,2.0862,2.1337,2.1764,2.2209,2.231,2.231,2.231,2.231,2.2388,2.2686,2.2996,2.3323,2.3671,2.3996,2.419,2.419,2.419,2.3914,2.318,2.3246,2.3361,2.3361,2.3472,2.392,2.4797,2.4879,2.4969,2.5157,2.4495,2.4859,2.6544,2.5813,2.6197,2.7871,2.7948,2.839,2.9198,3.0891,3.1698,3.1737,3.2513,3.2746,3.253,3.2804,3.3255,3.3808,3.4108,3.4716,3.5446,3.5446,3.5446,3.5446,3.5446,3.5446,3.546,0.0,0.0,2.0468,2.0468,2.1021,2.1291,2.0797,2.0768,2.078,2.0555,2.0509,2.0583,2.0959,2.1681,2.234,2.2937,2.3703,2.41,2.3933,2.4081,2.3956,2.3428,2.352,2.3595,2.3595,2.3595,2.337,2.2892,2.2866,2.3031,2.3406,2.3343,2.3894,2.4926,2.4766,2.4476,2.4157,2.4157,2.3292,2.1845,2.0713,1.9583,1.8486,1.7297,1.7394,1.8145,1.8263,1.8817,1.953,1.9639,1.969,1.969,1.969,1.969,1.969,1.969,1.969,1.969,1.969,1.9782,2.005,2.0812,2.1584,2.2163,2.2265,2.231,2.231,2.231,2.231,2.247,2.2989,2.3141,2.3392,2.3996,2.4151,2.419,2.419,2.419,2.4135,2.3933,2.3971,2.3989,2.3989,2.4026,2.3876,2.3501,2.3667,2.3817,2.3917,2.461,2.5484,2.6582,2.6409,2.6813,2.789,2.8506,2.9256,3.0121,3.1179,3.1698,3.1718,3.2374,3.263,3.2603,3.308,3.3353,3.3544,3.4263,3.4699,3.4889,3.4889,3.4889,3.4889,3.4889,3.5016,3.519,1.8826,1.9861,2.0617,2.0303,2.0797,2.1126,2.0767,2.0722,2.0648,2.0497,2.0233,2.0139,2.0379,2.0758,2.1397,2.2388,2.3299,2.4013,2.4384,2.4158,2.3906,2.3595,2.3595,2.3595,2.3595,2.3595,2.343,2.3101,2.3101,2.3239,2.3483,2.3483,2.3846,2.4471,2.4471,2.4307,2.4032,2.3721,2.2919,2.1657,2.0221,1.9094,1.813,1.7213,1.7229,1.7787,1.8302,1.8855,1.9369,1.9603,1.969,1.969,1.969,1.969,1.969,1.969,1.969,1.969,1.969,1.969,1.9925,2.0764,2.1661,2.231,2.231,2.231,2.231,2.231,2.231,2.2405,2.2738,2.289,2.3141,2.3671,2.3506,2.3517,2.4115,2.382,2.3729,2.4153,2.4284,2.4303,2.4209,2.4284,2.4155,2.3711,2.3808,2.4159,2.4758,2.5317,2.6097,2.7159,2.7198,2.7794,2.9025,2.9358,2.9749,3.0228,3.1369,3.1917,3.1974,3.3061,3.3486,3.3337,3.3393,3.354,3.3776,3.4011,3.4334,3.4694,3.4694,3.4694,3.4694,3.4694,3.4793,3.4926,1.8906,1.9879,2.0528,1.9944,2.0408,2.0827,2.0737,2.0722,2.0677,2.0572,2.0049,1.969,1.969,1.969,2.0228,2.1575,2.2583,2.3489,2.422,2.3837,2.3595,2.3595,2.3595,2.3595,2.3595,2.3595,2.3595,2.3595,2.3595,2.3595,2.3595,2.3595,2.3595,2.3595,2.3595,2.3551,2.3421,2.292,2.229,2.1482,1.9764,1.8729,1.8117,1.7536,1.7312,1.7422,1.8496,1.8893,1.8968,1.953,1.969,1.969,1.969,1.969,1.969,1.969,1.969,1.969,1.969,1.9747,1.998,2.0797,2.1615,2.2209,2.2282,2.231,2.231,2.231,2.231,2.231,2.2377,2.2537,2.2822,2.3165,2.283,2.289,2.4002,2.3488,2.3304,2.4097,2.4339,2.4393,2.4209,2.4357,2.45,2.463,2.4664,2.5182,2.6336,2.6378,2.6849,2.7946,2.7977,2.8725,3.0267,3.0061,2.9954,2.9973,3.1482,3.2185,3.2241,3.3767,3.4298,3.3976,3.3505,3.3534,3.3948,3.3596,3.3909,3.4569,3.4569,3.4569,3.4588,3.4701,3.4779,3.484,1.8831,1.9859,2.0677,2.0572,2.1096,2.135,2.0797,2.0722,2.0513,1.9929,1.975,1.969,1.969,1.969,2.0228,2.1575,2.1849,2.2445,2.3634,2.3638,2.3595,2.3595,2.3595,2.3595,2.3595,2.3595,2.3595,2.3595,2.3595,2.3595,2.3595,2.3595,2.3595,2.3595,2.3595,2.3334,2.283,2.274,2.1777,2.0201,1.9402,1.8487,1.7524,1.7382,1.7312,1.7422,1.8496,1.8893,1.8968,1.953,1.969,1.969,1.969,1.969,1.969,1.969,1.969,1.969,1.969,1.9945,2.0314,2.0862,2.1354,2.1794,2.2209,2.231,2.231,2.231,2.231,2.2377,2.2651,2.2704,2.2848,2.33,2.3414,2.3587,2.3899,2.3964,2.4042,2.4171,2.4228,2.4228,2.419,2.4228,2.4523,2.5223,2.5412,2.5873,2.6747,2.7595,2.811,2.8323,2.8323,2.8796,2.9815,2.9782,2.9748,2.9767,3.1411,3.2185,3.2223,3.2941,3.3239,3.3152,3.2865,3.2753,3.2893,3.3497,3.3817,3.3928,3.3928,3.3928,3.402,3.4703,3.5125,3.5483,1.9298,2.0073,2.0602,2.0228,2.0408,2.0513,2.0213,2.0168,2.0049,1.9735,1.969,1.969,1.969,2.0019,2.0632,2.1605,2.2024,2.2622,2.3535,2.3595,2.3595,2.3595,2.3595,2.3595,2.3595,2.3595,2.3595,2.3595,2.3595,2.3595,2.3595,2.329,2.3113,2.3098,2.2756,2.2423,2.2146,2.1785,2.103,1.9932,1.898,1.8117,1.7402,1.734,1.7105,1.6993,1.8066,1.8458,1.8535,1.9095,1.9442,1.969,1.969,1.9944,2.0168,1.9794,1.969,1.969,1.969,2.0,2.0348,2.0583,2.1102,2.1658,2.1869,2.2106,2.231,2.231,2.231,2.2485,2.301,2.2764,2.2928,2.4304,2.349,2.3155,2.4506,2.3983,2.3636,2.4153,2.419,2.4373,2.4795,2.4832,2.5181,2.5988,2.6127,2.6579,2.7493,2.7884,2.8333,2.8914,2.9042,2.9281,2.9696,2.9589,2.9776,3.0188,3.1262,3.2017,3.2441,3.3117,3.3432,3.3432,3.3316,3.3256,3.3293,3.3642,3.3807,3.3807,3.3807,3.4064,3.4504,3.4844,3.5395,3.5982,1.9501,2.0044,2.0303,1.9779,1.969,1.969,1.969,1.969,1.969,1.969,1.9824,1.9929,1.9929,2.0528,2.1201,2.1859,2.2383,2.2936,2.355,2.3595,2.3595,2.3595,2.3595,2.3595,2.3595,2.3595,2.3595,2.3595,2.3595,2.3508,2.3377,2.292,2.2603,2.2452,2.1946,2.1615,2.1472,2.0979,2.0417,1.9673,1.8748,1.8066,1.7592,1.7548,1.7157,1.687,1.7922,1.8224,1.8224,1.8855,1.9369,1.972,1.9869,2.0288,2.0617,2.0079,1.9809,1.969,1.969,1.9945,2.0227,2.0416,2.0975,2.1491,2.1718,2.2032,2.2361,2.253,2.2564,2.2784,2.3511,2.319,2.3357,2.504,0.0,2.2976,2.4914,2.3937,2.3375,2.4354,2.4483,2.4795,2.5585,2.5676,2.6007,2.6814,2.6888,2.7306,2.8251,2.8175,2.854,2.9551,2.9549,2.9626,2.9814,2.9655,2.9996,3.0794,3.1396,3.2008,3.2632,3.344,3.3807,3.3807,3.3807,3.3807,3.3807,3.3807,3.3807,3.3825,3.4009,3.4468,3.5045,3.5459,3.6009,3.6597,1.8851,1.9406,1.975,1.969,1.969,1.969,1.969,1.969,1.969,1.969,2.0243,2.0632,2.0632,2.1231,2.1889,2.2589,2.2694,2.2936,2.355,2.3595,2.3595,2.3595,2.3595,2.3595,2.3595,2.3595,2.3595,2.3595,2.3595,2.3334,2.2754,2.2694,2.2346,2.1758,2.1697,2.139,2.0845,2.0795,2.0135,1.9069,1.8982,1.8631,1.8125,1.8117,1.7821,1.746,1.8472,1.8535,1.8263,1.9281,1.969,1.9794,2.0438,2.0677,2.0707,2.0662,2.0183,1.969,1.969,1.9711,1.9945,2.0731,2.0991,2.126,2.2077,2.2282,2.2496,2.3173,2.3325,2.3528,2.4286,2.4388,2.4418,2.4718,0.0,0.0,2.4479,2.4033,2.4055,2.5179,2.5311,2.5621,2.6429,2.6521,2.6851,2.764,2.7714,2.8062,2.8893,2.8925,2.9292,3.0105,2.943,2.9393,3.0171,3.0147,3.0527,3.136,3.2137,3.2559,3.2632,3.344,3.3807,3.3807,3.3807,3.3807,3.3807,3.3807,3.3807,3.3862,3.4633,3.4935,3.5174,3.6743,3.7379,3.7514,1.8812,1.9043,1.9332,1.9639,1.969,1.969,1.969,1.969,1.9839,2.0273,2.0557,2.0872,2.1276,2.1904,2.2398,2.2694,2.3026,2.3355,2.358,2.3595,2.3595,2.3595,2.3595,2.3595,2.3595,2.3595,2.3595,2.3595,2.3595,2.3275,2.2694,2.2253,2.1724,2.1113,2.072,2.037,2.0207,2.0207,1.994,1.9484,1.9108,1.8907,1.8656,1.8325,1.7847,1.744,1.783,1.8031,1.8185,1.8574,1.9169,1.9809,2.0498,2.0991,2.1321,2.1321,2.0857,2.0228,1.9794,1.969,1.9782,2.012,2.0599,2.1103,2.1432,2.1915,2.2513,2.3241,2.3393,2.3765,2.4966,2.4797,2.4904,2.6117,0.0,2.4346,2.5694,2.4821,2.4497,2.5647,2.576,2.6176,2.7233,2.7346,2.7677,2.8484,2.8539,2.8686,2.8975,2.9475,2.9879,3.0191,3.0393,3.0632,3.0944,3.0944,3.1347,3.2155,3.2467,3.2871,3.3348,3.366,3.3807,3.3825,3.4339,3.4266,3.388,3.4908,3.5037,3.4633,3.5477,3.6119,3.6633,3.7257,3.7808,3.8285,1.8542,1.8779,1.908,1.9603,1.969,1.969,1.969,1.9869,2.0094,2.0351,2.0935,2.1406,2.1691,2.2494,2.2966,2.2966,2.3355,2.3595,2.3595,2.3595,2.3595,2.3595,2.3595,2.3595,2.3595,2.3595,2.3595,2.3595,2.3595,2.3187,2.2392,2.1899,2.1293,2.0446,2.0003,1.9798,1.9798,1.9798,1.9798,1.9773,1.9409,1.9271,1.9208,1.8668,1.8229,1.7899,1.7715,1.7873,1.8167,1.8279,1.8984,1.9923,2.0759,2.1335,2.1739,2.1934,2.1246,2.0333,2.0079,1.9854,1.9711,1.9874,2.033,2.0877,2.1246,2.1789,2.2532,2.3606,2.3838,2.4286,2.5695,2.5524,2.5618,2.6879,2.5605,2.4913,2.6328,2.5357,2.4953,2.6083,2.6321,2.6814,2.7885,2.8086,2.8521,2.9329,2.9122,2.9104,2.9365,3.0136,3.0687,3.0962,3.1494,3.1898,3.2137,3.1898,3.2173,3.2981,3.2981,3.3403,3.4192,3.4192,3.4339,3.4614,3.5183,3.511,3.4669,3.5826,3.5954,3.5495,3.634,3.7,3.7544,3.7771,3.823,3.8707,1.7987,1.8535,1.9043,1.9603,1.969,1.969,1.969,2.0273,2.0448,1.9803,2.1451,2.2443,2.1773,2.2848,2.3595,2.3595,2.3595,2.3595,2.3595,2.3595,2.3595,2.3595,2.3595,2.3595,2.3595,2.3595,2.3595,2.3595,2.361,2.2935,2.1697,2.171,2.1037,1.9798,1.9798,1.9798,1.9798,1.9798,1.9798,1.9798,1.9798,1.9798,1.9748,1.9233,1.8983,1.8918,1.839,1.8179,1.8246,1.8761,1.9339,2.0121,2.1312,2.1695,2.1829,2.2488,2.1261,1.9854,2.0528,2.0213,1.9782,2.0193,2.0314,2.0603,2.1752,2.2013,2.2549,2.4407,2.4806,2.5175,2.6472,2.6691,2.6691,2.6691,2.6082,2.572,2.6044,2.5478,2.5442,2.6566,2.6994,2.7511,2.8304,2.8749,2.9324,3.0136,2.9475,2.9384,3.0173,3.0962,3.177,3.2577,3.2614,3.2999,3.3788,3.3018,3.3018,3.3807,3.3807,3.4229,3.5009,3.5009,3.5495,3.6303,3.6303,3.6303,3.6303,3.6303,3.6321,3.6376,3.7184,3.7526,3.7617,3.8414,3.8707,3.8707,1.7422,1.7666,1.7947,1.8496,1.8574,1.8574,1.8574,1.9072,1.9542,1.9782,2.1098,2.2106,2.2377,2.3128,2.3595,2.3595,2.3595,2.3595,2.3595,2.3595,2.3595,2.3595,2.3595,2.3595,2.3595,2.3595,2.3595,2.3595,2.3201,2.2529,2.1697,2.1245,2.0633,1.9798,1.9798,1.9798,1.9798,1.9798,1.9798,1.9798,1.9798,1.9798,1.9786,1.9623,1.9108,1.8455,1.8697,1.8513,1.8336,1.9293,1.999,2.0631,2.1446,2.2009,2.2338,2.2069,2.156,2.1036,2.0782,2.0557,2.0325,1.9959,2.0441,2.1073,2.1432,2.2383,2.3504,2.459,2.5112,2.5647,2.6522,2.6691,2.6691,2.6691,2.6082,2.5827,2.6449,2.5887,2.5822,2.6991,2.721,2.7568,2.8332,2.9029,2.9635,3.0149,3.0503,3.0797,3.1017,3.1806,3.2357,3.2596,3.3146,3.3568,3.3807,3.3568,3.3862,3.4651,3.4651,3.5092,3.5917,3.5917,3.6046,3.6321,3.689,3.6817,3.6376,3.7514,3.7643,3.7202,3.8028,3.834,3.8377,3.8615,3.8707,3.8707,1.7188,1.7312,1.7463,1.8027,1.8106,1.8106,1.8106,1.8617,1.9211,1.9818,2.0996,2.1901,2.2289,2.3084,2.3508,2.3275,2.3465,2.3595,2.3595,2.3595,2.3595,2.3595,2.3595,2.3595,2.3595,2.3595,2.3465,2.3246,2.2875,2.2207,2.1342,2.0979,2.0446,1.9798,1.9798,1.9798,1.9798,1.9798,1.9798,1.9798,1.9798,1.9798,1.9798,1.9798,1.9397,1.8857,1.8982,1.8773,1.8604,1.9315,2.0255,2.1253,2.2174,2.2562,2.2694,2.2503,2.1904,2.1276,2.1141,2.0917,2.0617,2.0198,2.0373,2.0819,2.1354,2.2342,2.3503,2.47,2.5372,2.5967,2.6573,2.6691,2.6691,2.6691,2.6336,2.6184,2.664,2.6319,2.6282,2.6967,2.721,2.756,2.8139,2.9044,2.9896,3.0626,3.1715,3.221,3.188,3.2651,3.3238,3.3523,3.4027,3.4449,3.478,3.4798,3.4871,3.499,3.5367,3.5973,3.6762,3.6762,3.6945,3.7276,3.7753,3.7698,3.7312,3.8303,3.8414,3.801,3.8505,3.8707,3.8707,3.8707,3.8707,3.8707,1.7105,1.7229,1.7394,1.7867,1.7947,1.7961,1.8016,1.8618,1.9209,1.9727,2.0994,2.178,2.1688,2.2801,2.3334,2.283,2.3275,2.3595,2.3595,2.3595,2.3595,2.3595,2.3551,2.3538,2.3598,2.3538,2.3246,2.2694,2.2603,2.1941,2.0795,2.0759,2.0396,1.9798,1.9798,1.9798,1.9798,1.9798,1.9798,1.9798,1.9798,1.9798,1.9798,1.9798,1.9773,1.9673,1.9246,1.9021,1.8994,1.9165,2.035,2.1903,2.3154,2.3056,2.2637,2.331,2.2233,2.0946,2.1605,2.1335,2.0872,2.0812,2.0333,2.0198,2.1485,2.224,2.3152,2.4834,2.5652,2.6191,2.6624,2.6691,2.6708,2.6793,2.6793,2.6793,2.6793,2.6793,2.6793,2.6793,2.7122,2.7517,2.8006,2.9124,3.0313,3.1481,3.291,3.3486,3.2845,3.3486,3.4257,3.5082,3.5119,3.5514,3.6285,3.6358,3.6009,3.521,3.6028,3.6817,3.7617,3.7617,3.801,3.8707,3.8707,3.8707,3.8707,3.8707,3.8707,3.8707,3.8781,3.8817,3.8817,3.8891,3.8909,3.8909,1.6637,1.668,1.671,1.6837,1.6837,1.6991,1.7496,1.8048,1.8613,1.9131,2.0254,2.122,2.1649,2.2438,2.3009,2.3377,2.3508,2.3595,2.3595,2.3595,2.3595,2.3595,2.3143,2.3107,2.3508,2.3136,2.283,2.2694,2.1704,2.1091,2.0795,2.0245,1.9952,1.9798,1.9798,1.9798,1.9798,1.9798,1.9798,1.9798,1.9798,1.9798,1.9798,1.9798,1.9547,1.9233,1.9522,1.9371,1.9206,2.0664,2.1391,2.1831,2.2649,2.2084,2.1365,2.2532,2.2218,2.162,2.2278,2.2368,2.2128,2.1605,2.1365,2.147,2.2319,2.3599,2.47,2.5118,2.5944,2.659,2.6691,2.6691,2.6894,2.7486,2.7571,2.7571,2.7571,2.7571,2.7571,2.7571,2.764,2.8083,2.9051,3.0546,3.1841,3.2723,3.3132,3.3666,3.444,3.435,3.4823,3.5991,3.6028,3.6101,3.6303,3.6927,3.7129,3.6945,3.7147,3.7643,3.8432,3.8432,3.8542,3.8707,3.8707,3.8707,3.8707,3.8707,3.8707,3.8762,3.9386,3.9643,3.9717,4.0359,4.0598,4.0598,1.6522,1.6522,1.6522,1.6522,1.6748,1.6936,1.6974,1.7677,1.8387,1.8973,1.9839,2.077,2.1622,2.23,2.292,2.3551,2.3595,2.3595,2.3595,2.3595,2.3465,2.3187,2.2875,2.2812,2.309,2.2247,2.1938,2.218,2.1274,2.066,2.0308,1.9952,1.9798,1.9798,1.9798,1.9798,1.9798,1.9798,1.9798,1.9798,1.9798,1.9798,1.9798,1.9798,1.9635,1.9434,1.971,1.9623,1.9623,2.1172,2.169,2.1863,2.283,2.2652,2.2233,2.2921,2.2667,2.2233,2.2619,2.2724,2.2634,2.2248,2.2383,2.269,2.2991,2.3897,2.4896,2.5459,2.6175,2.681,2.7165,2.7232,2.7486,2.8247,2.8383,2.8383,2.8383,2.8383,2.8383,2.8383,2.8383,2.8815,2.9955,3.1359,3.2634,3.3689,3.4104,3.4576,3.5193,3.5278,3.5678,3.6479,3.6747,3.7055,3.7441,3.7863,3.8267,3.8634,3.8248,3.8487,3.9276,3.9276,3.9276,3.9294,3.968,3.9643,3.9294,3.9698,3.9845,3.99,4.0304,4.0469,4.0524,4.0946,4.1111,4.1111,1.6522,1.6522,1.6522,1.6522,1.6911,1.7137,1.6848,1.7601,1.8443,1.9133,1.9672,2.0385,2.1547,2.2392,2.3068,2.3551,2.3595,2.3595,2.3595,2.3508,2.3231,2.2694,2.2566,2.253,2.2551,2.1382,2.104,2.1615,2.0935,2.0346,1.9798,1.9798,1.9798,1.9798,1.9798,1.9798,1.9798,1.9798,1.9798,1.9798,1.9798,1.9798,1.9798,1.9798,1.9798,1.9798,1.9798,1.985,2.0144,2.1328,2.1688,2.1899,2.3187,2.3445,2.331,2.3535,2.3161,2.2739,2.2843,2.2832,2.2832,2.2832,2.331,2.3754,2.3742,2.4058,2.4696,2.5811,2.6516,2.7114,2.7875,2.8027,2.8264,2.9042,2.9178,2.9178,2.9178,2.9178,2.9178,2.9178,2.9397,2.9938,3.0869,3.2004,3.3156,3.4264,3.4909,3.5388,3.5696,3.6054,3.6448,3.6886,3.7348,3.7955,3.8779,3.8779,3.9232,4.0102,3.9441,3.946,4.0102,4.0102,4.0102,4.0139,4.0818,4.0726,4.0157,4.0836,4.1111,4.113,4.1258,4.1313,4.1332,4.1479,4.1515,4.1515,1.6522,1.6522,1.6522,1.6522,1.6584,1.6936,1.784,1.8103,1.8578,1.9548,1.9788,2.0293,2.1554,2.2741,2.3508,2.3595,2.3595,2.3595,2.3595,2.3098,2.2799,2.2694,2.2103,2.1967,2.2445,2.1285,2.0989,2.1615,2.0476,1.9901,1.9798,1.9798,1.9798,1.9798,1.9798,1.9798,1.9798,1.9798,1.9798,1.9798,1.9798,1.9798,1.9798,1.9798,1.9798,1.9798,1.9798,2.0144,2.0795,2.1472,2.1703,2.1916,2.3199,2.2832,2.2173,2.3281,2.3161,2.2787,2.3325,2.3475,2.3475,2.3475,2.3984,2.4581,2.5025,2.5091,2.5285,2.6069,2.7011,2.7909,2.8687,2.8822,2.9076,2.9837,2.9956,2.9956,2.9956,2.9956,2.9956,2.9956,3.1072,3.1907,3.2072,3.3171,3.3963,3.4144,3.4231,3.4937,3.6474,3.6218,3.6541,3.7713,3.7817,3.8231,3.9027,3.9027,3.9686,4.0946,4.0836,4.0836,4.0946,4.0946,4.0946,4.0946,4.1056,4.1056,4.0965,4.1075,4.1111,4.1185,4.1882,4.2139,4.2213,4.291,4.3167,4.3167,1.6522,1.6522,1.6622,1.6936,1.725,1.7626,1.8129,1.8706,1.9158,1.9346,1.9623,2.0144,2.1113,2.1993,2.2546,2.2546,2.2546,2.2546,2.2546,2.2285,2.1974,2.1657,2.1589,2.1681,2.1886,2.1407,2.1281,2.1527,2.0382,1.9798,1.9798,1.9798,1.9798,1.9798,1.9798,1.9798,1.9823,2.015,2.0288,2.0288,2.0288,2.0288,2.025,1.9924,1.9798,1.9798,1.9798,2.0003,2.0346,2.0966,2.1403,2.1886,2.2818,2.2949,2.2877,2.343,2.34,2.3251,2.3535,2.3595,2.3595,2.3595,2.4118,2.4657,2.4925,2.5701,2.6527,2.7185,2.794,2.8704,2.9465,2.96,2.9854,3.0581,3.0717,3.0717,3.0717,3.0717,3.0869,3.1275,3.2273,3.2899,3.2899,3.3768,3.4442,3.4748,3.5146,3.571,3.6491,3.6622,3.6912,3.7488,3.8222,3.888,3.9549,4.0005,4.0729,4.1772,4.1772,4.1772,4.1772,4.1772,4.1772,4.1809,4.2249,4.2194,4.1809,4.2268,4.2433,4.2488,4.2818,4.2965,4.3002,4.3369,4.3497,4.3497]},{"header":{"parameterUnit":"m.s-1","parameterCategory":1,"la1":30.6,"la2":28.766,"lo1":-90.7593,"lo2":-88.6598,"dy":0.0162,"dx":0.0183,"nx":116,"ny":114,"refTime":"2023-03-04T06:00:00:Z","depth":0,"parameterNumber":3,"parameterNumberName":"V-component_of_WINDS"},"data":[0.0,0.0,0.0,0.0,0.0,0.0,0.0,0.0,0.0,0.0,0.0,0.0,0.0,0.0,0.0,0.0,0.0,0.0,0.0,0.0,0.0,0.0,0.0,0.0,0.0,0.0,0.0,0.0,0.0,0.0,0.0,0.0,0.0,0.0,0.0,0.0,0.0,0.0,0.0,0.0,0.0,0.0,0.0,0.0,0.0,0.0,0.0,0.0,0.0,0.0,0.0,0.0,0.0,0.0,0.0,0.0,0.0,0.0,0.0,0.0,0.0,0.0,0.0,0.0,0.0,0.0,0.0,0.0,0.0,0.0,0.0,0.0,0.0,0.0,0.0,0.0,0.0,0.0,0.0,0.0,0.0,0.0,0.0,0.0,0.0,0.0,0.0,0.0,0.0,0.0,0.0,0.0,0.0,0.0,0.0,0.0,0.0,0.0,0.0,0.0,0.0,0.0,0.0,0.0,0.0,0.0,0.0,0.0,0.0,0.0,0.0,0.0,0.0,0.0,0.0,0.0,0.0,0.0,0.0,0.0,0.0,0.0,0.0,0.0,0.0,0.0,0.0,0.0,0.0,0.0,0.0,0.0,0.0,0.0,0.0,0.0,0.0,0.0,0.0,0.0,0.0,0.0,0.0,0.0,0.0,0.0,0.0,0.0,0.0,0.0,0.0,0.0,0.0,0.0,0.0,0.0,0.0,0.0,0.0,0.0,0.0,0.0,0.0,0.0,0.0,0.0,0.0,0.0,0.0,0.0,0.0,0.0,0.0,0.0,0.0,0.0,0.0,0.0,0.0,0.0,0.0,0.0,0.0,0.0,0.0,0.0,0.0,0.0,0.0,0.0,0.0,0.0,0.0,0.0,0.0,0.0,0.0,0.0,0.0,0.0,0.0,0.0,0.0,0.0,0.0,0.0,0.0,0.0,0.0,0.0,0.0,0.0,0.0,0.0,0.0,0.0,0.0,0.0,0.0,0.0,0.0,0.0,0.0,0.0,0.0,0.0,0.0,0.0,0.0,0.0,0.0,0.0,0.0,0.0,0.0,0.0,0.0,0.0,0.0,0.0,0.0,0.0,0.0,0.0,0.0,0.0,0.0,0.0,0.0,0.0,0.0,0.0,0.0,0.0,0.0,0.0,0.0,0.0,0.0,0.0,0.0,0.0,0.0,0.0,0.0,0.0,0.0,0.0,0.0,0.0,0.0,0.0,0.0,0.0,0.0,0.0,0.0,0.0,0.0,0.0,0.0,0.0,0.0,0.0,0.0,0.0,0.0,0.0,0.0,0.0,0.0,0.0,0.0,0.0,0.0,0.0,0.0,0.0,0.0,0.0,0.0,0.0,0.0,0.0,0.0,0.0,0.0,0.0,0.0,0.0,0.0,0.0,0.0,0.0,0.0,0.0,0.0,0.0,0.0,0.0,0.0,0.0,0.0,0.0,0.0,0.0,0.0,0.0,0.0,0.0,0.0,0.0,0.0,0.0,0.0,0.0,0.0,0.0,0.0,0.0,0.0,0.0,0.0,0.0,0.0,0.0,0.0,0.0,0.0,0.0,0.0,0.0,0.0,0.0,0.0,0.0,0.0,0.0,0.0,0.0,0.0,0.0,0.0,0.0,0.0,0.0,0.0,0.0,0.0,0.0,0.0,0.0,0.0,0.0,0.0,0.0,0.0,0.0,0.0,0.0,0.0,0.0,0.0,0.0,0.0,0.0,0.0,0.0,0.0,0.0,0.0,0.0,0.0,0.0,0.0,0.0,0.0,0.0,0.0,0.0,0.0,0.0,0.0,0.0,0.0,0.0,0.0,0.0,0.0,0.0,0.0,0.0,0.0,0.0,0.0,0.0,0.0,0.0,0.0,0.0,0.0,0.0,0.0,0.0,0.0,0.0,0.0,0.0,0.0,0.0,0.0,0.0,0.0,0.0,0.0,0.0,0.0,0.0,0.0,0.0,0.0,0.0,0.0,0.0,0.0,0.0,0.0,0.0,0.0,0.0,0.0,0.0,0.0,0.0,0.0,0.0,0.0,0.0,0.0,0.0,0.0,0.0,0.0,0.0,0.0,0.0,0.0,0.0,0.0,0.0,0.0,0.0,0.0,0.0,0.0,0.0,0.0,0.0,0.0,0.0,0.0,0.0,0.0,0.0,0.0,0.0,0.0,0.0,0.0,0.0,0.0,0.0,0.0,0.0,0.0,0.0,0.0,0.0,0.0,0.0,0.0,0.0,0.0,0.0,0.0,0.0,0.0,0.0,0.0,0.0,0.0,0.0,0.0,0.0,0.0,0.0,0.0,0.0,0.0,0.0,0.0,0.0,0.0,0.0,0.0,0.0,0.0,0.0,0.0,0.0,0.0,0.0,0.0,0.0,0.0,0.0,0.0,0.0,0.0,0.0,0.0,0.0,0.0,0.0,0.0,0.0,0.0,0.0,0.0,0.0,0.0,0.0,0.0,0.0,0.0,0.0,0.0,0.0,0.0,0.0,0.0,0.0,0.0,0.0,0.0,0.0,0.0,0.0,0.0,0.0,0.0,0.0,0.0,0.0,0.0,0.0,0.0,0.0,0.0,0.0,0.0,0.0,0.0,0.0,0.0,0.0,0.0,0.0,0.0,0.0,0.0,0.0,0.0,0.0,0.0,0.0,0.0,0.0,0.0,0.0,0.0,0.0,0.0,0.0,0.0,0.0,0.0,0.0,0.0,0.0,0.0,0.0,0.0,0.0,0.0,0.0,0.0,0.0,0.0,0.0,0.0,0.0,0.0,0.0,0.0,0.0,0.0,0.0,0.0,0.0,0.0,0.0,0.0,0.0,0.0,0.0,0.0,0.0,0.0,0.0,0.0,0.0,0.0,0.0,0.0,0.0,0.0,0.0,0.0,0.0,0.0,0.0,0.0,0.0,0.0,0.0,0.0,0.0,0.0,0.0,0.0,0.0,0.0,0.0,0.0,0.0,0.0,0.0,0.0,0.0,0.0,0.0,0.0,0.0,0.0,0.0,0.0,0.0,0.0,0.0,0.0,0.0,0.0,0.0,0.0,0.0,0.0,0.0,0.0,0.0,0.0,0.0,0.0,0.0,0.0,0.0,0.0,0.0,0.0,0.0,0.0,0.0,0.0,0.0,0.0,0.0,0.0,0.0,0.0,0.0,0.0,0.0,0.0,0.0,0.0,0.0,0.0,0.0,0.0,0.0,0.0,0.0,0.0,0.0,0.0,0.0,0.0,0.0,0.0,0.0,0.0,0.0,0.0,0.0,0.0,0.0,0.0,0.0,0.0,0.0,0.0,0.0,0.0,0.0,0.0,0.0,0.0,0.0,0.0,0.0,0.0,0.0,0.0,0.0,0.0,0.0,0.0,0.0,0.0,0.0,0.0,0.0,0.0,0.0,0.0,0.0,0.0,0.0,0.0,0.0,0.0,0.0,0.0,0.0,0.0,0.0,0.0,0.0,0.0,0.0,0.0,0.0,0.0,0.0,0.0,0.0,0.0,0.0,0.0,0.0,0.0,0.0,0.0,0.0,0.0,0.0,0.0,0.0,0.0,0.0,0.0,0.0,0.0,0.0,0.0,0.0,0.0,0.0,0.0,0.0,0.0,0.0,0.0,0.0,0.0,0.0,0.0,0.0,0.0,0.0,0.0,0.0,0.0,0.0,0.0,0.0,0.0,0.0,0.0,0.0,0.0,0.0,0.0,0.0,0.0,0.0,0.0,0.0,0.0,0.0,0.0,0.0,0.0,0.0,0.0,0.0,0.0,0.0,0.0,0.0,0.0,0.0,0.0,0.0,0.0,0.0,0.0,0.0,0.0,0.0,0.0,0.0,0.0,0.0,0.0,0.0,0.0,0.0,0.0,0.0,0.0,0.0,0.0,0.0,0.0,0.0,0.0,0.0,0.0,0.0,0.0,0.0,0.0,0.0,0.0,0.0,0.0,0.0,0.0,0.0,0.0,0.0,0.0,0.0,0.0,0.0,0.0,0.0,0.0,0.0,0.0,0.0,0.0,0.0,0.0,0.0,0.0,0.0,0.0,0.0,0.0,0.0,0.0,0.0,0.0,0.0,0.0,0.0,0.0,0.0,0.0,0.0,0.0,0.0,0.0,0.0,0.0,0.0,0.0,0.0,0.0,0.0,0.0,0.0,0.0,0.0,0.0,0.0,0.0,0.0,0.0,0.0,0.0,0.0,0.0,0.0,0.0,0.0,0.0,0.0,0.0,0.0,0.0,0.0,0.0,0.0,0.0,0.0,0.0,0.0,0.0,0.0,0.0,0.0,0.0,0.0,0.0,0.0,0.0,0.0,0.0,0.0,0.0,0.0,0.0,0.0,0.0,0.0,0.0,0.0,0.0,0.0,0.0,0.0,0.0,0.0,0.0,0.0,0.0,0.0,0.0,0.0,0.0,0.0,0.0,0.0,0.0,0.0,0.0,0.0,0.0,0.0,0.0,0.0,0.0,0.0,0.0,0.0,0.0,0.0,0.0,0.0,0.0,0.0,0.0,0.0,0.0,0.0,0.0,0.0,0.0,0.0,0.0,0.0,0.0,0.0,0.0,0.0,0.0,0.0,0.0,0.0,0.0,0.0,0.0,0.0,0.0,0.0,0.0,0.0,0.0,0.0,0.0,0.0,0.0,0.0,0.0,0.0,0.0,0.0,0.0,0.0,0.0,0.0,0.0,0.0,0.0,0.0,0.0,0.0,0.0,0.0,0.0,0.0,0.0,0.0,0.0,0.0,0.0,0.0,0.0,0.0,0.0,0.0,0.0,0.0,0.0,0.0,0.0,0.0,0.0,0.0,0.0,0.0,0.0,0.0,0.0,0.0,0.0,0.0,0.0,0.0,0.0,0.0,0.0,0.0,0.0,0.0,0.0,0.0,0.0,0.0,0.0,0.0,0.0,0.0,0.0,0.0,0.0,0.0,0.0,0.0,0.0,0.0,0.0,0.0,0.0,0.0,0.0,0.0,0.0,0.0,0.0,0.0,0.0,0.0,0.0,0.0,0.0,0.0,0.0,0.0,0.0,0.0,0.0,0.0,0.0,0.0,0.0,0.0,0.0,0.0,0.0,0.0,0.0,0.0,0.0,0.0,0.0,0.0,0.0,0.0,0.0,0.0,0.0,0.0,0.0,0.0,0.0,0.0,0.0,0.0,0.0,0.0,0.0,0.0,0.0,0.0,0.0,0.0,0.0,0.0,0.0,0.0,0.0,0.0,0.0,0.0,0.0,0.0,0.0,0.0,0.0,0.0,0.0,0.0,0.0,0.0,0.0,0.0,0.0,0.0,0.0,0.0,0.0,0.0,0.0,0.0,0.0,0.0,0.0,0.0,0.0,0.0,0.0,0.0,0.0,0.0,0.0,0.0,0.0,0.0,0.0,0.0,0.0,0.0,0.0,0.0,0.0,0.0,0.0,0.0,0.0,0.0,0.0,0.0,0.0,0.0,0.0,0.0,0.0,0.0,0.0,0.0,0.0,0.0,0.0,0.0,0.0,0.0,0.0,0.0,0.0,0.0,0.0,0.0,0.0,0.0,0.0,0.0,0.0,0.0,0.0,0.0,0.0,0.0,0.0,0.0,0.0,0.0,0.0,0.0,0.0,0.0,0.0,0.0,0.0,0.0,0.0,0.0,0.0,0.0,0.0,0.0,0.0,0.0,0.0,0.0,0.0,0.0,0.0,0.0,0.0,0.0,0.0,0.0,0.0,0.0,0.0,0.0,0.0,0.0,0.0,0.0,0.0,0.0,0.0,0.0,0.0,0.0,0.0,0.0,0.0,0.0,0.0,0.0,0.0,0.0,0.0,0.0,0.0,0.0,0.0,0.0,0.0,0.0,0.0,0.0,0.0,0.0,0.0,0.0,0.0,0.0,0.0,0.0,0.0,0.0,0.0,0.0,0.0,0.0,0.0,0.0,0.0,0.0,0.0,0.0,0.0,0.0,0.0,0.0,0.0,0.0,0.0,0.0,0.0,0.0,0.0,0.0,0.0,0.0,0.0,0.0,0.0,0.0,0.0,0.0,0.0,0.0,0.0,0.0,0.0,0.0,0.0,0.0,0.0,0.0,0.0,0.0,0.0,0.0,0.0,0.0,0.0,0.0,0.0,0.0,0.0,0.0,1.0408,1.0584,0.0,0.0,0.0,0.0,0.0,0.0,0.0,0.0,0.0,0.0,0.0,0.0,0.0,0.0,0.0,0.0,0.0,0.0,0.0,0.0,0.0,0.0,0.0,0.0,0.0,0.0,0.0,0.0,0.0,0.0,0.0,0.0,0.0,0.0,0.0,0.0,0.0,0.0,0.0,0.0,0.0,0.0,0.0,0.0,0.0,0.0,0.0,0.0,0.0,0.0,0.0,0.0,0.0,0.0,0.0,0.0,0.0,0.0,0.0,0.0,0.0,0.0,0.0,0.0,0.0,0.0,0.0,0.0,0.0,0.0,0.0,0.0,0.0,0.0,0.0,0.0,0.0,0.0,0.0,0.0,0.0,0.0,0.0,0.0,0.0,0.0,0.0,0.0,0.0,0.0,0.0,0.0,0.0,0.0,0.0,0.0,0.0,0.0,0.0,0.0,0.0,0.0,0.0,0.0,0.0,0.0,0.0,0.0,0.0,0.0,0.0,0.0,0.0,0.0,1.0882,1.0688,0.0,0.0,0.0,0.0,0.0,0.0,0.0,0.0,0.0,0.0,0.0,0.0,0.0,0.0,0.0,0.0,0.0,0.0,0.0,0.0,0.0,0.0,0.0,0.0,0.0,0.0,0.0,0.0,0.0,0.0,0.0,0.0,0.0,0.0,0.0,0.0,0.0,0.0,0.0,0.0,0.0,0.0,0.0,0.0,0.0,0.0,0.0,0.0,0.0,0.0,0.0,0.0,0.0,0.0,0.0,0.0,0.0,0.0,0.0,0.0,0.0,0.0,0.0,0.0,0.0,0.0,0.0,0.0,0.0,0.0,0.0,0.0,0.0,0.0,0.0,0.0,0.0,0.0,0.0,0.0,0.0,0.0,0.0,0.0,0.0,0.0,0.0,0.0,0.0,0.0,0.0,0.0,0.0,0.0,0.0,0.0,0.0,0.0,0.0,0.0,0.0,0.0,0.0,0.0,0.0,0.0,0.0,0.0,1.171,1.1991,1.2452,1.2211,1.2258,1.2492,1.1717,1.1156,1.0866,1.0989,0.0,0.0,0.0,0.0,0.0,0.0,0.0,0.0,0.0,0.0,0.0,0.0,0.0,0.0,0.0,0.0,0.0,0.0,0.0,0.0,0.0,0.0,0.0,0.0,0.0,0.0,0.0,0.0,0.0,0.0,0.0,0.0,0.0,0.0,0.0,0.0,0.0,0.0,1.7144,1.7546,1.8015,1.8387,1.6496,0.0,0.0,0.0,0.0,0.0,0.0,0.0,0.0,0.0,0.0,0.0,0.0,0.0,0.0,0.0,0.0,0.0,0.0,0.0,0.0,0.0,0.0,0.0,0.0,0.0,0.0,0.0,0.0,0.0,0.0,0.0,0.0,0.0,0.0,0.0,0.0,0.0,0.0,0.0,0.0,0.0,0.0,0.0,1.0852,1.0289,0.0,0.0,0.0,0.0,0.0,0.0,0.0,0.0,0.0,0.0,0.0,0.0,0.0,1.1436,1.1697,1.2318,1.2607,1.2647,1.2846,1.3019,1.3093,1.3053,1.3193,1.3447,1.308,0.0,1.1683,1.1463,0.0,0.0,0.0,0.0,0.0,0.0,0.0,0.0,0.0,0.0,0.0,0.0,0.0,0.0,0.0,0.0,0.0,0.0,0.0,0.0,0.0,0.0,0.0,0.0,0.0,0.0,0.0,0.0,0.0,0.0,0.0,0.0,0.0,0.0,0.0,0.0,1.6693,1.7567,1.8061,1.8497,1.8862,1.9014,1.781,1.782,1.8695,1.696,0.0,0.0,0.0,0.0,0.0,0.0,0.0,0.0,0.0,0.0,0.0,0.0,0.0,0.0,0.0,0.0,0.0,0.0,0.0,0.0,0.0,0.0,0.0,0.0,0.0,0.0,0.0,0.0,0.0,0.0,0.0,0.0,0.0,0.0,0.0,0.0,0.0,0.0,0.0,1.1466,1.1095,1.1157,1.1553,1.1774,0.0,0.0,0.0,0.0,0.0,0.0,0.0,0.0,0.0,1.2225,1.2191,1.2318,1.2619,1.3039,1.3333,1.35,1.3801,1.4035,1.4195,1.4195,1.4269,1.4369,1.4075,1.3721,1.3287,1.2318,1.165,1.1249,0.0,0.0,0.0,0.0,1.1403,1.1352,0.0,0.0,0.0,0.0,0.0,0.0,0.0,0.0,0.0,0.0,0.0,0.0,0.0,0.0,0.0,1.5365,0.0,0.0,0.0,0.0,0.0,0.0,0.0,0.0,0.0,0.0,0.0,0.0,1.8278,1.9103,1.9316,1.9853,2.0107,2.0098,1.9775,1.9443,1.9114,1.7606,1.7067,0.0,0.0,0.0,0.0,0.0,0.0,0.0,0.0,0.0,0.0,0.0,0.0,0.0,0.0,0.0,0.0,0.0,0.0,0.0,0.0,0.0,0.0,0.0,0.0,0.0,0.0,0.0,0.0,0.0,0.0,0.0,0.0,0.0,0.0,0.0,0.0,0.0,0.0,1.1669,1.1508,1.1988,1.1977,1.2009,0.0,0.0,0.0,0.0,0.0,0.0,1.2198,1.2418,1.2779,1.3307,1.3173,1.324,1.354,1.3908,1.4202,1.4429,1.4716,1.497,1.5184,1.5184,1.5184,1.517,1.5212,1.4953,1.4529,1.3193,1.2385,1.1984,1.1911,1.1931,1.2017,1.2238,1.2371,1.2472,0.0,0.0,0.0,0.0,0.0,0.0,0.0,0.0,0.0,0.0,0.0,0.0,0.0,0.0,1.6378,1.7084,1.7238,1.7069,0.0,0.0,0.0,0.0,0.0,0.0,0.0,0.0,0.0,1.9101,1.9594,2.0264,2.1123,2.1963,2.2353,2.2353,2.2324,2.1679,2.0575,1.8338,1.7947,1.8699,0.0,0.0,0.0,0.0,0.0,0.0,0.0,0.0,0.0,0.0,0.0,0.0,0.0,0.0,0.0,0.0,0.0,0.0,0.0,0.0,0.0,0.0,0.0,0.0,0.0,0.0,0.0,0.0,0.0,0.0,0.0,0.0,0.0,0.0,0.0,0.0,0.0,0.0,0.0,1.2143,1.2446,0.0,0.0,0.0,0.0,1.2284,1.2512,1.2819,1.3126,1.316,1.3307,1.3614,1.3881,1.4162,1.4449,1.5023,1.5317,1.5337,1.5625,1.5772,1.5785,1.5785,1.5785,1.5765,1.6718,1.6242,1.487,1.3955,1.3561,1.3426,1.3227,1.3287,1.3453,1.3547,1.3734,1.3975,0.0,0.0,0.0,0.0,0.0,0.0,0.0,0.0,0.0,0.0,0.0,0.0,0.0,1.8009,1.888,1.9093,1.9651,1.9621,1.8849,0.0,0.0,0.0,0.0,0.0,0.0,0.0,1.8841,2.0108,2.083,2.1621,2.2471,2.2773,2.292,2.292,2.292,2.2506,2.1759,1.9568,1.866,1.8585,1.6647,1.6243,0.0,0.0,0.0,0.0,0.0,0.0,0.0,0.0,0.0,0.0,0.0,0.0,0.0,0.0,0.0,0.0,0.0,0.0,0.0,0.0,0.0,0.0,0.0,0.0,0.0,0.0,0.0,0.0,0.0,0.0,0.0,0.0,0.0,0.0,0.0,0.0,0.0,1.3119,1.3564,0.0,1.3329,1.34,1.3293,1.2879,1.316,1.3454,1.3761,1.467,1.5092,1.4756,1.6425,1.664,1.5357,1.6394,1.6507,1.5678,1.5972,1.6012,1.5838,1.6873,1.7224,1.7124,1.8171,1.7972,1.6663,1.6102,1.5098,1.3915,1.3814,1.3841,1.3948,1.4135,1.4275,1.4396,0.0,0.0,0.0,0.0,0.0,0.0,0.0,0.0,0.0,0.0,0.0,1.6716,1.7716,1.9265,2.0443,2.1073,2.1008,2.0602,2.0037,0.0,0.0,0.0,0.0,0.0,0.0,1.8871,1.9919,2.1016,2.1885,2.2598,2.3135,2.3135,2.3135,2.3135,2.3135,2.2988,2.2617,2.1045,1.992,1.8973,1.7223,1.703,1.7647,0.0,0.0,0.0,0.0,0.0,0.0,0.0,0.0,0.0,0.0,0.0,0.0,0.0,0.0,0.0,0.0,0.0,0.0,0.0,0.0,0.0,0.0,0.0,0.0,0.0,0.0,0.0,0.0,0.0,0.0,0.0,0.0,0.0,0.0,1.3005,1.3307,1.4141,1.4302,1.4225,1.4151,1.3884,1.37,1.35,1.3868,1.4379,1.5095,1.5732,1.6357,1.6791,1.8086,1.8072,1.6626,1.804,1.81,1.6786,1.6988,1.6981,1.6786,1.727,1.7397,1.729,1.8365,1.8226,1.7117,1.7246,1.6339,1.4656,1.4456,1.4502,1.4683,1.4776,1.4877,1.499,0.0,0.0,0.0,0.0,0.0,0.0,0.0,0.0,0.0,0.0,1.5397,1.6749,1.8681,1.9717,2.1025,2.3001,2.1201,1.9975,1.9941,1.7598,0.0,0.0,0.0,0.0,1.8076,1.9816,2.1124,2.2026,2.284,2.3154,2.3154,2.3144,2.3144,2.3154,2.3154,2.3164,2.3154,2.2744,2.1602,1.9932,1.9073,1.8694,1.8536,0.0,0.0,0.0,0.0,0.0,0.0,0.0,0.0,0.0,0.0,0.0,0.0,0.0,0.0,0.0,0.0,0.0,0.0,0.0,0.0,0.0,0.0,0.0,0.0,0.0,0.0,0.0,0.0,0.0,0.0,0.0,0.0,0.0,1.2788,1.3431,1.4273,1.516,1.4608,1.4357,1.4607,1.4104,1.3828,1.4193,1.4751,1.5729,1.7161,1.6406,1.7037,1.9422,1.8848,1.8369,1.8185,1.9926,2.0087,1.8746,1.8656,1.8656,1.8543,1.7093,1.639,1.6461,1.7377,1.7052,1.5933,1.7225,1.6943,1.5772,1.5211,1.5337,1.5798,1.5511,1.5585,1.5832,0.0,0.0,0.0,0.0,0.0,0.0,0.0,0.0,0.0,0.0,1.6225,1.7864,1.9179,2.2026,2.3956,2.4307,2.3059,2.1884,2.1104,0.0,0.0,0.0,0.0,0.0,2.0259,2.1951,2.3431,2.4581,2.483,2.4943,2.4856,2.37,2.331,2.3613,2.3613,2.3779,2.4062,2.3945,2.3613,2.2949,2.0554,1.9568,1.9494,0.0,0.0,0.0,0.0,0.0,0.0,0.0,0.0,0.0,0.0,0.0,0.0,0.0,0.0,0.0,0.0,0.0,0.0,0.0,0.0,0.0,0.0,0.0,0.0,0.0,0.0,0.0,0.0,0.0,0.0,0.0,1.2786,1.2954,1.3236,1.3874,1.4845,1.6242,1.6536,1.7011,1.7802,1.7039,1.6504,1.6337,1.6723,1.7091,1.7535,1.9333,2.0172,1.9969,2.1742,2.1852,2.0038,2.0424,1.999,1.8648,1.801,1.7507,1.7292,1.8988,1.9026,1.8018,1.9964,1.9528,1.7449,1.7601,1.6943,1.5812,1.5651,1.5691,1.5818,1.5738,1.5758,1.5832,0.0,0.0,0.0,0.0,0.0,0.0,0.0,0.0,0.0,0.0,1.6782,1.8691,1.984,2.2605,2.4381,2.4461,2.2997,2.1719,2.084,0.0,0.0,0.0,0.0,1.9495,2.1946,2.3499,2.4997,2.6639,2.6639,2.6639,2.6628,2.5161,2.4583,2.4836,2.4315,2.4189,2.4414,2.4414,2.4521,2.4541,2.2773,2.1873,2.1401,1.9707,1.9453,1.9838,1.835,1.835,1.8785,1.6732,0.0,0.0,0.0,0.0,0.0,0.0,0.0,0.0,0.0,0.0,0.0,0.0,0.0,0.0,0.0,0.0,0.0,0.0,0.0,0.0,0.0,0.0,0.0,0.0,1.3473,1.4079,1.5027,1.534,1.5934,1.7228,1.8072,1.8748,1.9414,1.9052,1.8621,1.8409,1.8589,1.9058,1.967,2.067,2.1424,2.1853,2.3214,2.3238,2.1769,2.2426,2.2108,2.0736,1.9651,1.8934,1.8858,1.9205,1.8755,1.786,1.9065,1.865,1.7106,1.6928,1.648,1.5832,0.0,0.0,0.0,0.0,1.5832,1.5832,0.0,0.0,0.0,0.0,0.0,0.0,0.0,0.0,0.0,0.0,0.0,1.9107,2.0181,2.2037,2.3301,2.3516,2.1656,2.0198,0.0,0.0,0.0,1.7357,1.9332,2.1343,2.3264,2.477,2.6494,2.8377,2.8377,2.84,2.8457,2.7017,2.6346,2.6504,2.5115,2.4619,2.4707,2.4707,2.4932,2.5283,2.5234,2.4668,2.3693,2.178,2.1467,2.1899,2.0632,2.002,1.9555,1.8249,0.0,0.0,0.0,0.0,0.0,0.0,0.0,0.0,0.0,0.0,0.0,0.0,0.0,0.0,0.0,0.0,0.0,0.0,0.0,0.0,0.0,0.0,0.0,0.0,1.4446,1.5666,1.7295,1.7356,1.7583,1.8681,1.9447,2.0012,2.0526,2.0424,2.0305,2.0305,2.0264,2.0874,2.242,2.1284,0.0,0.0,0.0,2.3468,2.3353,2.4733,2.4913,2.3692,2.2357,2.1651,2.133,1.8826,1.7354,1.6787,1.6691,1.6413,1.5972,1.5945,1.5912,1.5879,1.5845,1.5832,1.5832,1.5832,1.5832,1.5832,0.0,0.0,0.0,0.0,0.0,0.0,0.0,0.0,0.0,1.4312,1.6362,1.8037,1.8514,2.0925,2.1965,2.074,1.9836,1.888,0.0,0.0,1.9765,1.9341,2.2067,2.3963,2.4628,2.7436,2.9253,3.0135,3.0135,3.0347,3.0738,2.7677,2.6873,2.7947,2.6194,2.5869,2.6514,2.6514,2.6562,2.6611,2.6269,2.5391,2.4238,2.382,2.3408,2.2827,2.1883,2.202,2.2241,2.018,1.984,2.0019,1.8081,0.0,0.0,0.0,0.0,0.0,0.0,0.0,0.0,0.0,0.0,0.0,0.0,0.0,0.0,0.0,0.0,0.0,0.0,0.0,0.0,1.4657,1.5076,1.603,1.8149,1.9256,2.0326,2.1604,2.1946,2.2396,2.3521,2.2382,2.1639,2.1639,2.1327,2.1409,2.2115,2.3019,2.4009,2.4932,2.5179,2.5208,2.5208,2.4464,2.3989,2.3692,2.2357,0.0,2.0033,2.057,1.9588,1.7499,1.8304,1.8038,1.6874,1.6633,1.64,1.6166,1.5925,1.5832,1.5832,1.5832,1.5832,1.5832,0.0,0.0,0.0,0.0,0.0,0.0,0.0,0.0,0.0,0.0,1.6061,1.7443,1.7713,1.9731,2.0388,1.8731,1.7945,0.0,0.0,1.9568,2.1074,2.1748,2.4227,2.6289,2.7793,2.9617,3.117,3.2251,3.2521,3.2791,3.3036,3.0649,2.9613,2.9558,2.8084,2.7312,2.7344,2.7344,2.7588,2.7949,2.7734,2.7139,2.624,2.5156,2.4482,2.4004,2.3144,2.2994,2.3043,2.1409,2.0968,2.0781,1.9193,1.8011,1.7079,0.0,0.0,0.0,0.0,0.0,0.0,0.0,0.0,0.0,0.0,0.0,0.0,0.0,0.0,1.3531,1.3579,0.0,1.4986,1.6255,1.6987,1.8141,2.0679,2.1693,2.2329,2.2931,2.3307,2.3832,2.4623,2.3973,2.357,2.357,2.3362,2.3428,2.3871,2.4455,2.4941,2.5391,2.5625,2.5742,2.5742,2.502,2.4716,2.4707,2.2667,2.1347,2.0641,1.9922,1.8822,1.7459,1.8016,1.7761,1.6907,1.6607,1.6319,1.6039,1.5885,1.5832,1.5832,1.5832,1.5832,1.5832,0.0,0.0,0.0,0.0,0.0,0.0,0.0,0.0,0.0,0.0,0.0,1.6564,1.6766,1.8059,1.8334,0.0,0.0,0.0,0.0,2.061,2.2655,2.4233,2.6389,2.85,3.0668,3.1384,3.247,3.406,3.4512,3.4776,3.4785,3.3526,3.2488,3.1689,3.0033,2.8931,2.844,2.8133,2.8428,2.9043,2.9043,2.8789,2.8213,2.6387,2.5537,2.5225,2.4443,2.3672,2.2939,2.2432,2.1807,2.1016,2.0073,1.9468,1.8893,1.7191,1.5714,0.0,0.0,0.0,0.0,0.0,0.0,0.0,0.0,1.3593,1.3844,1.3366,1.3804,1.4266,1.4447,1.5172,1.6239,1.7849,1.8724,2.0161,2.301,2.3592,2.3673,2.3763,2.4297,2.4814,2.5166,2.5117,2.5068,2.5068,2.499,2.5137,2.5586,2.5264,2.5273,2.5723,2.5742,2.5742,2.5742,2.5742,2.5742,2.5635,2.3484,2.2156,2.1643,1.9413,1.7963,1.7235,1.7235,1.7101,1.6854,1.6567,1.6266,1.5992,1.5939,1.5879,1.5832,1.5832,1.5832,1.5832,0.0,0.0,0.0,0.0,0.0,0.0,0.0,0.0,0.0,0.0,0.0,0.0,0.0,0.0,0.0,0.0,0.0,0.0,1.9356,2.278,2.523,2.6214,2.9256,3.0964,3.1304,3.2401,3.3496,3.4625,3.4688,3.4964,3.5349,3.3708,3.3541,3.4627,3.1553,3.0548,3.1266,2.9888,2.9414,2.9502,2.9502,2.9238,2.8779,2.8164,2.7226,2.6182,2.5693,2.4248,2.2685,2.335,2.2529,2.1338,2.1904,2.1431,2.0356,1.8994,1.7004,1.5081,1.4569,1.3244,1.2036,1.1959,1.1956,1.2188,0.0,1.3307,1.3521,1.3566,1.4074,1.4595,1.4838,1.5409,1.6477,1.8728,1.9175,2.024,2.3269,2.3656,2.4088,2.5266,2.5518,2.5615,2.5664,2.5303,2.5068,2.5068,2.4707,2.4678,2.5117,2.5098,2.5273,2.5723,2.5742,2.5742,2.5742,2.5742,2.5742,2.5742,2.543,2.3989,2.1643,2.1347,1.9907,1.7535,1.7535,1.7515,1.7462,1.7168,1.6874,1.658,1.6319,1.6059,1.5832,1.5832,1.5832,1.5832,0.0,0.0,0.0,0.0,0.0,0.0,0.0,0.0,0.0,0.0,0.0,0.0,0.0,0.0,0.0,0.0,0.0,0.0,1.9576,2.3162,2.5883,2.7381,3.0325,3.2222,3.2882,3.3594,3.4412,3.5203,3.5516,3.5793,3.6019,3.561,3.5308,3.5123,3.3149,3.2223,3.2091,3.0588,3.0088,3.0342,3.0342,2.9922,2.9219,2.8545,2.7068,2.5179,2.4742,2.3662,0.0,0.0,2.163,2.1302,2.174,2.1316,2.0573,1.9891,1.8127,1.6033,1.4082,1.2959,1.2375,1.2292,1.2811,1.3411,1.3787,1.4198,1.449,1.446,1.4877,1.564,1.6672,1.7433,1.8565,2.1147,2.1702,2.2494,2.459,2.4695,2.4736,2.5246,2.5127,2.5166,2.5684,2.5332,2.5176,2.5439,2.5283,2.5264,2.5449,2.5459,2.5547,2.5732,2.5742,2.5859,2.6113,2.5859,2.5869,2.6113,2.5036,2.3583,2.1643,2.0837,1.942,1.7582,1.7582,1.7482,1.7321,1.7201,1.6974,1.6693,1.6573,1.6446,1.6319,1.6152,1.5979,1.5852,0.0,0.0,0.0,0.0,0.0,0.0,0.0,0.0,0.0,0.0,0.0,0.0,0.0,0.0,0.0,0.0,0.0,0.0,0.0,2.3156,2.6039,2.8231,3.0807,3.2742,3.3872,3.4449,3.5064,3.5768,3.6169,3.6358,3.637,3.6923,3.675,3.5873,3.452,3.3636,3.3119,3.1151,3.0508,3.0703,3.0703,3.0029,2.8926,2.8032,2.6051,2.3804,2.3493,2.2493,0.0,0.0,2.0154,2.0277,2.0841,2.0761,2.0398,2.0074,1.8564,1.6465,1.4021,1.3148,1.294,1.2963,1.3591,1.4321,1.4566,1.4972,1.5432,1.5722,1.6088,1.6848,1.8476,1.9128,2.0205,2.277,2.334,2.3969,2.5518,2.5352,2.5068,2.5068,2.458,2.4541,2.5303,2.5078,2.5127,2.5693,2.5625,2.5605,2.5732,2.5742,2.5742,2.5742,2.5742,2.5947,2.6387,2.5957,2.5957,2.6387,2.4914,2.3384,2.1651,1.9826,1.8506,1.7582,1.7582,1.7462,1.7268,1.7268,1.7094,1.6827,1.6827,1.678,1.6693,1.656,1.6273,1.5972,0.0,0.0,0.0,0.0,0.0,0.0,0.0,0.0,0.0,0.0,0.0,0.0,0.0,0.0,0.0,0.0,0.0,0.0,0.0,2.2992,2.6021,2.875,3.0979,3.2742,3.3872,3.4449,3.5253,3.6332,3.6358,3.6358,3.637,3.6923,3.7462,3.7792,3.5457,3.4687,3.5057,3.2082,3.0615,3.0215,3.0215,2.9209,2.7633,2.648,2.4593,2.2471,2.2461,0.0,0.0,0.0,1.8311,1.7643,1.9385,2.0041,2.0096,1.9594,1.7841,1.5877,1.4739,1.4042,1.3674,1.3765,1.3933,1.43,1.4878,1.5241,1.58,1.7316,1.7677,1.8062,1.9593,1.9854,2.0573,2.2672,2.3009,2.3648,2.547,2.5352,2.5068,2.5068,2.4326,2.3975,2.4414,2.4443,2.4795,2.5674,2.5332,2.5283,2.5713,2.5742,2.5742,2.5742,2.5742,2.5947,2.6387,2.5957,2.5957,2.6387,2.5849,2.4304,2.1651,1.8909,1.7687,1.7582,1.7582,1.7582,1.7569,1.7569,1.7402,1.7134,1.7134,1.6961,1.674,1.7021,1.6754,1.6219,0.0,0.0,0.0,0.0,0.0,0.0,0.0,0.0,0.0,0.0,0.0,0.0,0.0,0.0,0.0,0.0,0.0,0.0,0.0,2.1241,2.4017,2.6118,2.9006,3.1122,3.2215,3.3156,3.3985,3.4726,3.509,3.5466,3.583,3.6383,3.6935,3.739,3.5943,3.5003,3.4207,3.2164,3.045,2.8935,2.8935,2.8133,2.6623,2.5149,2.3124,2.0941,0.0,0.0,0.0,0.0,0.0,1.7309,1.8013,1.8447,1.8594,1.7898,1.6958,1.5875,1.4663,1.4521,1.4618,1.4585,1.5046,1.5912,1.7151,1.7355,1.7588,1.8996,1.8999,1.9231,2.0696,2.1105,2.1826,2.3707,2.4285,2.4727,2.5577,2.5352,2.4961,2.4668,2.4131,2.3848,2.3984,2.4004,2.4355,2.5225,2.5156,2.5264,2.5713,2.5742,2.5742,2.5742,2.5742,2.6084,2.6797,2.6094,2.6094,2.6797,2.5145,2.3384,2.1651,1.9723,1.8401,1.7582,1.7582,1.7582,1.7582,1.7582,1.7522,1.7442,1.7442,1.7375,1.7275,1.7181,1.7027,1.6814,0.0,0.0,0.0,0.0,0.0,0.0,0.0,0.0,0.0,0.0,0.0,0.0,0.0,0.0,0.0,0.0,0.0,1.4785,0.0,0.0,2.1555,2.2995,2.5797,2.7835,2.9071,3.0012,3.0966,3.1932,3.2528,3.3101,3.3669,3.474,3.5378,3.5742,3.4981,3.4182,3.3242,3.1553,2.9674,2.7798,2.7364,2.6249,2.4472,2.2793,2.0966,0.0,0.0,0.0,0.0,0.0,0.0,1.6513,1.6755,1.7144,1.7512,1.7711,1.7326,1.6811,1.6632,1.6693,1.6854,1.7078,1.7494,1.8163,1.902,1.8969,1.9122,2.0154,1.9937,2.0,2.1221,2.1444,2.1916,2.3401,2.3841,2.4238,2.5137,2.4756,2.4258,2.3946,2.3857,2.3667,2.3338,2.3596,2.4141,2.5,2.5068,2.5264,2.5713,2.5742,2.5742,2.5742,2.5742,2.6074,2.6787,2.625,2.625,2.6777,2.4727,2.3276,2.2366,2.0444,1.9117,1.8297,1.7786,1.7582,1.7582,1.7582,1.7582,1.7582,1.7582,1.7582,1.7562,1.7375,1.7301,1.7235,0.0,0.0,0.0,0.0,0.0,0.0,0.0,0.0,0.0,0.0,0.0,0.0,0.0,0.0,0.0,0.0,0.0,0.0,0.0,0.0,0.0,1.9813,2.1648,2.3296,2.4706,2.5344,2.6479,2.8203,2.8813,2.95,3.0189,3.1946,3.2704,3.278,3.24,3.218,3.1924,2.9897,2.812,2.6495,2.5532,2.3718,2.1316,1.966,0.0,0.0,0.0,0.0,0.0,1.5108,1.5108,1.528,1.5816,1.6341,1.7074,1.8901,1.8827,1.8547,2.0203,2.038,2.0218,2.0754,2.0829,2.0745,2.0354,2.0237,2.0272,2.0676,2.0439,2.0325,2.0985,2.0814,2.0943,2.1774,2.1924,2.2588,2.4219,2.3789,2.3261,2.3153,2.3485,2.3438,2.2577,2.323,2.4098,2.501,2.5049,2.5244,2.5713,2.5742,2.5742,2.5742,2.5742,2.5947,2.6387,2.6406,2.6396,2.6348,2.4616,2.3809,2.3583,2.0947,1.9627,1.9524,1.8199,1.7582,1.7582,1.7582,1.7582,1.7582,1.7582,1.7582,1.7582,1.7562,1.7562,1.7435,0.0,0.0,0.0,0.0,0.0,0.0,0.0,0.0,0.0,0.0,0.0,0.0,0.0,0.0,0.0,0.0,0.0,0.0,0.0,0.0,0.0,0.0,0.0,0.0,0.0,0.0,0.0,0.0,2.5841,2.6261,2.6804,2.7314,2.7733,2.816,2.804,2.7436,2.6457,2.5739,2.4355,2.2518,0.0,2.1314,2.0129,0.0,0.0,0.0,0.0,0.0,1.5108,1.5108,1.5567,1.6291,1.7183,1.7931,1.8701,1.9609,1.9959,2.0103,2.0594,2.109,2.1421,2.1603,2.1803,2.203,2.2259,2.1766,2.1509,2.1955,2.1251,2.0513,2.0048,2.0648,2.1267,2.1494,2.2764,2.4033,2.4795,2.5,2.4974,2.4574,2.3795,2.3391,2.3868,2.3448,2.3748,2.5049,2.4766,2.4922,2.5693,2.5742,2.5742,2.5742,2.5742,2.5947,2.6387,2.6699,2.6533,2.5908,2.5807,2.5017,2.3692,2.1954,2.0641,1.9524,1.8199,1.7582,1.7582,1.7582,1.7582,1.7582,1.7582,1.7582,1.7555,1.7341,1.7261,1.7168,0.0,0.0,0.0,0.0,0.0,0.0,0.0,0.0,0.0,0.0,0.0,0.0,0.0,0.0,0.0,0.0,0.0,0.0,0.0,0.0,0.0,0.0,0.0,0.0,0.0,0.0,0.0,0.0,0.0,0.0,2.3301,2.3878,2.433,2.4644,2.5076,2.4698,2.3833,2.3547,0.0,0.0,0.0,0.0,0.0,0.0,0.0,0.0,0.0,1.5506,1.5482,1.5869,1.6363,1.7034,1.8428,1.9093,1.9737,2.1217,2.1747,2.1959,2.2966,2.351,2.3907,2.4077,2.3922,2.3728,2.343,2.2702,2.1912,2.1231,2.0452,1.9578,1.8736,1.9493,2.0278,2.0416,2.2103,2.3584,2.4394,2.4717,2.4869,2.4761,2.4463,2.4309,2.4626,2.4328,2.4638,2.5635,2.5244,2.5215,2.5713,2.5742,2.5742,2.5742,2.5742,2.5947,2.6387,2.6621,2.6494,2.6025,2.6074,2.5564,2.4501,2.2567,2.1245,2.0436,1.8401,1.7582,1.7582,1.7582,1.7582,1.7582,1.7582,1.7582,1.7549,1.7255,1.7148,1.7068,0.0,0.0,0.0,0.0,0.0,0.0,0.0,0.0,0.0,0.0,0.0,0.0,0.0,0.0,0.0,0.0,0.0,0.0,0.0,0.0,0.0,0.0,0.0,0.0,0.0,0.0,0.0,0.0,0.0,0.0,0.0,0.0,0.0,0.0,0.0,0.0,0.0,0.0,0.0,0.0,0.0,0.0,0.0,0.0,0.0,0.0,0.0,1.5294,1.572,1.6969,1.7436,1.7843,1.9624,2.0298,2.0923,2.3368,2.3787,2.3988,2.6075,2.6602,2.665,2.7012,2.6455,2.5428,2.4007,2.3046,2.1837,1.9626,1.8889,1.8321,1.7323,1.7935,1.8741,1.9141,2.0752,2.2353,2.3682,2.3926,2.414,2.4436,2.5079,2.5362,2.5069,2.5186,2.5446,2.5961,2.5643,2.5528,2.5732,2.5742,2.5742,2.5742,2.5742,2.5947,2.6387,2.6387,2.6387,2.6387,2.6006,2.5791,2.5635,2.2868,2.1752,2.155,1.8805,1.7582,1.7582,1.7582,1.7582,1.7582,1.7582,1.7582,1.7549,1.7255,1.7121,1.7014,0.0,0.0,0.0,0.0,0.0,0.0,0.0,0.0,0.0,0.0,1.3489,1.3857,0.0,0.0,0.0,0.0,0.0,0.0,0.0,0.0,0.0,0.0,0.0,0.0,0.0,1.588,1.6491,1.7232,1.7007,0.0,0.0,0.0,0.0,0.0,0.0,0.0,0.0,0.0,0.0,0.0,0.0,0.0,0.0,0.0,0.0,0.0,1.5289,1.4631,1.4501,1.7322,1.8823,1.9657,2.1075,2.2537,2.3841,2.5016,2.5584,2.6143,2.7559,2.7705,2.7461,2.7539,2.6904,2.5722,2.3764,2.2665,2.1369,1.9225,1.8512,1.7707,1.6218,1.7099,1.8312,1.8802,2.0595,2.2451,2.4082,2.4619,2.4993,2.5459,2.4946,2.482,2.5465,2.3978,2.326,2.4117,2.4134,2.451,2.5635,2.5742,2.5742,2.5742,2.5742,2.5947,2.6387,2.6387,2.6387,2.6387,2.6309,2.6084,2.5635,2.2868,2.1752,2.155,1.8805,1.7582,1.7582,1.7582,1.7582,1.7582,1.7582,1.7582,1.7549,1.7255,1.6994,1.6734,0.0,0.0,0.0,0.0,0.0,0.0,0.0,1.2835,1.2942,1.3214,1.3443,1.3593,1.3604,1.3374,1.3018,0.0,0.0,0.0,0.0,0.0,0.0,0.0,0.0,0.0,0.0,1.5324,1.5631,1.5926,0.0,1.5806,1.6082,1.6082,1.6401,1.6993,1.716,1.7338,0.0,0.0,0.0,0.0,0.0,0.0,0.0,0.0,0.0,0.0,0.0,1.4755,1.5034,1.68,1.8495,2.0239,2.1928,2.3398,2.4639,2.5752,2.6543,2.7285,2.833,2.8467,2.8262,2.8047,2.6836,2.5208,2.3337,2.1659,1.9992,1.8092,1.7389,1.6683,1.5488,1.6465,1.7551,1.7845,1.9612,2.1549,2.3248,2.404,2.4523,2.4904,2.4757,2.4593,2.4517,2.334,2.2733,2.3178,2.2892,2.3276,2.4609,2.5323,2.5742,2.5742,2.5957,2.6074,2.6055,2.6279,2.6279,2.6055,2.6055,2.5525,2.4609,2.2567,2.1347,2.0538,1.8506,1.7582,1.7582,1.7582,1.7582,1.7582,1.7582,1.7582,1.7549,1.7255,1.7061,1.6874,0.0,0.0,0.0,0.0,0.0,0.0,0.0,1.2735,1.2862,1.3501,1.3696,1.3535,1.2977,1.3,1.2804,0.0,0.0,0.0,0.0,0.0,0.0,0.0,0.0,0.0,0.0,0.0,0.0,1.4916,1.4916,0.0,0.0,0.0,0.0,0.0,1.7182,1.737,1.7383,1.7814,0.0,0.0,0.0,1.6337,0.0,0.0,0.0,0.0,0.0,1.4812,1.5279,1.6134,1.7564,1.9361,2.1422,2.3103,2.4529,2.5477,2.6694,2.7826,2.8643,2.8916,2.8818,2.8398,2.667,2.4641,2.2897,2.0771,1.8716,1.7159,1.6327,1.5648,1.501,1.5694,1.6506,1.6849,1.8403,2.0241,2.2217,2.3113,2.3779,2.3945,2.4521,2.4316,2.3253,2.2616,2.2264,2.211,2.1609,2.1853,2.3176,2.451,2.5226,2.5226,2.5867,2.6133,2.5879,2.6123,2.6123,2.5879,2.5781,2.502,2.3683,2.2357,2.0939,1.9524,1.8199,1.7582,1.7582,1.7582,1.7549,1.7488,1.7488,1.7488,1.7462,1.7235,1.7108,1.6987,0.0,0.0,0.0,0.0,0.0,0.0,0.0,1.3615,1.404,1.3638,1.4017,1.3948,1.3023,1.326,1.3133,0.0,0.0,0.0,0.0,0.0,0.0,0.0,0.0,0.0,0.0,0.0,0.0,1.4916,1.4916,0.0,0.0,0.0,0.0,0.0,0.0,1.6989,1.6835,1.7637,0.0,0.0,0.0,0.0,0.0,0.0,0.0,0.0,0.0,1.4216,1.3515,1.569,1.6213,1.6351,1.8206,2.1181,2.3971,2.3917,2.5538,2.7452,2.8584,2.8916,2.8818,2.8398,2.667,2.4562,2.2415,2.0288,1.8393,1.7085,1.5889,1.4988,1.4632,1.4621,1.5129,1.6378,1.7218,1.8727,2.1663,2.2776,2.3242,2.3148,2.4077,2.4114,2.2344,2.1573,2.102,2.0423,2.0038,2.0436,2.1853,2.3176,2.389,2.389,2.5156,2.5967,2.6328,2.5977,2.5977,2.6328,2.5928,2.502,2.3683,2.2357,2.0939,1.9524,1.8199,1.7582,1.7582,1.7582,1.7428,1.7188,1.7188,1.7188,1.7188,1.7161,1.6981,1.674,0.0,0.0,0.0,0.0,0.0,0.0,1.293,1.3132,1.338,1.3886,1.3863,1.36,1.3123,1.3069,1.2742,1.1867,0.0,0.0,0.0,0.0,0.0,0.0,0.0,0.0,0.0,0.0,1.3557,1.3472,1.3989,0.0,0.0,0.0,0.0,0.0,0.0,1.6394,1.6921,1.6995,0.0,0.0,0.0,0.0,0.0,0.0,0.0,0.0,0.0,0.0,1.4261,1.4575,1.5339,1.6134,1.6011,1.7766,2.0271,2.2322,2.4335,2.6224,2.7731,2.8535,2.876,2.8086,2.5898,2.3496,2.1865,1.9253,1.6857,1.5971,1.5285,1.4646,1.3959,1.4187,1.4641,1.5015,1.568,1.6908,1.9104,2.0063,2.0613,2.0701,2.1424,2.1396,2.0111,1.9868,1.9535,1.8926,1.8751,1.8801,1.922,2.1347,2.2876,2.3683,2.4205,2.4585,2.4753,2.541,2.582,2.5996,2.582,2.502,2.3683,2.2357,2.0939,1.9524,1.8199,1.7482,1.7321,1.7321,1.7148,1.6881,1.6881,1.6881,1.6881,1.6881,1.6807,1.668,0.0,0.0,0.0,0.0,0.0,1.2323,1.293,1.2864,1.3082,1.401,1.3733,1.3383,1.3203,1.2632,1.2052,1.1538,1.133,0.0,0.0,0.0,0.0,0.0,0.0,0.0,0.0,0.0,1.284,1.2389,1.3119,1.3569,0.0,0.0,1.4251,1.4964,0.0,0.0,0.0,0.0,0.0,0.0,0.0,0.0,0.0,0.0,0.0,0.0,0.0,0.0,0.0,0.0,0.0,1.5382,1.4496,1.5218,1.7067,2.0277,2.2544,2.4494,2.6379,2.7525,2.8027,2.7441,2.501,2.2399,2.1205,1.8387,1.594,1.5355,1.4733,1.4222,1.382,1.3893,1.4052,1.4079,1.4635,1.5584,1.7117,1.8139,1.8702,1.8652,1.938,1.9368,1.8345,1.8581,1.8624,1.821,1.8083,1.8104,1.8213,1.962,2.1143,2.2466,2.3285,2.3692,2.3692,2.4609,2.5333,2.5742,2.5323,2.4402,2.3076,2.1651,2.0333,1.8916,1.7996,1.7415,1.7257,1.7241,1.7001,1.6587,1.6673,1.6653,1.658,1.658,1.658,1.6547,0.0,0.0,0.0,0.0,0.0,0.0,1.2827,1.3311,1.3662,1.3888,1.3715,1.3478,1.3135,1.1963,1.1217,1.1217,1.1217,0.0,0.0,0.0,0.0,0.0,0.0,0.0,0.0,0.0,1.2029,1.221,1.2556,1.2721,1.2721,1.3138,1.316,1.298,0.0,0.0,0.0,0.0,0.0,0.0,0.0,0.0,0.0,0.0,0.0,0.0,0.0,0.0,0.0,0.0,0.0,0.0,0.0,1.4182,1.513,1.7763,2.0086,2.2329,2.4553,2.5793,2.6406,2.6406,2.4131,2.1607,2.029,1.7949,1.5999,1.5589,1.4344,1.3534,1.4323,1.3691,1.3228,1.3973,1.4399,1.5067,1.633,1.7551,1.8118,1.7607,1.8512,1.88,1.7739,1.8122,1.8497,1.849,1.8217,1.8431,1.9546,1.8297,1.8297,1.9627,2.2265,2.3692,2.3692,2.3683,2.4402,2.5635,2.4304,2.2976,2.1643,2.0231,1.8916,1.7582,1.7582,1.7415,1.7174,1.7462,1.7068,1.6306,1.6593,1.6526,1.6279,1.6279,1.6279,1.6279,0.0,0.0,0.0,0.0,0.0,0.0,0.0,1.213,1.2552,1.3498,1.3245,1.3016,1.3167,1.2103,1.1367,1.1217,1.0802,0.0,0.0,0.0,0.0,0.0,0.0,0.0,0.0,0.0,1.1689,1.1726,1.2258,1.2627,1.2838,1.2965,1.316,1.3391,1.3638,1.3967,0.0,0.0,0.0,0.0,0.0,0.0,1.1502,0.0,0.0,0.0,0.0,0.0,0.0,0.0,0.0,0.0,0.0,0.0,0.0,1.5408,1.7621,1.979,2.1038,2.205,2.274,2.274,2.0829,1.8733,1.832,1.6432,1.4525,1.3748,1.378,1.3802,1.3203,1.3424,1.3665,1.3717,1.3984,1.4507,1.5141,1.6022,1.673,1.7147,1.811,1.871,1.8789,1.8796,1.8704,1.8504,1.8404,1.834,1.8227,1.8708,1.9117,1.9627,2.0444,2.0836,2.0596,2.1578,2.2171,2.2574,2.2019,2.1629,2.1263,1.9744,1.8762,1.8268,1.738,1.682,1.656,1.6647,1.6406,1.5979,1.6072,1.6046,1.5972,1.5972,1.5972,1.5972,0.0,0.0,0.0,0.0,0.0,0.0,0.0,1.1372,1.1802,1.2663,1.2484,1.2374,1.27,1.1804,1.1132,1.1029,1.0582,0.0,0.0,0.0,0.0,0.0,0.0,0.0,1.0283,1.1057,1.1468,1.1516,1.2298,1.2782,1.2908,1.3116,1.3316,1.3459,1.3267,1.3456,0.0,0.0,0.0,0.0,0.0,0.0,1.0708,0.0,0.0,0.0,0.0,0.0,0.0,0.0,0.0,0.0,0.0,0.0,0.0,0.0,1.5369,1.6988,1.8247,1.9111,1.976,1.9929,1.8242,1.6641,1.6505,1.5041,1.3525,1.285,1.3013,1.3112,1.2462,1.2946,1.326,1.2854,1.3264,1.3738,1.4122,1.4777,1.5688,1.6959,1.7725,1.8374,1.8972,1.885,1.8684,1.8504,1.8384,1.811,1.7609,1.8401,1.8755,1.8743,1.9148,1.9351,1.925,1.9897,2.0508,2.0989,2.0386,2.0111,2.0213,1.8639,1.7973,1.7874,1.7093,1.654,0.0,1.6393,1.6199,1.5838,1.5952,1.5925,1.5832,1.5832,1.5534,1.5045,0.0,0.0,0.0,0.0,0.0,0.0,0.0,1.0987,1.133,1.1581,1.159,1.1653,1.1836,1.1159,1.0715,1.0715,0.0,0.0,0.0,0.0,0.0,0.0,0.0,0.0,1.0283,1.0878,1.1292,1.1516,1.262,1.3129,1.2969,1.357,1.3618,1.3248,1.3248,1.3119,0.0,0.0,0.0,0.0,0.0,0.0,0.0,0.0,0.0,0.0,0.0,0.0,0.0,0.0,0.0,0.0,0.0,0.0,0.0,0.0,0.0,0.0,0.0,1.6675,1.7158,1.7644,1.6445,1.5119,1.4858,1.3914,0.0,1.2595,1.2088,1.18,1.2138,1.2295,1.2214,1.1709,1.23,1.2957,1.3377,1.4103,1.524,1.6913,1.743,1.782,1.8352,1.8428,1.8457,1.8457,1.8203,1.7909,1.7602,1.7562,1.7428,1.7257,1.8405,1.8974,1.8974,1.8669,1.919,2.0432,1.9167,1.8498,1.852,1.7237,1.6647,1.6647,1.6647,1.6493,1.6259,1.6533,1.6319,1.5858,1.6036,1.5969,1.5635,1.554,1.4758,1.3776,0.0,0.0,0.0,0.0,0.0,0.0,0.0,0.0,0.0,0.0,1.1611,1.1542,1.1394,1.0981,1.0715,0.0,0.0,0.0,0.0,0.0,0.0,0.0,0.0,0.0,1.0283,1.0878,1.1292,1.1516,1.248,1.3182,1.3594,1.3958,1.4036,1.3896,1.3896,1.3324,0.0,0.0,0.0,0.0,0.0,0.0,0.0,0.0,0.0,0.0,0.9935,1.0373,0.0,0.0,0.0,0.0,0.0,0.0,0.0,0.0,1.1757,0.0,1.1473,0.0,1.4205,1.4878,1.3941,1.2926,0.0,1.2725,1.2053,1.1131,1.1292,1.1543,1.1351,1.1595,1.1835,1.1875,1.2281,1.2856,1.3663,1.5318,1.6507,1.6801,1.7497,1.782,1.7495,1.7902,1.815,1.815,1.809,1.7909,1.7602,1.7375,1.7221,1.7154,1.7107,1.6959,1.6959,1.6883,1.7044,1.7322,1.68,1.6622,1.6842,1.6229,1.6032,1.6032,1.6032,1.5999,1.5939,1.6005,1.5952,1.5737,1.4827,1.4418,1.4268,1.3204,1.2624,1.2334,0.0,0.0,0.0,0.0,0.0,0.0,0.0,0.0,0.0,0.0,0.0,1.1132,1.0992,1.0687,0.0,0.0,0.0,0.0,0.0,0.0,0.0,0.0,0.0,1.0283,1.0283,1.0725,1.1238,1.1806,1.286,1.3634,1.4135,1.4418,1.4373,1.4072,1.3641,1.2986,0.0,0.0,0.0,0.0,1.039,0.0,0.0,0.0,0.0,0.0,0.9634,1.0027,0.0,1.0934,1.1138,1.126,0.0,0.0,0.0,0.0,1.0967,0.0,1.0048,1.075,1.1762,1.2034,1.1637,1.1286,1.1507,1.1283,1.0869,1.0308,1.0408,1.0561,1.0498,1.1095,1.1533,1.1377,1.2131,1.3038,1.3632,1.474,1.578,1.6393,1.6934,1.7375,1.7729,1.7936,1.7989,1.7842,1.7836,1.7642,1.7201,1.7161,1.7027,1.6754,1.644,1.6273,1.6273,1.6139,1.6072,1.6066,1.5905,1.5912,1.6066,1.5313,1.4949,1.4854,1.4274,1.398,1.398,1.398,1.398,1.398,1.3204,1.3011,1.2909,1.2139,1.156,1.1072,0.0,0.0,0.0,0.0,0.0,0.0,0.0,0.0,0.0,0.0,0.0,0.0,0.0,0.0,0.0,0.0,0.0,0.0,0.0,0.0,0.0,0.0,1.0244,1.0283,1.0283,1.0611,1.1218,1.209,1.3305,1.4129,1.4514,1.4935,1.4789,1.4112,1.3118,1.252,0.0,0.0,1.1029,1.0687,1.039,0.0,0.0,0.0,0.0,0.0,0.0,0.0,0.0,1.0853,1.0992,1.0958,1.1417,0.0,0.0,0.0,0.0,0.0,0.9703,0.9752,0.9977,0.9823,1.0,1.0205,1.03,1.0012,0.9762,0.9814,0.9562,0.9436,0.9847,1.066,1.1068,1.0751,1.2061,1.3335,1.3828,1.4055,1.4649,1.6099,1.6393,1.6914,1.8043,1.8003,1.7802,1.7535,1.7475,1.7235,1.6734,1.6901,1.6787,1.6286,1.6226,1.6102,1.5901,1.5856,1.5832,1.5832,1.5629,1.5534,1.5439,1.4166,1.3584,1.3488,1.2431,1.1945,1.1945,1.1945,1.1945,1.1853,1.1658,1.1658,1.1556,1.1361,1.0583,0.9706,0.0,0.0,0.0,0.0,0.0,0.0,0.0,0.0,0.0,0.0,0.0,0.0,0.0,0.0,0.0,0.0,0.0,0.0,0.0,0.0,0.0,1.0059,1.0059,1.0137,1.0283,1.084,1.1287,1.1625,1.3184,1.4193,1.4602,1.5566,1.5455,1.4457,1.3265,1.2437,1.1909,1.1394,1.1029,1.0687,1.039,0.0,0.0,0.0,0.0,0.0,0.0,0.0,0.0,1.0369,1.049,1.063,1.017,0.0,0.0,0.0,0.0,0.0,0.797,0.8489,0.9268,1.0107,1.018,1.0003,0.9902,0.9666,0.9361,0.9061,0.8956,0.9153,0.9951,1.003,1.0186,1.086,1.2204,1.3722,1.5264,1.5919,1.6246,1.6266,1.6927,1.7181,1.666,1.7021,1.7268,1.7215,1.6981,1.68,1.6707,1.6513,1.6366,1.6279,1.6025,1.5402,1.4322,1.5261,1.5832,1.5825,1.4752,1.4166,1.4172,1.2818,1.2237,1.2237,1.1945,1.1945,1.1945,1.1945,1.1945,1.175,1.0681,1.0288,1.0194,0.9019,0.8432,0.8333,0.0,0.0,0.0,0.0,0.0,0.0,0.0,0.0,0.0,0.0,0.0,0.0,0.0,0.0,0.0,0.0,0.0,0.0,0.0,0.0,0.9695,0.9832,0.9832,0.998,1.0283,1.0774,1.1638,1.2799,1.3485,1.4549,1.588,1.5624,1.4856,1.3631,1.2794,1.2138,1.1653,1.1132,1.0764,1.0467,0.0,0.0,0.0,0.0,0.0,0.0,0.0,0.0,0.0,0.0,0.9939,0.9761,0.9444,0.0,0.0,0.0,0.0,0.0,0.7356,0.7664,0.8336,0.9099,0.9591,0.9769,0.9545,0.966,0.9644,0.9105,0.9292,0.9686,1.0254,1.0635,1.1363,1.2893,1.3307,1.3895,1.5184,1.5184,1.5237,1.5738,1.6152,1.6426,1.65,1.6754,1.6847,1.6687,1.6693,1.6567,1.6246,1.6259,1.5894,1.5049,1.4821,1.4172,1.2813,1.3357,1.3648,1.3692,1.3065,1.2784,1.2813,1.1433,1.0807,1.0711,1.0035,0.9598,0.9606,0.9606,0.9606,0.9511,0.8944,0.8717,0.8721,0.823,0.7965,0.7965,0.0,0.0,0.0,0.0,0.0,0.0,0.0,0.0,0.0,0.0,0.0,0.0,0.0,0.0,0.0,0.0,0.0,0.0,0.0,0.9487,0.9408,0.9683,0.9683,0.9918,1.0351,1.0864,1.1986,1.3661,1.3838,1.4873,1.6593,1.538,1.42,1.3009,1.2412,1.1872,1.1404,1.0905,1.0534,1.0283,0.0,0.0,0.0,0.0,0.0,0.0,0.0,0.0,0.0,0.0,0.0,0.0,0.0,0.0,0.0,0.7553,0.761,0.7708,0.7172,0.7295,0.7669,0.8111,0.8724,0.9319,0.9506,0.9786,0.9987,0.988,1.016,1.0494,1.0722,1.1369,1.2458,1.4262,1.4155,1.4182,1.5137,1.4689,1.4616,1.5591,1.5698,1.5965,1.664,1.6647,1.6513,1.6293,1.6413,1.6175,1.5367,1.5549,1.4948,1.3417,1.3311,1.2644,1.1308,1.1238,1.1452,1.1864,1.1447,1.1238,1.1303,0.9905,0.9275,0.918,0.8236,0.7699,0.76,0.76,0.76,0.7604,0.7604,0.7292,0.6825,0.7033,0.7093,0.7018,0.0,0.0,0.0,0.0,0.0,0.0,0.0,0.0,0.0,0.0,0.0,0.0,0.0,0.0,0.0,0.0,0.0,0.0,0.0,0.9319,0.9408,0.9683,0.9683,0.9969,1.058,1.1389,1.2197,1.2984,1.4098,1.4952,1.5499,1.4913,1.4193,1.3421,1.2383,1.1653,1.1217,1.0829,1.0534,1.0283,1.0098,0.0,0.0,0.0,0.0,0.0,0.0,0.0,0.0,0.0,0.0,0.0,0.0,0.0,0.751,0.0,0.7041,0.7047,0.7027,0.7404,0.7836,0.7641,0.7796,0.8477,1.0094,1.008,1.0087,1.141,1.1496,1.1336,1.1363,1.1643,1.2191,1.3173,1.3968,1.4856,1.6019,1.6126,1.6213,1.6567,1.6613,1.6633,1.67,1.646,1.6293,1.6273,1.6039,1.5272,1.393,1.3842,1.3252,1.1692,1.1686,1.1042,0.9651,0.9638,1.0384,1.1726,1.0286,0.9638,0.9651,0.8359,0.7802,0.7708,0.7614,0.7607,0.76,0.76,0.7607,0.7712,0.7712,0.6281,0.4282,0.429,0.4246,0.4302,0.0,0.0,0.0,0.0,0.0,0.0,0.0,0.0,0.0,0.0,0.0,0.0,0.0,0.0,0.0,0.0,0.0,0.0,0.0,0.9319,0.9368,0.9457,0.9744,1.0219,1.0908,1.1799,1.2835,1.3998,1.5596,1.574,1.4468,1.4557,1.3869,1.2489,1.1926,1.1356,1.0878,1.0428,1.0205,1.0098,0.9911,0.9832,0.0,0.0,0.0,0.0,0.0,0.0,0.0,0.0,0.8918,0.0,0.0,0.0,0.0,0.0,0.6979,0.6979,0.6979,0.7424,0.7855,0.7782,0.7842,0.8343,0.9927,1.0534,1.0822,1.1081,1.1844,1.2478,1.2285,1.3093,1.3848,1.4001,1.4763,1.5551,1.6186,1.6273,1.6313,1.6426,1.6433,1.6058,1.5077,1.4821,1.4374,1.3498,1.3262,1.2887,1.2335,1.233,1.1728,1.026,1.0255,0.9617,0.8333,0.8244,0.8455,0.9051,0.844,0.8232,0.8329,0.7773,0.7458,0.7458,0.7472,0.7424,0.7245,0.7252,0.735,0.7363,0.7287,0.6758,0.5538,0.2558,0.153,0.154,0.0,0.0,0.0,0.0,0.0,0.0,0.0,0.0,0.0,0.0,0.0,0.0,0.0,0.0,0.0,0.0,0.0,0.0,0.9319,0.9319,0.9359,0.9527,0.9813,1.0341,1.1105,1.1994,1.3164,1.465,1.6071,1.5733,1.3749,1.4036,1.3402,1.2029,1.159,1.1207,1.0829,1.0322,1.0059,0.998,0.9802,0.9634,0.0,0.0,0.0,0.0,0.0,0.0,0.0,0.0,0.8514,0.0,0.0,0.0,0.0,0.0,0.0,0.7161,0.7161,0.7468,0.7829,0.8023,0.807,0.8504,1.0154,1.0922,1.1416,1.1857,1.2625,1.3173,1.3053,1.3788,1.4402,1.4389,1.5197,1.5899,1.6106,1.6132,1.6029,1.5635,1.5461,1.484,1.3385,1.3082,1.252,1.1683,1.1465,1.112,1.0691,1.0686,1.0032,0.8641,0.8641,0.8204,0.7322,0.7331,0.6962,0.6237,0.6225,0.6678,0.7423,0.7365,0.7341,0.7341,0.7265,0.6777,0.5994,0.5965,0.6404,0.6966,0.5471,0.4872,0.451,0.1211,0.0,0.0,0.0,0.0,0.0,0.0,0.0,0.0,0.0,0.0,0.0,0.0,0.0,0.0,0.0,0.0,0.0,0.0,0.0,0.0,0.9319,0.9319,0.9527,0.998,0.998,1.04,1.118,1.1899,1.3024,1.4499,1.5078,1.4707,1.3382,1.3255,1.2908,1.2377,1.1553,1.1217,1.1142,1.0544,1.0166,0.998,0.9802,0.9545,0.9279,0.0,0.0,0.0,0.0,0.0,0.0,0.0,0.0,0.0,0.0,0.0,0.0,0.0,0.7228,0.7506,0.7506,0.7513,0.7661,0.8272,0.8427,0.8918,1.0962,1.1202,1.175,1.4409,1.4028,1.33,1.3587,1.3414,1.3414,1.3988,1.5064,1.5825,1.5818,1.5818,1.533,1.4064,1.375,1.3122,1.179,1.1389,1.1305,1.1305,1.1086,1.0333,0.8937,0.8843,0.8178,0.6788,0.6795,0.6802,0.6798,0.6996,0.5892,0.3602,0.3602,0.4787,0.7104,0.7086,0.707,0.707,0.707,0.5804,0.3652,0.358,0.4954,0.657,0.187,0.0,0.0,0.0,0.0,0.0,0.0,0.0,0.0,0.0,0.0,0.0,0.0,0.0,0.0,0.0,0.0,0.0,0.0,0.0,0.0,0.0,0.0,0.0,0.9319,0.9607,0.9853,0.998,1.0137,1.039,1.0829,1.2026,1.3184,1.4292,1.4506,1.4117,1.3179,1.3179,1.271,1.1836,1.1404,1.1067,1.0791,1.0322,1.0059,0.998,0.9802,0.9545,0.9279,0.0,0.0,0.0,0.0,0.0,0.0,0.0,0.0,0.0,0.0,0.0,0.0,0.6979,0.7088,0.7154,0.7154,0.7622,0.8096,0.807,0.8684,0.9666,1.1096,1.1363,1.1877,1.3928,1.3741,1.33,1.3587,1.4082,1.4295,1.3848,1.4763,1.5166,1.4124,1.4001,1.3528,1.2308,1.2107,1.1514,1.0145,0.9777,0.9141,0.8171,0.8089,0.7812,0.7278,0.7286,0.7193,0.6742,0.6749,0.6031,0.4552,0.6212,0.6722,0.6048,0.4401,0.3956,0.462,0.465,0.4664,0.4751,0.6395,0.6685,0.5843,0.2469,0.1444,0.1956,0.0514,0.0,0.0,0.0,0.0,0.0,0.0,0.0,0.0,0.0,0.0,0.0,0.0,0.0,0.0,0.0,1.0041,0.0,0.0,0.0,0.0,0.0,0.0,0.0,0.0,0.9783,1.0019,1.0137,1.0244,1.0428,1.0677,1.1648,1.2472,1.3116,1.3623,1.3614,1.3115,1.3077,1.2854,1.2384,1.1735,1.1379,1.1137,1.043,1.0059,0.998,0.9872,0.9536,0.911,0.0,0.0,0.0,0.0,0.0,0.0,0.0,0.0,0.0,0.0,0.0,0.7041,0.7161,0.7201,0.7248,0.7495,0.7674,0.7896,0.8448,0.9017,0.9788,1.1268,1.2144,1.2993,1.4188,1.3968,1.3647,1.3941,1.3972,1.3754,1.336,1.3592,1.3423,1.2536,1.2338,1.1915,1.0651,1.0465,0.9873,0.8507,0.8178,0.7655,0.6788,0.6478,0.6079,0.5217,0.5223,0.5303,0.5303,0.6103,0.5906,0.4652,0.4416,0.5212,0.7026,0.3742,0.2181,0.2175,0.2135,0.2153,0.2236,0.3688,0.4277,0.4078,0.1174,0.0,0.0,0.0,0.0,0.0,0.0,-0.1228,-0.2847,0.0,0.0,0.0,0.0,0.0,0.0,0.0,0.0,0.0,0.0,1.0069,0.998,0.0,0.0,0.0,0.0,0.0,0.0,0.0,0.9911,1.0098,1.0283,1.0283,1.0428,1.0677,1.0992,1.1255,1.1479,1.2525,1.3056,1.3038,1.2946,1.3133,1.357,1.2418,1.1893,1.1821,1.0774,1.0205,1.0019,1.0019,0.9567,0.882,0.882,0.0,0.0,0.0,0.0,0.0,0.0,0.0,0.0,0.7189,0.6979,0.7074,0.7348,0.7442,0.7536,0.8094,0.7517,0.72,0.9009,0.9203,0.9482,1.1261,1.2897,1.4223,1.4703,1.4382,1.4128,1.4216,1.3157,1.2357,1.2545,1.1811,1.1206,1.0989,1.0885,1.0238,0.9039,0.8785,0.8284,0.7177,0.6569,0.6336,0.6346,0.6058,0.5093,0.3405,0.2969,0.2823,0.2823,0.4734,0.5699,0.5758,0.1887,0.2182,0.6397,0.209,0.0,0.0,0.0,0.0,0.0,0.0,0.0,0.0,0.0,0.0,0.0,0.0,0.0,0.0,0.0,-0.3041,-0.7111,0.0,0.0,0.0,0.0,0.0,0.0,0.0,0.0,0.0,0.0,0.0,0.0,0.0,0.0,0.0,0.0,0.0,0.0,0.0,1.0137,1.0244,1.0283,1.0283,1.0428,1.0677,1.0753,1.0943,1.1255,1.1726,1.2246,1.2769,1.2869,1.3133,1.357,1.2418,1.1893,1.1821,1.0774,1.0283,1.0244,1.0244,0.9774,0.9128,0.9128,0.8675,0.0,0.0,0.0,0.0,0.0,0.0,0.0,0.7147,0.6979,0.7034,0.7101,0.6881,0.6663,0.6782,0.6579,0.6504,0.7293,0.8163,0.9055,0.973,1.0288,1.1198,1.2916,1.3494,1.3507,1.2714,1.2338,1.1757,1.0675,1.0539,1.0126,0.8904,0.8663,0.8256,0.7259,0.6954,0.6846,0.6762,0.4975,0.3873,0.3848,0.5339,0.5832,0.4965,0.2192,0.0637,0.0637,0.1132,0.1331,0.1372,0.042,0.0496,0.1488,0.0509,0.0,0.0,0.0,0.0,0.0,0.0,0.0,0.0,0.0,0.0,0.0,0.0,0.0,0.0,0.0,-0.3001,-0.7111,0.0,0.0,0.0,0.0,0.0,0.0,0.0,0.0,0.0,0.0,0.0,0.0,0.0,0.0,0.0,0.0,0.0,0.0,0.0,0.0,1.0283,1.0283,1.0283,1.0361,1.0505,1.0495,1.0572,1.0774,1.1239,1.199,1.2934,1.3211,1.3594,1.4034,1.2824,1.2181,1.1933,1.0785,1.0283,1.0283,1.0283,0.9765,0.8967,0.8967,0.8472,0.7773,0.7979,0.0,0.0,0.0,0.0,0.0,0.0,0.0,0.7005,0.6978,0.6718,0.6449,0.6582,0.6139,0.5911,0.6629,0.7588,0.8503,0.8911,0.8996,0.9384,1.0443,1.1247,1.1557,1.1078,1.0523,0.9889,0.9111,0.8617,0.8013,0.7143,0.697,0.6779,0.6364,0.6215,0.6266,0.6504,0.5386,0.3781,0.1787,0.1335,0.1003,0.0659,-0.0461,-0.1129,-0.128,-0.113,-0.073,-0.0,0.0,0.0,0.0,0.0,0.0,0.0,0.0,0.0,0.0,0.0,0.0,0.0,0.0,0.0,0.0,0.0,0.0,0.0,0.0,-0.2167,-0.5339,0.0,0.0,0.0,0.0,0.0,0.0,0.0,0.0,0.0,0.0,0.0,0.0,0.0,0.0,0.0,0.0,0.0,0.0,0.0,0.0,0.0,1.0283,1.0283,1.0283,1.0283,1.0283,1.0283,1.0283,1.1065,1.1954,1.2905,1.3466,1.3949,1.4323,1.3194,1.2488,1.2022,1.0884,1.0352,1.0283,1.0244,0.9646,0.8765,0.8675,0.8177,0.7523,0.7523,0.7641,0.7814,0.7565,0.0,0.0,0.0,0.0,0.7032,0.7057,0.6774,0.6428,0.6586,0.5891,0.534,0.6147,0.6931,0.7549,0.7917,0.7852,0.7787,0.7787,0.8695,0.9416,0.9269,0.8491,0.7759,0.7542,0.6633,0.5898,0.585,0.5732,0.5731,0.5888,0.5892,0.5728,0.5226,0.5245,0.3544,-0.0496,-0.3101,-0.4523,-0.447,-0.3267,-0.2737,-0.2999,-0.2805,-0.2076,-0.0792,-0.0584,-0.0326,0.0,0.0,0.0,0.0,0.0,0.0,0.0,0.0,0.0,0.0,0.0,0.0,0.0,0.0,0.0,-0.0076,-0.0796,-0.1941,-0.3505,0.0,0.0,0.0,0.0,0.0,0.0,0.0,0.0,0.0,0.0,0.9168,0.9056,0.0,0.0,0.0,0.0,0.0,0.0,0.0,0.0,0.0,1.0283,1.0283,1.0283,1.0283,1.0283,1.0283,1.0283,1.1168,1.1616,1.1736,1.2785,1.3352,1.345,1.2986,1.2539,1.2042,1.1202,1.0615,1.0283,1.0098,0.9664,0.9096,0.8537,0.8005,0.7523,0.7523,0.7356,0.7189,0.7433,0.7314,0.0,0.0,0.0,0.707,0.7363,0.6749,0.5986,0.6037,0.5439,0.4849,0.4922,0.5146,0.5322,0.5363,0.5355,0.5341,0.5341,0.709,0.8337,0.7407,0.7214,0.6813,0.5647,0.5509,0.5432,0.5248,0.5196,0.5255,0.5472,0.5475,0.4239,0.1125,0.0815,-0.05,-0.3655,-0.4294,-0.4482,-0.4516,-0.4326,-0.4206,-0.4288,-0.4461,-0.4341,-0.3934,-0.2866,-0.1547,0.0,0.0,0.0,0.0,0.0,0.0,0.0,0.0,0.0,0.0,0.0,0.0,0.0,0.0,0.0,-0.0456,-0.4073,-0.4477,-0.3421,0.0,0.0,0.0,0.0,0.0,0.0,0.0,0.0,0.0,0.0,0.0,0.9016,0.0,0.0,0.0,0.0,0.0,0.0,0.0,0.0,0.0,1.0137,1.0137,1.0166,1.0283,1.0283,1.0283,1.0283,1.1185,1.1348,1.0865,1.2085,1.2624,1.2621,1.2456,1.2037,1.1392,1.0913,1.0543,1.0283,0.995,0.9551,0.9081,0.8733,0.812,0.7508,0.7504,0.7273,0.7021,0.7189,0.7105,0.7021,0.7189,0.0,0.0,0.0,0.6471,0.5834,0.5335,0.4984,0.4671,0.469,0.4677,0.4684,0.4772,0.4724,0.4663,0.4663,0.5522,0.6104,0.5821,0.5799,0.5672,0.5095,0.514,0.521,0.5081,0.4314,0.4136,0.5287,0.5417,0.4003,0.0361,0.0,-0.1277,-0.425,-0.4486,-0.4486,-0.4513,-0.4503,-0.4536,-0.4621,-0.4663,-0.4644,-0.469,-0.405,-0.2465,0.0,0.0,0.0,0.0,0.0,0.0,0.0,0.0,0.0,0.0,0.0,0.0,-0.021,-0.2198,-0.3264,-0.3575,-0.4275,-0.4683,-0.5034,0.0,0.0,0.0,0.0,0.0,0.0,0.0,0.0,0.0,0.0,0.0,0.0,0.0,0.0,0.0,0.0,0.0,0.0,0.0,0.0,0.0,0.0,1.0059,1.0098,1.0137,1.0244,1.0283,1.0205,1.1143,1.1165,1.0342,1.1547,1.1979,1.1746,1.1895,1.1574,1.0867,1.0669,1.0431,1.0176,0.9775,0.9407,0.9101,0.8837,0.8288,0.7715,0.7666,0.7475,0.7249,0.7258,0.7273,0.7273,0.7356,0.7273,0.0,0.0,0.0,0.5924,0.4983,0.4737,0.4669,0.4668,0.4601,0.4556,0.4656,0.4545,0.4519,0.4519,0.4519,0.4587,0.4762,0.4833,0.485,0.4813,0.491,0.4991,0.4959,0.3917,0.3375,0.3936,0.4057,0.2994,0.0233,-0.0713,-0.1891,-0.3781,-0.4254,-0.4492,-0.448,-0.4522,-0.457,-0.4629,-0.4577,-0.4575,-0.4753,-0.4565,-0.3399,-0.1229,-0.0799,-0.0374,0.0,0.0,0.0,0.0,0.0,0.0,0.0,0.0,-0.0539,-0.1619,-0.4351,-0.5701,-0.5954,-0.439,-0.4885,-0.6298,0.0,0.0,0.0,0.0,0.0,0.0,0.0,0.0,0.0,0.0,0.0,0.0,0.8875,0.913,0.9569,1.0479,1.0398,0.0,0.0,0.0,0.0,0.0,0.0,0.0,0.9762,1.0098,1.0205,1.0019,1.1058,1.1165,1.0342,1.1486,1.1571,1.0789,1.136,1.1361,1.0867,1.0669,1.035,0.9979,0.951,0.9324,0.9245,0.8663,0.8371,0.8303,0.8082,0.7974,0.7968,0.796,0.7938,0.8021,0.8308,0.7979,0.7599,0.0,0.0,0.0,0.519,0.4892,0.4849,0.4658,0.4576,0.4559,0.4494,0.4522,0.4519,0.4519,0.4519,0.4522,0.4539,0.4606,0.466,0.4524,0.4683,0.4735,0.4551,0.4478,0.3391,0.062,0.0282,0.0225,0.0,-0.2593,-0.3725,-0.24,-0.3697,-0.4484,-0.4519,-0.4519,-0.4522,-0.4529,-0.4522,-0.4525,-0.4543,-0.4515,-0.4542,-0.4501,-0.2889,-0.1352,0.0,0.0,0.0,0.0,0.0,0.0,0.0,0.0,-0.2021,-0.5138,-0.5353,-0.5599,-0.585,-0.5837,-0.6023,-0.6298,0.0,0.0,0.0,0.0,0.0,0.0,0.0,0.0,0.0,0.0,0.0,0.0,0.0,0.8577,0.9082,0.9424,0.9738,0.0,0.0,0.0,0.0,0.0,0.0,0.0,0.9056,0.9199,0.9328,0.9506,1.0271,1.0601,1.05,1.1254,1.143,1.1164,1.1368,1.1348,1.1059,1.075,1.0472,1.0195,0.9569,0.9527,0.9809,0.9051,0.8882,0.8985,0.8498,0.8173,0.7981,0.7997,0.7985,0.8021,0.8144,0.8021,0.7814,0.7855,0.7349,0.6649,0.5797,0.537,0.5123,0.4741,0.4632,0.4572,0.4573,0.4559,0.4519,0.4519,0.4519,0.4519,0.4519,0.4563,0.4531,0.4487,0.3727,0.346,0.4347,0.2809,0.1233,0.0112,0.0,0.0,0.0,-0.2751,-0.4278,-0.3699,-0.42,-0.4473,-0.4519,-0.4519,-0.4519,-0.4519,-0.4519,-0.4519,-0.4519,-0.4518,-0.4522,-0.4586,-0.3998,-0.3397,-0.287,-0.2071,-0.175,-0.1741,-0.1723,-0.2418,-0.3437,-0.3437,-0.3567,-0.3761,-0.4916,-0.5641,-0.5906,-0.5888,-0.6077,-0.6274,0.0,0.0,0.0,0.0,0.0,0.0,0.0,0.0,0.0,0.5815,0.0,0.0,0.0,0.0,0.8659,0.9079,0.9466,0.9683,0.9683,0.9683,0.0,0.0,0.0,0.0,0.8805,0.8724,0.8805,0.9088,0.9709,1.0149,1.0452,1.1304,1.1758,1.1789,1.1755,1.1549,1.1164,1.0845,1.0646,1.0507,0.9996,1.0013,1.032,0.9669,0.9509,0.9593,0.8944,0.8603,0.8378,0.8334,0.832,0.8291,0.8311,0.832,0.8226,0.7641,0.7356,0.7012,0.6311,0.5795,0.5368,0.5,0.4804,0.4665,0.4565,0.4548,0.4497,0.4443,0.4429,0.4519,0.4519,0.4522,0.4473,0.4484,0.3183,0.2402,0.2919,0.1289,0.0,0.0,0.0,0.0,0.0,-0.2242,-0.3934,-0.4438,-0.4484,-0.4525,-0.4519,-0.4519,-0.4519,-0.4519,-0.4519,-0.4519,-0.4519,-0.4519,-0.4522,-0.4473,-0.4473,-0.4475,-0.4471,-0.3765,-0.3454,-0.3627,-0.3593,-0.3929,-0.4515,-0.5132,-0.4715,-0.3751,-0.4903,-0.5628,-0.5888,-0.5806,-0.5996,-0.6338,0.0,0.0,0.0,0.0,0.0,0.0,0.0,0.0,0.3865,0.4262,0.0,0.0,0.0,0.0,0.0,0.9554,0.9683,0.9683,0.9683,0.9683,0.9585,0.9319,0.9217,0.9136,0.8975,0.8765,0.8707,0.878,0.9442,0.9853,1.0125,1.1594,1.2382,1.2605,1.244,1.1948,1.1201,1.1012,1.0937,1.0884,1.0766,1.074,1.0678,1.0334,1.0245,1.0164,0.9486,0.9267,0.9213,0.8982,0.892,0.8936,0.8969,0.9014,0.8814,0.7814,0.7516,0.7377,0.0,0.0,0.0,0.542,0.5121,0.4815,0.4454,0.4477,0.4498,0.4233,0.4355,0.4512,0.4505,0.4515,0.4473,0.4432,0.3241,0.173,0.0224,0.0,0.0,0.0,0.0,0.0,0.0,-0.134,-0.285,-0.4383,-0.4477,-0.4519,-0.4519,-0.4519,-0.4519,-0.4519,-0.4519,-0.4519,-0.4519,-0.4519,-0.4519,-0.4519,-0.4519,-0.4525,-0.449,-0.4704,-0.4991,-0.5409,-0.5371,-0.4389,-0.2945,-0.4709,-0.5389,-0.5379,-0.5379,-0.5549,-0.5796,-0.58,-0.5993,-0.6254,0.0,0.0,0.0,0.0,0.0,0.0,0.4219,0.4092,0.4089,0.0,0.0,0.0,0.62,0.7272,0.8259,0.9105,0.9337,0.9408,0.9408,0.9594,0.9554,0.9257,0.9039,0.8788,0.8496,0.8054,0.7972,0.8218,0.8552,0.9156,1.0046,1.1003,1.1779,1.2363,1.2068,1.1966,1.1986,1.174,1.1344,1.0943,1.1349,1.1448,1.1353,1.0906,1.0985,1.1256,1.066,1.0389,1.0237,0.9779,0.9669,0.9703,0.9351,0.9133,0.8935,0.8683,0.8254,0.7733,0.71,0.0,0.0,0.0,0.0,0.0,0.4374,0.433,0.4346,0.4139,0.423,0.4273,0.4161,0.4206,0.3984,0.3011,0.3424,0.2972,0.0392,0.0,0.0,0.0,0.0,0.0,0.0,-0.134,-0.285,-0.4383,-0.4477,-0.4519,-0.4519,-0.4519,-0.4519,-0.4519,-0.4519,-0.4519,-0.4519,-0.4519,-0.4519,-0.4519,-0.4519,-0.4577,-0.4636,-0.4792,-0.5006,-0.522,-0.5312,-0.5127,-0.4688,-0.5176,-0.5376,-0.5432,-0.5432,-0.5481,-0.5661,-0.5766,-0.5925,-0.6108,0.0,0.0,0.0,0.0,0.0,0.4113,0.455,0.4364,0.429,0.0,0.0,0.0,0.6531,0.7565,0.8431,0.8935,0.9096,0.9168,0.9168,0.9306,0.9346,0.9257,0.895,0.8699,0.8529,0.7972,0.769,0.7807,0.7923,0.8535,0.9614,1.0419,1.127,1.2094,1.1923,1.1882,1.1994,1.2182,1.2047,1.1767,1.1976,1.2188,1.228,1.1686,1.1638,1.19,1.1232,1.1098,1.1071,1.049,1.022,1.0058,0.9427,0.9214,0.9128,0.9128,0.8694,0.8094,0.7485,0.6941,0.6317,0.5322,0.0,0.0,0.4377,0.4212,0.4106,0.399,0.4038,0.4073,0.4036,0.4086,0.3714,0.2383,0.3509,0.3433,0.0447,0.0,0.0,0.0,0.0,0.0,0.0,-0.134,-0.285,-0.4383,-0.4477,-0.4519,-0.4519,-0.4519,-0.4519,-0.4519,-0.4519,-0.4519,-0.4519,-0.4519,-0.4519,-0.4519,-0.4519,-0.4545,-0.4697,-0.485,-0.4996,-0.5138,-0.5294,-0.5428,-0.5428,-0.5369,-0.5369,-0.5428,-0.5432,-0.5528,-0.5616,-0.562,-0.5845,-0.6149,0.0,0.0,0.0,0.4952,0.4719,0.4643,0.4952,0.4755,0.4621,0.0,0.5188,0.5961,0.7446,0.8144,0.8683,0.9016,0.9016,0.9016,0.9016,0.9016,0.9136,0.9319,0.907,0.891,0.891,0.8275,0.7821,0.7565,0.7516,0.7978,0.8968,0.9887,1.0785,1.1717,1.1768,1.1692,1.1582,1.2313,1.2719,1.2867,1.2696,1.2807,1.3078,1.2518,1.2302,1.2202,1.1602,1.1595,1.1791,1.1055,1.0542,1.0072,0.945,0.9243,0.9255,0.9253,0.8859,0.8295,0.7671,0.7066,0.6458,0.572,0.5079,0.0,0.4389,0.4148,0.3906,0.376,0.3873,0.3938,0.3924,0.3889,0.3556,0.237,0.3191,0.3087,0.0387,0.0,0.0,0.0,0.0,-0.0056,-0.0224,-0.1453,-0.285,-0.4383,-0.4477,-0.4519,-0.4519,-0.4519,-0.4519,-0.4519,-0.4519,-0.4519,-0.4519,-0.4519,-0.4519,-0.4519,-0.4536,-0.4568,-0.4721,-0.4874,-0.502,-0.5165,-0.5301,-0.5428,-0.5428,-0.5428,-0.5428,-0.5428,-0.5372,-0.5542,-0.5627,-0.5275,-0.5421,-0.5872,0.0,0.0,0.5308,0.5449,0.5319,0.533,0.5725,0.5571,0.5532,0.5736,0.6271,0.7037,0.8031,0.8496,0.8869,0.9199,0.9239,0.9168,0.9016,0.9168,0.9368,0.9594,0.9545,0.9506,0.9506,0.8667,0.8129,0.7897,0.7648,0.79,0.8715,0.9358,1.0169,1.106,1.1187,1.144,1.177,1.1963,1.2417,1.3006,1.3272,1.307,1.2657,1.2782,1.2795,1.2754,1.2599,1.2568,1.2358,1.1287,1.0513,0.9906,0.9598,0.9294,0.8972,0.8906,0.8438,0.7755,0.7017,0.6777,0.6488,0.5312,0.5246,0.0,0.4353,0.4201,0.4078,0.3593,0.3574,0.3606,0.3317,0.3351,0.3143,0.2251,0.1435,0.0668,0.0106,0.0,0.0,0.0,0.0,-0.049,-0.168,-0.2014,-0.285,-0.4383,-0.4477,-0.4519,-0.4519,-0.4519,-0.4519,-0.4519,-0.4519,-0.4519,-0.4519,-0.4519,-0.4519,-0.4519,-0.4585,-0.4724,-0.4877,-0.5023,-0.5172,-0.5318,-0.5415,-0.5428,-0.5428,-0.5428,-0.5428,-0.5428,-0.5372,-0.5403,-0.5269,-0.3743,-0.3323,-0.341,0.0,0.5966,0.5763,0.6002,0.5716,0.564,0.6149,0.5857,0.5823,0.6422,0.7182,0.7874,0.8488,0.895,0.9328,0.9506,0.987,0.9807,0.9185,0.9749,0.9978,0.9732,0.9683,0.9634,0.9475,0.8699,0.8129,0.7773,0.7565,0.777,0.8323,0.9006,0.9622,1.0136,1.0649,1.0975,1.1125,1.1766,1.2389,1.2905,1.3111,1.3119,1.2958,1.2965,1.2914,1.2881,1.2881,1.284,1.2634,1.1622,1.1027,1.06,0.9676,0.9316,0.9169,0.8827,0.8459,0.7873,0.6712,0.6651,0.6565,0.5241,0.5112,0.0,0.0,0.4181,0.3966,0.3606,0.3521,0.345,0.3292,0.3208,0.2962,0.2419,0.18,0.1145,0.0471,0.0148,0.0,0.0,0.0,-0.0268,-0.1038,-0.2441,-0.3644,-0.4432,-0.4473,-0.4519,-0.4519,-0.4519,-0.4519,-0.4519,-0.4519,-0.4519,-0.4519,-0.4519,-0.4519,-0.4519,-0.4616,-0.4772,-0.4925,-0.5064,-0.5216,-0.5428,-0.5428,-0.5428,-0.5428,-0.5428,-0.5432,-0.5372,-0.5382,-0.5413,-0.5069,-0.2376,-0.133,-0.1364,0.6989,0.6489,0.6173,0.6451,0.6058,0.5879,0.652,0.6136,0.613,0.714,0.7893,0.8511,0.893,0.9351,0.9617,0.9617,1.0303,1.0386,0.9452,1.0306,1.0517,0.9802,0.9759,0.9582,0.9241,0.87,0.8121,0.7607,0.7607,0.7731,0.8021,0.8765,0.9243,0.9477,1.025,1.0597,1.0692,1.1834,1.2469,1.2755,1.2938,1.3247,1.3559,1.3202,1.3082,1.3065,1.2929,1.2881,1.2763,1.1755,1.1504,1.1254,0.9802,0.9414,0.9406,0.8904,0.8553,0.8015,0.6695,0.6645,0.6666,0.5388,0.5131,0.5062,0.0,0.0,0.0,0.3717,0.3526,0.338,0.3305,0.3117,0.2885,0.2626,0.2617,0.2216,0.1088,0.0584,0.0292,0.0148,0.0051,0.0,0.0,-0.211,-0.3765,-0.4421,-0.4303,-0.429,-0.4463,-0.4519,-0.4519,-0.4519,-0.4519,-0.4519,-0.4519,-0.4519,-0.4519,-0.4519,-0.4646,-0.4799,-0.4925,-0.5098,-0.5243,-0.5428,-0.5428,-0.5428,-0.5428,-0.5428,-0.5369,-0.5382,-0.5049,-0.5077,-0.4944,-0.1371,0.0,0.0,0.6847,0.6518,0.6487,0.6566,0.6483,0.652,0.6894,0.6894,0.714,0.8039,0.8357,0.8724,0.9419,0.9354,0.9233,0.9233,0.99,1.011,0.9682,1.0257,1.0475,1.0085,1.0009,0.974,0.9308,0.8947,0.8496,0.7938,0.7938,0.7979,0.8021,0.8586,0.9248,0.9998,1.0104,1.0655,1.1513,1.2302,1.2622,1.2616,1.3444,1.4002,1.4321,1.3928,1.3742,1.3637,1.3104,1.2881,1.2725,1.1634,1.1235,1.1103,1.0136,0.9533,0.922,0.9112,0.8498,0.7727,0.7086,0.6866,0.664,0.5811,0.5734,0.5648,0.4722,0.0,0.4253,0.3657,0.0,0.3395,0.3026,0.0,0.0,0.255,0.2416,0.2102,0.142,0.1365,0.1251,0.0765,0.0274,0.0,0.0,0.0102,-0.1097,-0.4249,-0.3641,-0.3499,-0.4463,-0.4522,-0.4519,-0.4519,-0.4519,-0.4519,-0.4519,-0.4519,-0.4519,-0.4522,-0.4755,-0.4901,-0.4928,-0.5206,-0.5345,-0.5428,-0.5428,-0.5428,-0.5428,-0.5428,-0.5372,-0.5256,-0.3623,-0.3966,-0.4944,-0.1371,0.0,0.0,0.7311,0.7107,0.6939,0.6454,0.6283,0.627,0.652,0.7147,0.7682,0.7949,0.8717,0.9458,1.0098,1.0175,1.0145,1.0004,1.0676,1.0732,0.9726,1.041,1.0592,0.989,0.9836,0.9658,0.9312,0.8872,0.8513,0.8308,0.8308,0.8341,0.8496,0.9222,0.9756,1.0108,1.0381,1.0889,1.1573,1.2242,1.2968,1.368,1.4105,1.4607,1.5005,1.3772,1.3303,1.3238,1.2968,1.2881,1.2696,1.1398,1.1179,1.1195,0.9731,0.9183,0.8968,0.8504,0.7944,0.7332,0.6606,0.6618,0.6586,0.5698,0.5662,0.5576,0.469,0.4371,0.4151,0.37,0.0,0.0,0.0,0.0,0.0,0.0,0.2337,0.2031,0.1738,0.1639,0.1528,0.1276,0.1066,0.0134,-0.1892,-0.1987,-0.2569,-0.4079,-0.3859,-0.3924,-0.4477,-0.4473,-0.4522,-0.4473,-0.4522,-0.4519,-0.4519,-0.4519,-0.4519,-0.4522,-0.4772,-0.4918,-0.4928,-0.5226,-0.5428,-0.5428,-0.5428,-0.5428,-0.5428,-0.5369,-0.5379,-0.5326,-0.4579,-0.3453,-0.2082,-0.058,0.0,0.0,0.7641,0.744,0.7105,0.6349,0.6105,0.6062,0.627,0.7189,0.7961,0.8162,0.9197,1.0183,1.088,1.0829,1.0686,1.0571,1.1134,1.1064,0.9942,1.0728,1.0931,1.0303,0.9929,0.9725,0.9547,0.9069,0.8765,0.8594,0.8837,0.895,0.8973,0.9903,1.0351,1.0428,1.0678,1.115,1.1752,1.2242,1.3044,1.4026,1.4224,1.4549,1.4732,1.3563,1.3065,1.2881,1.2881,1.2881,1.2706,1.1567,1.1433,1.1502,1.001,0.9594,0.946,0.8701,0.8148,0.7676,0.6877,0.6875,0.6857,0.5909,0.5816,0.5726,0.481,0.4409,0.4156,0.3961,0.3728,0.0,0.0,0.0,0.3159,0.2852,0.0,0.219,0.2023,0.1826,0.1694,0.1608,0.1477,0.0085,-0.3275,-0.3711,-0.3847,-0.3888,-0.3254,-0.3313,-0.4429,-0.4119,-0.4073,-0.448,-0.4525,-0.4522,-0.4519,-0.4519,-0.4519,-0.4522,-0.4772,-0.4921,-0.487,-0.523,-0.5369,-0.5369,-0.5369,-0.5369,-0.5372,-0.5379,-0.5389,-0.5399,-0.541,-0.319,0.0,0.0,0.0,0.0,0.7682,0.7231,0.6852,0.6307,0.6105,0.6105,0.6435,0.7063,0.7918,0.9095,0.9969,1.0795,1.1676,1.0974,1.0436,1.0394,1.0679,1.078,1.0569,1.1211,1.1586,1.1621,1.0563,1.0063,1.015,0.9852,0.9377,0.878,0.9637,0.9785,0.9323,1.036,1.0992,1.1239,1.0945,1.1368,1.2269,1.2492,1.266,1.2807,1.3554,1.3515,1.3065,1.3552,1.342,1.2881,1.2881,1.2881,1.2812,1.2346,1.218,1.2093,1.164,1.1331,1.1009,1.0317,0.9699,0.9122,0.8492,0.8055,0.7589,0.6765,0.6569,0.6286,0.5139,0.4692,0.4494,0.4462,0.4053,0.3733,0.3858,0.3663,0.3373,0.3033,0.292,0.0,0.0,0.2141,0.195,0.165,0.1148,-0.0321,-0.3314,-0.3595,-0.3595,-0.3608,-0.0954,-0.0885,-0.433,-0.3078,-0.2956,-0.4477,-0.448,-0.4473,-0.4519,-0.4519,-0.4519,-0.4522,-0.4772,-0.4864,-0.4819,-0.524,-0.5382,-0.5393,-0.5393,-0.5393,-0.5393,-0.5396,-0.5403,-0.5413,-0.5413,-0.3154,0.0,0.0,0.0,0.0,0.0,0.808,0.746,0.6081,0.5927,0.5976,0.5836,0.7353,0.843,0.8311,0.9464,1.0386,1.072,1.0481,1.0351,1.0629,1.0762,1.0855,1.101,1.1256,1.1407,1.1445,1.1004,1.0726,1.0544,1.0366,1.0196,0.9981,1.0302,1.0457,1.058,1.0971,1.1356,1.17,1.1449,1.1736,1.2435,1.2564,1.2899,1.3429,1.3716,1.346,1.2955,1.3127,1.3055,1.2881,1.2881,1.2881,1.2803,1.2136,1.2054,1.2061,1.1295,1.0994,1.0682,0.9851,0.9314,0.8846,0.8172,0.7903,0.7646,0.6965,0.6688,0.6397,0.554,0.5156,0.4935,0.4788,0.4468,0.4183,0.4058,0.3798,0.3579,0.3379,0.3196,0.2955,0.0,0.2222,0.188,0.1615,0.0429,-0.0375,-0.0343,-0.1607,-0.239,-0.2418,-0.1462,-0.1101,-0.1482,-0.2305,-0.234,-0.1561,-0.3463,-0.448,-0.4484,-0.4484,-0.4478,-0.4521,-0.4597,-0.4742,-0.4845,-0.4025,-0.362,-0.3623,-0.3623,-0.3623,-0.3689,-0.4922,-0.541,-0.5413,-0.543,-0.3195,0.0,0.0,0.0,0.0,0.874,0.8448,0.7784,0.6155,0.5744,0.5712,0.5836,0.7382,0.8461,0.8207,0.9493,1.0475,1.0611,1.0417,1.0458,1.099,1.0864,1.1064,1.1731,1.1664,1.1781,1.2183,1.1643,1.1287,1.1238,1.1004,1.0853,1.0784,1.0922,1.1094,1.1356,1.1579,1.1974,1.2452,1.2144,1.2334,1.2871,1.2715,1.299,1.3457,1.3457,1.3293,1.2975,1.2908,1.2918,1.2942,1.2919,1.2881,1.2832,1.2344,1.2329,1.2358,1.176,1.1517,1.1325,1.0437,1.0063,0.9743,0.9068,0.8715,0.8401,0.7784,0.7364,0.6906,0.6089,0.5698,0.5471,0.5346,0.4952,0.4654,0.4711,0.4233,0.386,0.3894,0.3548,0.3142,0.0,0.2145,0.1744,0.1617,0.0553,0.0106,0.0777,0.0226,-0.0466,-0.1105,-0.1139,-0.0798,-0.0052,-0.1211,-0.1831,-0.162,-0.2458,-0.313,-0.3697,-0.3697,-0.3702,-0.3709,-0.3706,-0.4077,-0.4733,-0.3985,-0.2952,-0.1744,-0.1744,-0.1744,-0.1811,-0.3029,-0.3504,-0.3507,-0.345,-0.2026,0.0,0.0,0.0,0.0,0.8569,0.8325,0.7867,0.6531,0.569,0.5534,0.6453,0.7335,0.811,0.8821,0.9993,1.0874,1.123,1.0695,1.0586,1.1316,1.1015,1.1358,1.2725,1.2432,1.2682,1.3711,1.2418,1.1856,1.2227,1.1699,1.1358,1.1165,1.1469,1.1653,1.1689,1.2186,1.2782,1.3433,1.2926,1.302,1.351,1.301,1.2861,1.2881,1.2881,1.292,1.289,1.292,1.2919,1.2969,1.2897,1.2881,1.2881,1.2881,1.2881,1.2881,1.2881,1.2881,1.2774,1.203,1.1814,1.1684,1.1046,1.0423,0.9779,0.9213,0.8583,0.7838,0.6874,0.6417,0.6211,0.6152,0.5544,0.5181,0.5693,0.4883,0.4212,0.456,0.3962,0.3233,0.254,0.1973,0.1644,0.1617,0.1514,0.1108,0.0201,0.161,0.1904,0.0245,0.0151,0.0092,0.0,-0.0052,-0.1347,-0.4166,-0.1621,-0.0837,-0.2063,-0.2063,-0.2099,-0.211,-0.2119,-0.288,-0.4282,-0.4872,-0.3236,0.0,0.0,0.0,0.0,0.0,0.0,0.0,0.0,0.0,0.0,0.0,0.0,0.0,0.9785,0.878,0.7972,0.7592,0.7175,0.7038,0.7556,0.8409,0.9051,0.9245,0.9748,0.9915,0.9496,0.9309,0.9658,1.0864,1.0864,1.1375,1.2803,1.2806,1.2904,1.3132,1.273,1.2505,1.2584,1.2402,1.22,1.1983,1.2293,1.2401,1.2401,1.2556,1.277,1.3033,1.2899,1.2925,1.2989,1.2942,1.2939,1.2881,1.2881,1.2905,1.295,1.2936,1.2919,1.2969,1.2897,1.2881,1.2881,1.2881,1.2881,1.2881,1.2881,1.2881,1.2774,1.203,1.1814,1.1648,1.1005,1.0681,1.0458,1.0063,0.9621,0.9115,0.0,0.8182,0.772,0.7119,0.671,0.6314,0.5832,0.505,0.4484,0.4521,0.3827,0.3171,0.2801,0.2438,0.2142,0.1983,0.2021,0.1966,0.172,0.1103,0.1045,0.1955,0.1988,0.1425,0.005,-0.0445,-0.0817,-0.1118,-0.2581,-0.2467,-0.056,-0.056,-0.0569,-0.0588,-0.0546,-0.0752,-0.1163,-0.133,-0.0876,0.0,0.0,0.0,0.0,0.0,0.0,0.0,0.0,0.0,0.0,0.0,0.0,0.0,1.0582,0.954,0.8699,0.8423,0.8219,0.8132,0.7997,0.9141,0.9908,0.9626,0.9959,1.0139,0.9946,0.951,0.9762,1.1116,1.1266,1.1814,1.318,1.3091,1.3071,1.3266,1.2986,1.2843,1.2792,1.2708,1.2611,1.2527,1.2613,1.2698,1.2803,1.2803,1.3031,1.3417,1.3159,1.3128,1.3294,1.3075,1.3118,1.3286,1.3017,1.2916,0.0,1.3185,1.3303,1.3376,1.3601,1.3344,1.2881,1.2881,1.2881,1.2881,1.2881,1.2881,1.2822,1.2393,1.2295,1.2197,1.1841,1.1475,1.1213,1.1019,1.0568,1.0086,0.9766,0.9352,0.8858,0.824,0.7581,0.7044,0.6722,0.5685,0.4768,0.4383,0.377,0.3226,0.2944,0.2606,0.2308,0.2114,0.2244,0.2361,0.2353,0.1633,0.1422,0.2052,0.2465,0.2312,0.1383,0.0191,-0.0348,-0.0,-0.1668,-0.1738,-0.0,0.0,0.0,0.0,0.0,0.0,0.0,0.0,0.0,0.0,0.0,0.0,0.0,0.0,0.0944,0.2363,0.236,0.1412,0.0135,0.0999,0.08,0.0,1.0992,1.0293,0.9628,0.9062,0.9098,0.902,0.8445,0.9632,1.0478,1.0075,1.0454,1.0928,1.1273,1.0466,1.0415,1.1715,1.1814,1.2355,1.3721,1.3334,1.3286,1.3909,1.342,1.3162,1.3162,1.3047,1.2975,1.2899,1.2828,1.2822,1.2896,1.2931,1.3295,1.3959,1.3446,1.3435,1.3807,1.3238,1.3257,1.3637,1.32,1.3017,1.3055,1.3695,1.3909,1.4003,1.4514,1.4025,1.3113,1.3065,1.3017,1.3017,1.2929,1.2881,1.2881,1.2881,1.2881,1.2881,1.2881,1.2452,1.1922,1.1922,1.1481,1.0927,1.0602,1.0206,0.9747,0.9403,0.835,0.7573,0.7828,0.6567,0.5172,0.4315,0.3879,0.352,0.3048,0.271,0.2423,0.2242,0.2352,0.0,0.2477,0.2647,0.2378,0.1481,0.2228,0.2811,0.3054,0.1346,0.0295,0.0,0.0,0.0,0.0,0.0,0.0,0.0,0.0,0.0,0.0,0.0,0.0,0.0,0.0472,0.0674,0.0741,0.0741,0.2429,0.5094,0.5282,0.3496,0.0876,0.2493,0.2108,0.0734,1.1029,1.0273,0.9744,0.9843,1.0099,1.031,1.0224,1.0136,1.0204,1.0606,1.0714,1.0839,1.0906,1.0762,1.0965,1.1715,1.1814,1.2355,1.3721,1.3684,1.392,1.4514,1.4422,1.4387,1.4387,1.4415,1.4128,1.3529,1.3734,1.3508,1.2896,1.3082,1.3213,1.3336,1.3248,1.319,1.3159,1.3052,1.3001,1.3104,1.3457,1.3637,1.3684,1.4329,1.4514,1.4571,1.4663,1.4571,1.4294,1.3826,1.3637,1.3552,1.3065,1.2881,1.2881,1.2881,1.2881,1.2881,1.2881,1.2822,1.2715,1.2715,1.2349,1.1959,1.1853,1.1267,1.0548,1.0049,0.9142,0.8317,0.7913,0.7039,0.599,0.4787,0.4529,0.4258,0.3588,0.3194,0.2924,0.2776,0.283,0.2881,0.283,0.2895,0.2664,0.2001,0.2591,0.2893,0.2758,0.2626,0.1795,0.0055,0.0,0.0,0.0,0.0,0.0,0.0,0.0,0.0,0.0,0.0,0.0,0.0135,0.3179,0.447,0.4456,0.4456,0.3974,0.3288,0.4785,0.4989,0.4333,0.3422,0.4005,0.4705,1.1542,1.1094,1.0835,1.0745,1.0772,1.0848,1.0931,1.0911,1.1068,1.1539,1.1616,1.1765,1.211,1.1665,1.1706,1.2745,1.2841,1.3375,1.4584,1.4424,1.4532,1.5068,1.4843,1.4698,1.4698,1.4743,1.4468,1.3877,1.3973,1.3889,1.3527,1.3288,1.3348,1.3659,1.3312,1.3394,1.3822,1.3554,1.3726,1.4163,1.424,1.4283,1.4329,1.496,1.5186,1.5186,1.5511,1.5611,1.5466,1.456,1.4283,1.4247,1.3931,1.361,1.3372,1.3372,1.3152,1.2881,1.2881,1.2881,1.2881,1.2881,1.2725,1.2568,1.2568,1.2061,1.1504,1.123,1.0252,0.9061,0.7835,0.7252,0.662,0.5632,0.5063,0.4613,0.4209,0.3652,0.3194,0.2961,0.3058,0.3104,0.3158,0.3218,0.3093,0.2707,0.314,0.3353,0.3157,0.2541,0.1805,0.0978,0.0333,0.0,0.0,0.0,0.0,0.0,0.0,0.0,0.0063,0.1915,0.2829,0.2829,0.3641,0.3976,0.4102,0.4992,0.4916,0.4159,0.5043,0.5437,0.546,0.4725,0.5283,0.5989,1.2204,1.2076,1.1921,1.1501,1.1334,1.132,1.1472,1.1813,1.207,1.2267,1.2423,1.2725,1.3228,1.253,1.2511,1.3721,1.3815,1.4337,1.5584,1.5199,1.5245,1.6053,1.5441,1.5211,1.543,1.5222,1.4903,1.4533,1.4413,1.4325,1.4249,1.3785,1.3738,1.4076,1.3524,1.3697,1.4389,1.4171,1.4549,1.5284,1.5139,1.5085,1.512,1.5591,1.5776,1.5864,1.6324,1.6522,1.6337,1.5377,1.5017,1.488,1.4744,1.4376,1.4003,1.4003,1.3552,1.3104,1.3104,1.3017,1.2881,1.2881,1.2881,1.2881,1.2881,1.2549,1.218,1.218,1.1076,0.9591,0.7913,0.7609,0.0,0.648,0.5781,0.5242,0.4819,0.4185,0.3612,0.3301,0.3313,0.3423,0.363,0.3616,0.3564,0.3406,0.3651,0.3778,0.3784,0.2518,0.177,0.1802,0.0655,0.0,0.0,0.0,0.035,0.0933,0.1057,0.0959,0.064,0.3513,0.5065,0.5339,0.3894,0.3282,0.3416,0.484,0.5403,0.5423,0.5423,0.5586,0.5737,0.58,0.6009,0.6225,1.2873,1.2591,1.2331,1.1969,1.1999,1.2168,1.2493,1.2683,1.2559,1.1913,1.2452,1.2881,1.2929,1.2871,1.3045,1.3721,1.3815,1.4526,1.6197,1.5828,1.6233,1.7877,1.6908,1.6809,1.7828,1.6859,1.633,1.6273,1.5774,1.5302,1.4828,1.4777,1.4469,1.4006,1.3955,1.3809,0.0,1.4367,1.4858,1.5273,1.5971,1.6243,1.6242,1.6379,1.6423,1.6423,1.6466,1.6522,1.6466,1.638,1.5964,1.541,1.488,1.4663,1.4617,1.4617,1.4201,1.3732,1.3732,1.3334,1.2881,1.2881,1.2881,1.2881,1.2881,1.2549,1.218,1.218,1.1076,0.9712,0.8521,0.845,0.8176,0.6924,0.702,0.675,0.5277,0.4892,0.4595,0.4127,0.3891,0.3914,0.4347,0.4165,0.4058,0.4109,0.3862,0.3878,0.4322,0.3748,0.2903,0.1855,0.064,0.0,0.0,0.0,0.1351,0.4079,0.4663,0.4041,0.2475,0.2812,0.3828,0.5396,0.5189,0.5116,0.5173,0.5299,0.5447,0.5569,0.5569,0.5657,0.5803,0.5952,0.6017,0.6054,1.4125,1.4002,1.3773,1.3249,1.3192,1.3111,1.2862,1.3175,1.3218,1.255,1.2725,1.2881,1.2881,1.2881,1.3286,1.4236,1.4329,1.5221,1.7345,1.6995,1.7285,1.8595,1.7953,1.7739,1.8191,1.7438,1.6861,1.6522,1.5969,1.558,1.5367,1.4661,1.4014,1.3417,1.3641,1.3832,1.4024,1.5132,1.5609,1.5767,1.6645,1.6765,1.6446,1.651,1.6522,1.6522,1.6522,1.6522,1.6522,1.6522,1.6337,1.6095,1.5876,1.5511,1.5231,1.5231,1.4824,1.4283,1.3909,1.3637,1.3324,1.2968,1.2881,1.2881,1.2881,1.2744,1.2617,1.2617,1.164,1.0418,0.9377,0.8928,0.849,0.7852,0.7468,0.7069,0.6612,0.5859,0.4979,0.3983,0.4144,0.4287,0.417,0.4105,0.4147,0.429,0.4212,0.4232,0.4447,0.4273,0.3872,0.3134,0.2657,0.247,0.2697,0.1985,0.2247,0.341,0.4568,0.4829,0.4313,0.435,0.4697,0.5376,0.5376,0.5423,0.5504,0.5501,0.5586,0.5718,0.5718,0.5806,0.5945,0.6006,0.6088,0.6176,1.5144,1.5089,1.4914,1.4258,1.4138,1.3992,1.3521,1.3647,1.3637,1.3238,1.3017,1.2881,1.2881,1.2881,1.3382,1.4617,1.4832,1.5788,1.7809,1.7752,1.8041,1.8933,1.8505,1.8355,1.8668,1.799,1.7501,1.7262,1.6534,1.6098,1.5892,1.4725,0.0,0.0,1.3594,1.398,1.4591,1.578,1.6356,1.6637,1.7347,1.7287,1.676,1.6584,1.6595,1.671,1.6552,1.6595,1.671,1.6552,1.6522,1.6522,1.6522,1.6194,1.5864,1.5864,1.5466,1.488,1.4457,1.4086,1.3684,1.3286,1.3017,1.2881,1.2881,1.2881,1.2881,1.2881,1.2168,1.1156,1.0086,0.9486,0.8963,0.8486,0.7959,0.7567,0.752,0.6764,0.5774,0.4602,0.4844,0.4925,0.4517,0.4433,0.4424,0.4449,0.4454,0.4462,0.4513,0.4496,0.4362,0.4046,0.3761,0.3868,0.4385,0.3691,0.3348,0.3348,0.451,0.5159,0.5293,0.5373,0.5369,0.5428,0.541,0.5491,0.5593,0.5637,0.5739,0.5867,0.5867,0.5962,0.6098,0.6098,0.6166,0.6338,1.5644,1.5608,1.5386,1.4778,1.4698,1.4698,1.4698,1.419,1.3815,1.3779,1.3286,1.2881,1.2881,1.2881,1.3382,1.4617,1.5193,1.6056,1.7343,1.789,1.8442,1.8958,1.8505,1.8706,1.9761,1.8744,1.8455,1.8945,1.7903,1.7053,1.6383,0.0,1.4559,1.4349,1.3968,1.4321,1.5225,1.6025,1.6977,1.7882,1.8104,1.7865,1.7313,1.6735,1.6837,1.7229,1.668,1.6837,1.7188,1.668,1.6522,1.6522,1.6522,1.6466,1.6479,1.6479,1.6051,1.5588,1.5588,1.4721,1.3815,1.3779,1.3334,1.2881,1.2881,1.2881,1.2881,1.2881,1.2539,1.1836,1.0612,1.0277,0.9801,0.8614,0.8611,0.8482,0.7625,0.7476,0.7229,0.6619,0.6213,0.5916,0.5809,0.5351,0.4956,0.4602,0.4534,0.4555,0.4613,0.4348,0.4197,0.4197,0.3237,0.3189,0.4217,0.4632,0.4841,0.4773,0.5199,0.5276,0.5135,0.5291,0.5428,0.5435,0.5521,0.5589,0.5599,0.5742,0.5888,0.6027,0.6027,0.6122,0.6335,0.6335,0.6335,0.6338,1.633,1.6194,1.6008,1.541,1.532,1.5186,1.4744,1.4869,1.4721,1.3909,1.4014,1.3789,1.2978,1.3135,1.3631,1.4424,1.4921,1.5936,1.7628,1.792,1.846,1.9484,1.9384,1.9459,1.9798,1.912,1.8857,1.8983,1.7928,0.0,0.0,1.5258,1.4778,1.4178,1.44,1.493,1.5733,1.6762,1.7289,1.7444,1.8358,1.8189,1.7336,1.7502,1.7463,1.7271,1.7118,1.6909,1.671,1.6552,1.6522,1.6522,1.6522,1.6522,1.6522,1.6522,1.638,1.6139,1.572,1.5309,1.4812,1.4003,1.3637,1.342,1.2968,1.2881,1.2881,1.2881,1.2396,1.1683,1.0847,1.0248,0.9664,0.882,0.8744,0.8718,0.841,0.8229,0.7891,0.7303,0.7011,0.6712,0.6248,0.6139,0.599,0.569,0.5484,0.5128,0.4696,0.4492,0.4405,0.447,0.4126,0.4066,0.4412,0.4707,0.4917,0.4857,0.5219,0.536,0.5294,0.5447,0.5518,0.5525,0.5671,0.5793,0.5891,0.5939,0.6047,0.6186,0.6186,0.6217,0.6338,0.6338,0.6338,0.6338,1.6879,1.6637,1.638,1.6008,1.6134,1.6134,1.5773,1.5806,1.5646,1.4862,1.4717,1.4433,1.3658,1.3965,0.0,1.4401,1.5254,1.6295,1.7532,1.8217,1.8878,1.9446,1.9698,1.9798,1.9798,1.9484,0.0,1.9321,1.8225,1.7183,1.6261,1.5894,1.5524,1.5214,1.5339,1.5892,1.6758,1.7497,1.7791,1.7898,1.8699,1.8469,1.7671,1.7989,1.7907,1.7585,1.7394,1.7076,1.6752,1.6552,1.6522,1.6522,1.6522,1.6522,1.6522,1.6522,1.6522,1.6423,1.6051,1.5764,1.5353,1.4365,1.3956,1.3637,1.3065,1.2881,1.2881,1.2881,1.255,1.1981,1.1316,1.0618,0.9961,0.9263,0.8956,0.8804,0.8804,0.8651,0.8388,0.7911,0.7544,0.7132,0.677,0.6587,0.6322,0.5948,0.5738,0.5326,0.4647,0.4573,0.4555,0.4638,0.456,0.4521,0.4643,0.4826,0.4945,0.5003,0.5304,0.5447,0.5454,0.5599,0.5878,0.6227,0.5905,0.6103,0.6544,0.6176,0.6122,0.6338,0.6338,0.6338,0.6338,0.6338,0.6338,0.6338,1.7312,1.6905,1.6572,1.6572,1.7049,1.7426,1.7388,1.6871,1.6453,1.6359,1.5441,1.4744,1.4698,1.504,1.5088,1.4591,0.0,0.0,1.7201,1.8806,1.9534,1.9058,1.9547,1.9798,1.9798,1.9798,1.9786,1.9748,1.8666,1.8056,1.7867,1.6954,1.6718,1.7055,1.6655,1.7109,1.8115,1.8115,1.8521,1.9068,1.9053,1.8782,1.8315,1.822,1.8185,1.8027,1.7544,1.7312,1.7146,1.668,1.6522,1.6522,1.6522,1.6522,1.6522,1.6522,1.6522,1.6522,1.6522,1.6095,1.5499,1.488,1.419,1.36,1.3017,1.2881,1.2881,1.2881,1.2881,1.2666,1.1873,1.1216,1.0568,0.9865,0.9211,0.8804,0.8804,0.8804,0.8704,0.8437,0.7835,0.7422,0.7422,0.6786,0.6186,0.5725,0.5629,0.5307,0.4663,0.4595,0.4664,0.468,0.4551,0.4619,0.4914,0.4928,0.5006,0.5148,0.5447,0.5589,0.5596,0.5806,0.6365,0.7212,0.6376,0.6615,0.7495,0.663,0.6356,0.649,0.649,0.649,0.649,0.649,0.649,0.6412,0.0,0.0,1.7174,1.7174,1.7639,1.7865,1.7451,1.7272,1.6827,1.5915,1.5525,1.5231,1.4744,1.504,1.5426,1.5764,1.6443,1.727,1.8282,1.873,1.9141,1.9571,1.9736,1.9798,1.9798,1.9798,1.961,1.9208,1.8933,1.8484,1.7879,1.767,1.752,1.7454,1.7342,1.7783,1.8536,1.8536,1.9031,1.9756,1.9656,1.9583,1.948,1.938,1.8817,1.8066,1.7947,1.7394,1.668,1.6552,1.6522,1.6522,1.6522,1.6522,1.6522,1.6522,1.6522,1.6522,1.6522,1.638,1.602,1.4983,1.3884,1.3055,1.292,1.2881,1.2881,1.2881,1.2881,1.252,1.1275,1.0914,1.0415,0.9211,0.891,0.8804,0.8804,0.8804,0.8784,0.8711,0.8547,0.8436,0.8436,0.8273,0.8047,0.775,0.6954,0.6271,0.5797,0.5119,0.4723,0.4687,0.4657,0.4728,0.4918,0.5026,0.5159,0.5311,0.5498,0.5589,0.5593,0.6439,0.6936,0.7153,0.7789,0.8239,0.8519,0.8543,0.8571,0.8618,0.8618,0.8618,0.8618,0.8618,0.8084,0.748,1.818,1.7726,1.73,1.7036,1.7451,1.7727,1.7426,1.7388,1.7172,1.6524,1.6166,1.5876,1.5567,1.5714,1.6197,1.7024,1.7241,1.7688,1.8626,1.9044,1.9359,1.9798,1.9798,1.9798,1.9798,1.9798,1.966,1.9384,1.9384,1.9157,1.8763,1.8763,1.8714,1.8608,1.8608,1.8821,1.9202,1.9554,1.9748,1.9932,2.0133,2.0034,1.9785,1.9455,1.8968,1.8419,1.7907,1.7353,1.6837,1.6595,1.6522,1.6522,1.6522,1.6522,1.6522,1.6522,1.6522,1.6522,1.6522,1.6522,1.6207,1.5017,1.38,1.2881,1.2881,1.2881,1.2881,1.2881,1.2881,1.2676,1.19,1.1475,1.0914,0.9865,0.9497,0.9204,0.8837,0.8847,0.8813,0.8791,0.848,0.8427,0.8752,0.848,0.8258,0.8107,0.7564,0.6871,0.6058,0.5903,0.5547,0.4789,0.4796,0.4901,0.5118,0.5574,0.5917,0.6013,0.6668,0.7003,0.7015,0.7785,0.8349,0.8777,0.887,0.9223,0.9685,0.9352,0.928,0.9296,0.9296,0.9296,0.9296,0.9296,0.8917,0.8466,1.8824,1.8057,1.7225,1.6735,1.7124,1.7476,1.74,1.7388,1.735,1.7262,1.6823,1.6522,1.6522,1.6522,1.6974,1.8103,1.8044,1.8187,1.8838,1.9475,1.9798,1.9798,1.9798,1.9798,1.9798,1.9798,1.9798,1.9798,1.9798,1.9798,1.9798,1.9798,1.9798,1.9798,1.9798,1.985,2.0003,2.0547,2.0514,2.0121,2.0556,2.0349,1.9771,1.9137,1.8893,1.8765,1.7706,1.7312,1.7229,1.668,1.6522,1.6522,1.6522,1.6522,1.6522,1.6522,1.6522,1.6522,1.6522,1.6423,1.6107,1.4971,1.3836,1.3017,1.2929,1.2881,1.2881,1.2881,1.2881,1.2881,1.2725,1.2236,1.1566,1.0864,1.0284,0.9657,0.8974,0.8899,0.8887,0.883,0.8262,0.8103,0.8752,0.8209,0.7901,0.7943,0.7836,0.734,0.6262,0.6822,0.6632,0.5369,0.5312,0.5454,0.5815,0.6527,0.6915,0.692,0.8069,0.8624,0.8639,0.9206,0.9916,1.0713,0.9845,1.0092,1.0867,0.9952,0.9643,0.975,0.975,0.975,0.9755,0.9787,0.9727,0.958,1.7637,1.7493,1.735,1.7262,1.7702,1.7915,1.7451,1.7388,1.7212,1.6722,1.6572,1.6522,1.6522,1.6522,1.6974,1.8103,1.8172,1.8585,1.9569,1.9747,1.9798,1.9798,1.9798,1.9798,1.9798,1.9798,1.9798,1.9798,1.9798,1.9798,1.9798,1.9798,1.9798,1.9798,1.9798,2.0105,2.0646,2.0746,2.103,2.138,2.0897,2.0622,2.0427,1.9304,1.8893,1.8765,1.7706,1.7312,1.7229,1.668,1.6522,1.6522,1.6522,1.6522,1.6522,1.6522,1.6522,1.6522,1.6522,1.6151,1.5588,1.488,1.4201,1.3552,1.3017,1.2881,1.2881,1.2881,1.2881,1.2725,1.2107,1.1882,1.1516,1.0618,1.012,0.971,0.9354,0.902,0.881,0.8798,0.8699,0.8699,0.8804,0.8699,0.8744,0.8932,0.8441,0.8158,0.8177,0.7783,0.7532,0.7259,0.7259,0.738,0.7572,0.7702,0.7832,0.7837,0.8343,0.8624,0.8634,0.9757,1.0321,1.0532,1.1156,1.1598,1.1729,1.178,1.181,1.1848,1.1848,1.1848,1.188,1.2119,1.1667,1.0933,1.7996,1.7604,1.7287,1.6974,1.7124,1.7212,1.6961,1.6923,1.6823,1.6559,1.6522,1.6522,1.6522,1.6798,1.7313,1.8129,1.848,1.8982,1.9748,1.9798,1.9798,1.9798,1.9798,1.9798,1.9798,1.9798,1.9798,1.9798,1.9798,1.9798,1.9798,2.0156,2.0359,2.0346,2.067,2.1002,2.1293,2.169,2.1777,2.1657,2.1359,2.1025,2.0557,1.9342,1.908,1.9207,1.8145,1.7747,1.7666,1.7118,1.6752,1.6522,1.6522,1.6735,1.6923,1.6609,1.6522,1.6522,1.6522,1.6051,1.5543,1.5231,1.4503,1.3732,1.3467,1.3152,1.2881,1.2881,1.2881,1.2851,1.2755,1.2553,1.2127,1.1333,1.0767,1.0128,0.9407,0.9026,0.8837,0.8791,0.8804,0.8871,0.9025,0.9038,0.9165,0.9459,0.9188,0.8893,0.8735,0.8859,0.8865,0.8565,0.8122,0.7914,0.8027,0.8484,0.8749,0.8942,0.9707,1.0172,1.0384,1.1081,1.143,1.143,1.188,1.2104,1.2118,1.2245,1.2305,1.2305,1.2305,1.2398,1.2559,1.2768,1.2621,1.2302,1.8265,1.7578,1.7036,1.6597,1.6522,1.6522,1.6522,1.6522,1.6522,1.6522,1.6635,1.6722,1.6722,1.7225,1.779,1.8342,1.8781,1.9246,1.9761,1.9798,1.9798,1.9798,1.9798,1.9798,1.9798,1.9798,1.9798,1.9798,1.9798,1.9901,2.0055,2.0547,2.0894,2.1028,2.1472,2.1805,2.1946,2.2498,2.2379,2.1945,2.1951,2.153,2.078,1.9575,1.9478,1.9753,1.8397,1.7987,1.7987,1.7353,1.6837,1.6547,1.6672,1.7024,1.73,1.6848,1.6622,1.6522,1.6522,1.6151,1.5732,1.5454,1.4687,1.3956,1.3637,1.3238,1.291,1.3008,1.3027,1.3154,1.3574,1.3389,1.3014,1.2416,0.0,1.0898,0.9814,0.9309,0.9031,0.8924,0.8911,0.9025,0.9312,0.9345,0.9466,0.976,0.9786,0.9603,0.9248,0.9839,1.0037,0.9673,0.8964,0.8635,0.869,0.935,0.9819,1.008,1.1041,1.165,1.1877,1.2171,1.2305,1.2305,1.2305,1.2305,1.2305,1.2305,1.2305,1.2311,1.2378,1.2545,1.2842,1.2906,1.3106,1.332,1.7502,1.6944,1.6572,1.6522,1.6522,1.6522,1.6522,1.6522,1.6522,1.6522,1.6986,1.7313,1.7313,1.7815,1.8367,1.887,1.8958,1.9246,1.9761,1.9798,1.9798,1.9798,1.9798,1.9798,1.9798,1.9798,1.9798,1.9798,1.9798,2.0105,2.0759,2.0795,2.1113,2.1663,2.1697,2.2053,2.2649,2.2694,2.2659,2.2626,2.2622,2.2203,2.1505,2.0298,2.0143,2.0353,1.8152,1.7666,1.7947,1.6909,1.6522,1.6609,1.7149,1.735,1.7375,1.7338,1.6936,1.6522,1.6522,1.6466,1.6151,1.5062,1.4698,1.434,1.32,1.2929,1.2988,1.3379,1.3467,1.3584,1.3951,1.4009,1.3956,1.3702,0.0,0.0,1.1091,1.0263,0.9597,0.9227,0.915,0.9325,0.9619,0.9653,0.9773,1.006,1.0087,1.0214,1.0445,1.0528,1.0661,1.0883,1.0566,1.0553,1.0758,1.0824,1.1036,1.1259,1.1697,1.185,1.1877,1.2171,1.2305,1.2305,1.2305,1.2305,1.2305,1.2305,1.2305,1.2325,1.2605,1.2802,1.2889,1.3373,1.3512,1.3654,1.7543,1.7146,1.6879,1.6552,1.6522,1.6522,1.6522,1.6522,1.6647,1.7011,1.725,1.7513,1.7852,1.838,1.8794,1.8958,1.9321,1.9597,1.9786,1.9798,1.9798,1.9798,1.9798,1.9798,1.9798,1.9798,1.9798,1.9798,1.9798,2.0144,2.0795,2.121,2.1724,2.2346,2.2711,2.3024,2.3246,2.3246,2.3244,2.3221,2.2873,2.2532,2.2233,2.1361,2.0896,2.0601,1.9715,1.8835,1.8027,1.7626,1.7034,1.6622,1.72,1.7614,1.789,1.789,1.7501,1.6974,1.6609,1.6522,1.638,1.5932,1.5242,1.4571,1.4118,1.343,1.2998,1.3418,1.3506,1.3721,1.4414,1.4316,1.409,1.4033,0.0,1.2405,1.2049,1.1377,1.0715,1.0297,1.0277,1.0179,0.9979,0.9953,1.0074,1.0367,1.0388,1.0441,1.0618,1.0728,1.0875,1.0989,1.1062,1.1149,1.1263,1.1263,1.141,1.1703,1.1817,1.1964,1.2138,1.2251,1.2305,1.2311,1.2498,1.2472,1.2331,1.2705,1.2752,1.2605,1.2913,1.3146,1.3333,1.3561,1.3761,1.3935,1.7828,1.7435,1.7105,1.6595,1.6522,1.6522,1.6522,1.6672,1.7011,1.7613,1.7801,1.8122,1.869,1.9043,1.9271,1.9271,1.9597,1.9798,1.9798,1.9798,1.9798,1.9798,1.9798,1.9798,1.9798,1.9798,1.9798,1.9798,1.9798,2.0245,2.1064,2.152,2.2146,2.3009,2.3421,2.3595,2.3595,2.3595,2.3595,2.3565,2.3131,2.2966,2.2892,2.2248,2.1724,2.1237,2.065,1.9676,1.8567,1.8042,1.7472,1.7091,1.7496,1.7903,1.8242,1.8405,1.7827,1.7061,1.6848,1.666,1.6466,1.6238,1.5599,1.496,1.4946,1.4286,1.3807,1.4184,1.4252,1.4377,1.491,1.4736,1.4494,1.4594,1.383,1.3177,1.2984,1.2436,1.1835,1.1477,1.1172,1.0902,1.0634,1.0431,1.0381,1.0675,1.0672,1.0665,1.0688,1.0969,1.1169,1.1269,1.1463,1.161,1.1697,1.161,1.171,1.2004,1.2004,1.2158,1.2445,1.2445,1.2498,1.2599,1.2806,1.2779,1.2619,1.3039,1.3086,1.2919,1.3227,1.3467,1.3572,1.3748,1.3915,1.4088,1.8224,1.7666,1.7146,1.6595,1.6522,1.6522,1.6522,1.7011,1.7619,1.8226,1.8729,1.9253,1.9951,1.9861,1.9798,1.9798,1.9798,1.9798,1.9798,1.9798,1.9798,1.9798,1.9798,1.9798,1.9798,1.9798,1.9798,1.9798,1.9811,2.0471,2.1697,2.171,2.2363,2.3595,2.3595,2.3595,2.3595,2.3595,2.3595,2.3595,2.3595,2.3595,2.3535,2.2921,2.2724,2.2446,2.0604,1.9926,1.9652,1.7882,1.7721,1.8197,1.8202,1.8204,1.8317,1.8869,1.784,1.666,1.7225,1.6961,1.638,1.5776,1.5588,1.5596,1.5516,1.5485,1.557,1.585,1.5879,1.5808,1.5438,1.541,1.541,1.541,1.5059,1.4551,1.3921,1.3405,1.2964,1.2671,1.1878,1.1466,1.1796,1.1108,1.0745,1.0969,1.0728,1.0695,1.0982,1.1269,1.1563,1.1857,1.187,1.2011,1.2298,1.2017,1.2017,1.2305,1.2305,1.2458,1.2829,1.2829,1.2919,1.3213,1.3213,1.3213,1.3213,1.3213,1.322,1.324,1.3534,1.3566,1.3599,1.3981,1.4088,1.4088,1.8765,1.8535,1.8263,1.7706,1.7626,1.7626,1.7626,1.8178,1.8789,1.9355,1.9588,1.9904,2.0505,2.0105,1.9798,1.9798,1.9798,1.9798,1.9798,1.9798,1.9798,1.9798,1.9798,1.9798,1.9798,1.9798,1.9798,1.9798,2.0258,2.0917,2.1697,2.2193,2.2815,2.3595,2.3595,2.3595,2.3595,2.3595,2.3595,2.3595,2.3595,2.3595,2.358,2.3385,2.2772,2.1994,2.1891,2.1017,1.9835,1.9293,1.897,1.874,1.8316,1.8468,1.8744,1.8518,1.8091,1.7652,1.7438,1.725,1.6979,1.638,1.6187,1.617,1.615,1.5672,1.541,1.5817,1.5464,1.5183,1.539,1.541,1.541,1.541,1.5059,1.4836,1.4888,1.4572,1.4167,1.3753,1.3492,1.2929,1.1881,1.1728,1.1524,1.1048,1.1102,1.1209,1.1289,1.1577,1.1777,1.1864,1.2064,1.2218,1.2305,1.2218,1.2325,1.2612,1.2612,1.2772,1.3073,1.3073,1.312,1.322,1.3427,1.34,1.324,1.3654,1.3701,1.354,1.3841,1.3955,1.3968,1.4055,1.4088,1.4088,1.9006,1.8893,1.8727,1.8185,1.8106,1.8106,1.8106,1.8617,1.9211,1.9818,1.9925,2.0245,2.1059,2.0333,1.9901,2.0144,1.9952,1.9798,1.9798,1.9798,1.9798,1.9798,1.9798,1.9798,1.9798,1.9798,1.9952,2.0207,2.0597,2.1259,2.21,2.2498,2.3009,2.3595,2.3595,2.3595,2.3595,2.3595,2.3595,2.3595,2.3595,2.3595,2.3595,2.3595,2.3116,2.2473,2.2622,2.198,2.0936,2.0443,1.9905,1.939,1.8938,1.8932,1.8958,1.8882,1.838,1.7852,1.7739,1.7551,1.73,1.6948,1.6646,1.656,1.6985,1.6532,1.6078,1.6504,1.6008,1.5449,1.5419,1.541,1.541,1.541,1.5205,1.5117,1.5381,1.5195,1.4945,1.4718,1.4392,1.3666,1.2381,1.2254,1.1927,1.1223,1.1543,1.1724,1.1603,1.1884,1.2098,1.2284,1.2385,1.2538,1.2659,1.2665,1.2692,1.2822,1.2872,1.3093,1.338,1.338,1.3447,1.3567,1.3741,1.3721,1.3581,1.3941,1.3981,1.3834,1.4015,1.4088,1.4088,1.4088,1.4088,1.4088,1.908,1.8968,1.8817,1.8341,1.8263,1.8277,1.8333,1.8781,1.9377,2.0074,2.0097,2.0489,2.1594,2.062,2.0105,2.0646,2.0144,1.9798,1.9798,1.9798,1.9798,1.9798,1.985,1.9926,1.9977,1.9926,2.0207,2.0795,2.0894,2.1561,2.2694,2.2754,2.3054,2.3595,2.3595,2.3595,2.3595,2.3595,2.3595,2.3595,2.3595,2.3595,2.3595,2.3595,2.3565,2.3445,2.2936,2.2768,2.2536,2.1378,2.0529,1.9982,1.9775,1.9346,1.8995,1.956,1.8656,1.7576,1.8129,1.7903,1.7513,1.7463,1.7061,1.6948,1.8028,1.7691,1.721,1.7551,1.6978,1.6208,1.5526,1.541,1.542,1.5469,1.5469,1.5469,1.5469,1.5469,1.5469,1.5469,1.4803,1.4096,1.3283,1.2663,1.2094,1.1614,1.2141,1.2271,1.2036,1.2271,1.2553,1.2856,1.2869,1.2926,1.3206,1.3233,1.3106,1.2903,1.3113,1.34,1.3599,1.3599,1.3834,1.4088,1.4088,1.4088,1.4088,1.4088,1.4088,1.4088,1.4115,1.4128,1.4128,1.4155,1.4162,1.4162,1.9566,1.953,1.9479,1.9369,1.9369,1.9546,2.0038,2.0671,2.1318,2.2007,2.2104,2.1974,2.1744,2.1015,2.0446,2.0055,1.9901,1.9798,1.9798,1.9798,1.9798,1.9798,2.0295,2.0806,2.1353,2.0832,2.0646,2.0795,2.1799,2.242,2.2694,2.3187,2.3465,2.3595,2.3595,2.3595,2.3595,2.3595,2.3595,2.3595,2.3595,2.3595,2.3595,2.3595,2.3295,2.2921,2.3266,2.3086,2.2587,2.1775,2.0838,1.9917,1.9344,1.853,1.7928,1.8907,1.8643,1.8141,1.8694,1.8769,1.8568,1.8129,1.7928,1.8016,1.8645,1.8108,1.7537,1.7588,1.6528,1.5584,1.541,1.541,1.5527,1.5869,1.5918,1.5918,1.5918,1.5918,1.5918,1.5918,1.5797,1.5487,1.5043,1.384,1.3108,1.3221,1.3302,1.3176,1.262,1.3358,1.3542,1.31,1.3113,1.314,1.3213,1.344,1.3514,1.3447,1.352,1.3701,1.3988,1.3988,1.4028,1.4088,1.4088,1.4088,1.4088,1.4088,1.4088,1.4108,1.4335,1.4429,1.4456,1.4689,1.4776,1.4776,1.969,1.969,1.969,1.969,1.9959,2.0183,2.0228,2.1066,2.1719,2.173,2.2033,2.2079,2.1716,2.1161,2.0547,1.985,1.9798,1.9798,1.9798,1.9798,1.9952,2.0245,2.0597,2.1272,2.22,2.1862,2.1842,2.218,2.2516,2.2844,2.3157,2.3465,2.3595,2.3595,2.3595,2.3595,2.3595,2.3595,2.3595,2.3595,2.3595,2.3595,2.3595,2.3595,2.34,2.3161,2.349,2.3385,2.2975,2.202,2.1315,2.0657,1.9672,1.9007,1.8656,1.9233,1.902,1.8656,1.8895,1.8983,1.8908,1.8668,1.8781,1.8871,1.8534,1.7845,1.719,1.7092,1.6197,1.5478,1.5684,1.5723,1.5869,1.6309,1.6387,1.6387,1.6387,1.6387,1.6387,1.6387,1.6387,1.622,1.576,1.4873,1.419,1.3954,1.4126,1.4057,1.3774,1.3719,1.3875,1.4186,1.3648,1.3487,1.3627,1.3781,1.3928,1.4062,1.3921,1.4008,1.4295,1.4295,1.4295,1.4302,1.4442,1.4429,1.4302,1.4449,1.4502,1.4522,1.4669,1.473,1.475,1.4903,1.4963,1.4963,1.969,1.969,1.969,1.969,2.0154,2.0423,2.0079,2.0976,2.1594,2.1249,2.1657,2.1957,2.1736,2.1064,2.0409,1.985,1.9798,1.9798,1.9798,1.9901,2.0194,2.0795,2.1135,2.1852,2.3049,2.303,2.3264,2.3692,2.3149,2.3098,2.3595,2.3595,2.3595,2.3595,2.3595,2.3595,2.3595,2.3595,2.3595,2.3595,2.3595,2.3595,2.3595,2.3595,2.3595,2.3595,2.3595,2.3551,2.3275,2.2086,2.1594,2.124,2.0156,1.9673,1.956,1.9748,1.9434,1.8995,1.9083,1.9158,1.9158,1.9158,1.956,1.9668,1.8466,1.756,1.6894,1.6842,1.609,1.5654,1.6094,1.6182,1.6318,1.6768,1.6846,1.6846,1.6846,1.6846,1.6846,1.6846,1.6973,1.6852,1.6413,1.6044,1.5549,1.4899,1.5179,1.5204,1.4877,1.4202,1.4266,1.5373,1.443,1.4096,1.4402,1.4402,1.4473,1.4596,1.4355,1.4362,1.4596,1.4596,1.4596,1.4609,1.4856,1.4823,1.4616,1.4863,1.4963,1.497,1.5017,1.5037,1.5044,1.5097,1.511,1.511,1.969,1.969,1.969,1.969,1.9765,2.0183,2.1261,2.1575,2.2043,2.3091,2.3271,2.2937,2.1838,2.0657,1.9901,1.9798,1.9798,1.9798,1.9798,2.0346,2.0709,2.0795,2.2394,2.366,2.4388,2.4378,2.4145,2.3692,2.3555,2.3508,2.3595,2.3595,2.3595,2.3595,2.3595,2.3595,2.3595,2.3595,2.3595,2.3595,2.3595,2.3595,2.3595,2.3595,2.3595,2.3595,2.3595,2.3275,2.2694,2.1946,2.105,2.017,1.9902,1.9158,1.8606,1.9535,1.9434,1.912,1.9572,1.9698,1.9698,1.9698,2.0125,2.0353,1.9552,1.8398,1.7623,1.8,1.696,1.6113,1.6562,1.6641,1.6787,1.7227,1.7295,1.7295,1.7295,1.7295,1.7295,1.7295,1.7939,1.8329,1.8238,1.7823,1.7492,1.7397,1.7441,1.6852,1.5295,1.5842,1.6078,1.5621,1.5471,1.5543,1.5867,1.5867,1.5533,1.4903,1.4863,1.4863,1.4903,1.4903,1.4903,1.4903,1.4943,1.4943,1.491,1.495,1.4963,1.499,1.5244,1.5337,1.5364,1.5618,1.5712,1.5712,1.969,1.969,1.9809,2.0183,2.0557,2.1006,2.1605,2.2293,2.2832,2.3056,2.3385,2.3275,2.2346,2.1424,2.0841,2.0841,2.0841,2.0841,2.0841,2.1148,2.15,2.1846,2.3051,2.4185,2.5177,2.5176,2.5027,2.4764,2.3971,2.3595,2.3595,2.3595,2.3595,2.3595,2.3595,2.3595,2.3625,2.4014,2.4178,2.4178,2.4178,2.4178,2.4133,2.3744,2.3595,2.3595,2.3595,2.3421,2.3098,2.2483,2.1685,2.086,2.0455,1.9774,1.9196,1.966,1.9635,1.951,1.9748,1.9798,1.9798,1.9798,2.0238,2.0598,2.0274,1.928,1.8402,1.8165,1.7205,1.6572,1.7012,1.709,1.7236,1.7656,1.7734,1.7734,1.7734,1.7734,1.7822,1.8057,1.8633,1.8994,1.8994,1.9008,1.8798,1.8185,1.8393,1.8195,1.7405,1.7174,1.6919,1.6593,1.6126,1.5709,1.5182,1.5357,1.5431,1.5204,1.5204,1.5204,1.5204,1.5204,1.5204,1.5217,1.5378,1.5357,1.5217,1.5384,1.5444,1.5464,1.5585,1.5638,1.5651,1.5785,1.5832,1.5832]}]]